<?xml version="1.0" encoding="UTF-8" ?>
<gpx version="1.1" xmlns:xsi="http://www.w3.org/2001/XMLSchema-instance" 
    xmlns="http://www.topografix.com/GPX/1/1" 
    xsi:schemaLocation="http://www.topografix.com/GPX/1/1 http://www.topografix.com/GPX/1/1/gpx.xsd" 
    creator="Openrunner - https://www.openrunner.com" >	<trk>
						<name>CD de Vallée en Vallée-2 cols-15913883</name>
						<trkseg>
					<trkpt lat="48.012420" lon="6.587690">
						<ele>415</ele>
						<time>2023-07-03T06:43:54Z</time>
					</trkpt>
					<trkpt lat="48.012880" lon="6.588060">
						<ele>412</ele>
						<time>2023-07-03T06:44:03Z</time>
					</trkpt>
					<trkpt lat="48.013840" lon="6.589350">
						<ele>405</ele>
						<time>2023-07-03T06:44:26Z</time>
					</trkpt>
					<trkpt lat="48.013850" lon="6.589420">
						<ele>405</ele>
						<time>2023-07-03T06:44:27Z</time>
					</trkpt>
					<trkpt lat="48.013840" lon="6.589500">
						<ele>405</ele>
						<time>2023-07-03T06:44:28Z</time>
					</trkpt>
					<trkpt lat="48.013640" lon="6.590080">
						<ele>406</ele>
						<time>2023-07-03T06:44:36Z</time>
					</trkpt>
					<trkpt lat="48.013980" lon="6.590560">
						<ele>404</ele>
						<time>2023-07-03T06:44:44Z</time>
					</trkpt>
					<trkpt lat="48.014250" lon="6.590640">
						<ele>401</ele>
						<time>2023-07-03T06:44:49Z</time>
					</trkpt>
					<trkpt lat="48.014260" lon="6.592200">
						<ele>398</ele>
						<time>2023-07-03T06:45:08Z</time>
					</trkpt>
					<trkpt lat="48.014320" lon="6.593800">
						<ele>394</ele>
						<time>2023-07-03T06:45:27Z</time>
					</trkpt>
					<trkpt lat="48.014330" lon="6.594820">
						<ele>393</ele>
						<time>2023-07-03T06:45:39Z</time>
					</trkpt>
					<trkpt lat="48.014360" lon="6.595110">
						<ele>393</ele>
						<time>2023-07-03T06:45:42Z</time>
					</trkpt>
					<trkpt lat="48.014340" lon="6.595260">
						<ele>393</ele>
						<time>2023-07-03T06:45:44Z</time>
					</trkpt>
					<trkpt lat="48.014410" lon="6.595900">
						<ele>391</ele>
						<time>2023-07-03T06:45:52Z</time>
					</trkpt>
					<trkpt lat="48.014380" lon="6.595990">
						<ele>391</ele>
						<time>2023-07-03T06:45:53Z</time>
					</trkpt>
					<trkpt lat="48.014390" lon="6.596130">
						<ele>391</ele>
						<time>2023-07-03T06:45:55Z</time>
					</trkpt>
					<trkpt lat="48.014190" lon="6.596640">
						<ele>391</ele>
						<time>2023-07-03T06:46:02Z</time>
					</trkpt>
					<trkpt lat="48.013770" lon="6.597400">
						<ele>390</ele>
						<time>2023-07-03T06:46:14Z</time>
					</trkpt>
					<trkpt lat="48.012850" lon="6.598940">
						<ele>389</ele>
						<time>2023-07-03T06:46:38Z</time>
					</trkpt>
					<trkpt lat="48.012610" lon="6.599470">
						<ele>390</ele>
						<time>2023-07-03T06:46:46Z</time>
					</trkpt>
					<trkpt lat="48.012500" lon="6.599920">
						<ele>391</ele>
						<time>2023-07-03T06:46:51Z</time>
					</trkpt>
					<trkpt lat="48.012420" lon="6.600420">
						<ele>390</ele>
						<time>2023-07-03T06:46:58Z</time>
					</trkpt>
					<trkpt lat="48.012300" lon="6.600880">
						<ele>388</ele>
						<time>2023-07-03T06:47:03Z</time>
					</trkpt>
					<trkpt lat="48.012170" lon="6.601090">
						<ele>389</ele>
						<time>2023-07-03T06:47:07Z</time>
					</trkpt>
					<trkpt lat="48.012000" lon="6.601270">
						<ele>389</ele>
						<time>2023-07-03T06:47:11Z</time>
					</trkpt>
					<trkpt lat="48.011830" lon="6.601420">
						<ele>389</ele>
						<time>2023-07-03T06:47:14Z</time>
					</trkpt>
					<trkpt lat="48.011790" lon="6.601530">
						<ele>389</ele>
						<time>2023-07-03T06:47:16Z</time>
					</trkpt>
					<trkpt lat="48.011780" lon="6.601640">
						<ele>389</ele>
						<time>2023-07-03T06:47:17Z</time>
					</trkpt>
					<trkpt lat="48.011790" lon="6.601760">
						<ele>388</ele>
						<time>2023-07-03T06:47:18Z</time>
					</trkpt>
					<trkpt lat="48.011880" lon="6.602320">
						<ele>387</ele>
						<time>2023-07-03T06:47:25Z</time>
					</trkpt>
					<trkpt lat="48.011860" lon="6.602670">
						<ele>387</ele>
						<time>2023-07-03T06:47:29Z</time>
					</trkpt>
					<trkpt lat="48.011720" lon="6.603050">
						<ele>386</ele>
						<time>2023-07-03T06:47:34Z</time>
					</trkpt>
					<trkpt lat="48.011680" lon="6.603360">
						<ele>385</ele>
						<time>2023-07-03T06:47:38Z</time>
					</trkpt>
					<trkpt lat="48.011650" lon="6.604680">
						<ele>386</ele>
						<time>2023-07-03T06:47:54Z</time>
					</trkpt>
					<trkpt lat="48.011670" lon="6.604800">
						<ele>386</ele>
						<time>2023-07-03T06:47:55Z</time>
					</trkpt>
					<trkpt lat="48.011760" lon="6.605020">
						<ele>386</ele>
						<time>2023-07-03T06:47:59Z</time>
					</trkpt>
					<trkpt lat="48.012060" lon="6.605570">
						<ele>386</ele>
						<time>2023-07-03T06:48:07Z</time>
					</trkpt>
					<trkpt lat="48.012080" lon="6.605660">
						<ele>386</ele>
						<time>2023-07-03T06:48:08Z</time>
					</trkpt>
					<trkpt lat="48.012080" lon="6.605780">
						<ele>386</ele>
						<time>2023-07-03T06:48:10Z</time>
					</trkpt>
					<trkpt lat="48.011950" lon="6.606170">
						<ele>386</ele>
						<time>2023-07-03T06:48:15Z</time>
					</trkpt>
					<trkpt lat="48.011630" lon="6.607000">
						<ele>387</ele>
						<time>2023-07-03T06:48:26Z</time>
					</trkpt>
					<trkpt lat="48.011350" lon="6.607830">
						<ele>391</ele>
						<time>2023-07-03T06:48:37Z</time>
					</trkpt>
					<trkpt lat="48.011130" lon="6.608570">
						<ele>394</ele>
						<time>2023-07-03T06:48:47Z</time>
					</trkpt>
					<trkpt lat="48.010850" lon="6.609630">
						<ele>392</ele>
						<time>2023-07-03T06:49:00Z</time>
					</trkpt>
					<trkpt lat="48.010750" lon="6.610170">
						<ele>389</ele>
						<time>2023-07-03T06:49:07Z</time>
					</trkpt>
					<trkpt lat="48.010630" lon="6.610620">
						<ele>389</ele>
						<time>2023-07-03T06:49:13Z</time>
					</trkpt>
					<trkpt lat="48.010520" lon="6.610800">
						<ele>389</ele>
						<time>2023-07-03T06:49:16Z</time>
					</trkpt>
					<trkpt lat="48.010300" lon="6.611010">
						<ele>389</ele>
						<time>2023-07-03T06:49:20Z</time>
					</trkpt>
					<trkpt lat="48.009980" lon="6.611250">
						<ele>390</ele>
						<time>2023-07-03T06:49:27Z</time>
					</trkpt>
					<trkpt lat="48.009880" lon="6.611370">
						<ele>390</ele>
						<time>2023-07-03T06:49:29Z</time>
					</trkpt>
					<trkpt lat="48.009700" lon="6.611690">
						<ele>390</ele>
						<time>2023-07-03T06:49:34Z</time>
					</trkpt>
					<trkpt lat="48.009150" lon="6.613110">
						<ele>390</ele>
						<time>2023-07-03T06:49:54Z</time>
					</trkpt>
					<trkpt lat="48.009100" lon="6.613340">
						<ele>389</ele>
						<time>2023-07-03T06:49:56Z</time>
					</trkpt>
					<trkpt lat="48.009040" lon="6.614000">
						<ele>388</ele>
						<time>2023-07-03T06:50:04Z</time>
					</trkpt>
					<trkpt lat="48.009030" lon="6.614060">
						<ele>388</ele>
						<time>2023-07-03T06:50:05Z</time>
					</trkpt>
					<trkpt lat="48.009000" lon="6.614530">
						<ele>387</ele>
						<time>2023-07-03T06:50:11Z</time>
					</trkpt>
					<trkpt lat="48.008970" lon="6.614870">
						<ele>386</ele>
						<time>2023-07-03T06:50:15Z</time>
					</trkpt>
					<trkpt lat="48.008910" lon="6.616340">
						<ele>389</ele>
						<time>2023-07-03T06:50:32Z</time>
					</trkpt>
					<trkpt lat="48.008880" lon="6.616540">
						<ele>389</ele>
						<time>2023-07-03T06:50:35Z</time>
					</trkpt>
					<trkpt lat="48.008790" lon="6.616880">
						<ele>389</ele>
						<time>2023-07-03T06:50:39Z</time>
					</trkpt>
					<trkpt lat="48.008600" lon="6.617420">
						<ele>389</ele>
						<time>2023-07-03T06:50:46Z</time>
					</trkpt>
					<trkpt lat="48.008260" lon="6.618260">
						<ele>390</ele>
						<time>2023-07-03T06:50:58Z</time>
					</trkpt>
					<trkpt lat="48.008240" lon="6.618430">
						<ele>390</ele>
						<time>2023-07-03T06:51:00Z</time>
					</trkpt>
					<trkpt lat="48.008260" lon="6.619030">
						<ele>390</ele>
						<time>2023-07-03T06:51:07Z</time>
					</trkpt>
					<trkpt lat="48.008210" lon="6.619610">
						<ele>390</ele>
						<time>2023-07-03T06:51:14Z</time>
					</trkpt>
					<trkpt lat="48.008160" lon="6.619870">
						<ele>390</ele>
						<time>2023-07-03T06:51:17Z</time>
					</trkpt>
					<trkpt lat="48.007610" lon="6.621180">
						<ele>390</ele>
						<time>2023-07-03T06:51:36Z</time>
					</trkpt>
					<trkpt lat="48.006760" lon="6.623100">
						<ele>386</ele>
						<time>2023-07-03T06:52:03Z</time>
					</trkpt>
					<trkpt lat="48.006520" lon="6.623690">
						<ele>387</ele>
						<time>2023-07-03T06:52:11Z</time>
					</trkpt>
					<trkpt lat="48.006370" lon="6.624400">
						<ele>387</ele>
						<time>2023-07-03T06:52:20Z</time>
					</trkpt>
					<trkpt lat="48.006080" lon="6.625740">
						<ele>389</ele>
						<time>2023-07-03T06:52:37Z</time>
					</trkpt>
					<trkpt lat="48.005720" lon="6.627510">
						<ele>388</ele>
						<time>2023-07-03T06:52:59Z</time>
					</trkpt>
					<trkpt lat="48.005710" lon="6.627730">
						<ele>388</ele>
						<time>2023-07-03T06:53:02Z</time>
					</trkpt>
					<trkpt lat="48.005760" lon="6.628760">
						<ele>388</ele>
						<time>2023-07-03T06:53:14Z</time>
					</trkpt>
					<trkpt lat="48.005730" lon="6.628980">
						<ele>388</ele>
						<time>2023-07-03T06:53:17Z</time>
					</trkpt>
					<trkpt lat="48.005670" lon="6.629330">
						<ele>388</ele>
						<time>2023-07-03T06:53:21Z</time>
					</trkpt>
					<trkpt lat="48.005660" lon="6.629410">
						<ele>388</ele>
						<time>2023-07-03T06:53:22Z</time>
					</trkpt>
					<trkpt lat="48.005410" lon="6.630040">
						<ele>389</ele>
						<time>2023-07-03T06:53:31Z</time>
					</trkpt>
					<trkpt lat="48.005240" lon="6.631000">
						<ele>389</ele>
						<time>2023-07-03T06:53:43Z</time>
					</trkpt>
					<trkpt lat="48.005090" lon="6.631380">
						<ele>388</ele>
						<time>2023-07-03T06:53:48Z</time>
					</trkpt>
					<trkpt lat="48.005020" lon="6.631520">
						<ele>388</ele>
						<time>2023-07-03T06:53:50Z</time>
					</trkpt>
					<trkpt lat="48.004860" lon="6.631830">
						<ele>388</ele>
						<time>2023-07-03T06:53:55Z</time>
					</trkpt>
					<trkpt lat="48.004770" lon="6.632040">
						<ele>388</ele>
						<time>2023-07-03T06:53:57Z</time>
					</trkpt>
					<trkpt lat="48.004210" lon="6.633210">
						<ele>388</ele>
						<time>2023-07-03T06:54:15Z</time>
					</trkpt>
					<trkpt lat="48.003960" lon="6.633770">
						<ele>387</ele>
						<time>2023-07-03T06:54:23Z</time>
					</trkpt>
					<trkpt lat="48.003100" lon="6.635610">
						<ele>387</ele>
						<time>2023-07-03T06:54:49Z</time>
					</trkpt>
					<trkpt lat="48.003050" lon="6.635710">
						<ele>387</ele>
						<time>2023-07-03T06:54:51Z</time>
					</trkpt>
					<trkpt lat="48.002590" lon="6.636690">
						<ele>390</ele>
						<time>2023-07-03T06:55:05Z</time>
					</trkpt>
					<trkpt lat="47.998850" lon="6.635030">
						<ele>389</ele>
						<time>2023-07-03T06:56:14Z</time>
					</trkpt>
					<trkpt lat="47.998750" lon="6.634970">
						<ele>389</ele>
						<time>2023-07-03T06:56:16Z</time>
					</trkpt>
					<trkpt lat="47.998640" lon="6.634840">
						<ele>389</ele>
						<time>2023-07-03T06:56:19Z</time>
					</trkpt>
					<trkpt lat="47.998280" lon="6.634810">
						<ele>389</ele>
						<time>2023-07-03T06:56:25Z</time>
					</trkpt>
					<trkpt lat="47.998020" lon="6.634760">
						<ele>390</ele>
						<time>2023-07-03T06:56:30Z</time>
					</trkpt>
					<trkpt lat="47.997690" lon="6.634660">
						<ele>390</ele>
						<time>2023-07-03T06:56:36Z</time>
					</trkpt>
					<trkpt lat="47.995890" lon="6.633880">
						<ele>392</ele>
						<time>2023-07-03T06:57:09Z</time>
					</trkpt>
					<trkpt lat="47.995790" lon="6.633670">
						<ele>392</ele>
						<time>2023-07-03T06:57:12Z</time>
					</trkpt>
					<trkpt lat="47.995690" lon="6.633560">
						<ele>392</ele>
						<time>2023-07-03T06:57:15Z</time>
					</trkpt>
					<trkpt lat="47.995220" lon="6.633330">
						<ele>393</ele>
						<time>2023-07-03T06:57:23Z</time>
					</trkpt>
					<trkpt lat="47.994150" lon="6.632690">
						<ele>392</ele>
						<time>2023-07-03T06:57:44Z</time>
					</trkpt>
					<trkpt lat="47.993860" lon="6.632550">
						<ele>392</ele>
						<time>2023-07-03T06:57:49Z</time>
					</trkpt>
					<trkpt lat="47.992450" lon="6.631970">
						<ele>393</ele>
						<time>2023-07-03T06:58:15Z</time>
					</trkpt>
					<trkpt lat="47.992240" lon="6.631950">
						<ele>394</ele>
						<time>2023-07-03T06:58:19Z</time>
					</trkpt>
					<trkpt lat="47.991730" lon="6.631990">
						<ele>394</ele>
						<time>2023-07-03T06:58:28Z</time>
					</trkpt>
					<trkpt lat="47.990870" lon="6.631960">
						<ele>396</ele>
						<time>2023-07-03T06:58:43Z</time>
					</trkpt>
					<trkpt lat="47.990720" lon="6.632020">
						<ele>396</ele>
						<time>2023-07-03T06:58:46Z</time>
					</trkpt>
					<trkpt lat="47.990670" lon="6.632080">
						<ele>396</ele>
						<time>2023-07-03T06:58:47Z</time>
					</trkpt>
					<trkpt lat="47.990300" lon="6.632010">
						<ele>397</ele>
						<time>2023-07-03T06:58:54Z</time>
					</trkpt>
					<trkpt lat="47.990030" lon="6.631860">
						<ele>398</ele>
						<time>2023-07-03T06:58:59Z</time>
					</trkpt>
					<trkpt lat="47.989850" lon="6.631720">
						<ele>398</ele>
						<time>2023-07-03T06:59:03Z</time>
					</trkpt>
					<trkpt lat="47.989640" lon="6.631520">
						<ele>397</ele>
						<time>2023-07-03T06:59:07Z</time>
					</trkpt>
					<trkpt lat="47.989140" lon="6.631150">
						<ele>397</ele>
						<time>2023-07-03T06:59:17Z</time>
					</trkpt>
					<trkpt lat="47.988950" lon="6.630970">
						<ele>399</ele>
						<time>2023-07-03T06:59:21Z</time>
					</trkpt>
					<trkpt lat="47.988800" lon="6.630770">
						<ele>401</ele>
						<time>2023-07-03T06:59:25Z</time>
					</trkpt>
					<trkpt lat="47.988640" lon="6.630460">
						<ele>402</ele>
						<time>2023-07-03T06:59:29Z</time>
					</trkpt>
					<trkpt lat="47.988290" lon="6.629270">
						<ele>400</ele>
						<time>2023-07-03T06:59:45Z</time>
					</trkpt>
					<trkpt lat="47.988130" lon="6.628760">
						<ele>399</ele>
						<time>2023-07-03T06:59:52Z</time>
					</trkpt>
					<trkpt lat="47.987860" lon="6.628080">
						<ele>397</ele>
						<time>2023-07-03T07:00:01Z</time>
					</trkpt>
					<trkpt lat="47.987740" lon="6.627830">
						<ele>396</ele>
						<time>2023-07-03T07:00:05Z</time>
					</trkpt>
					<trkpt lat="47.987610" lon="6.627630">
						<ele>395</ele>
						<time>2023-07-03T07:00:08Z</time>
					</trkpt>
					<trkpt lat="47.987460" lon="6.627440">
						<ele>394</ele>
						<time>2023-07-03T07:00:11Z</time>
					</trkpt>
					<trkpt lat="47.987340" lon="6.627350">
						<ele>394</ele>
						<time>2023-07-03T07:00:14Z</time>
					</trkpt>
					<trkpt lat="47.986870" lon="6.627120">
						<ele>394</ele>
						<time>2023-07-03T07:00:23Z</time>
					</trkpt>
					<trkpt lat="47.986680" lon="6.627000">
						<ele>393</ele>
						<time>2023-07-03T07:00:26Z</time>
					</trkpt>
					<trkpt lat="47.985940" lon="6.626380">
						<ele>395</ele>
						<time>2023-07-03T07:00:41Z</time>
					</trkpt>
					<trkpt lat="47.985200" lon="6.625650">
						<ele>396</ele>
						<time>2023-07-03T07:00:57Z</time>
					</trkpt>
					<trkpt lat="47.985110" lon="6.625530">
						<ele>396</ele>
						<time>2023-07-03T07:00:59Z</time>
					</trkpt>
					<trkpt lat="47.985060" lon="6.625390">
						<ele>396</ele>
						<time>2023-07-03T07:01:01Z</time>
					</trkpt>
					<trkpt lat="47.985050" lon="6.624760">
						<ele>395</ele>
						<time>2023-07-03T07:01:09Z</time>
					</trkpt>
					<trkpt lat="47.985040" lon="6.624710">
						<ele>395</ele>
						<time>2023-07-03T07:01:09Z</time>
					</trkpt>
					<trkpt lat="47.985130" lon="6.624520">
						<ele>395</ele>
						<time>2023-07-03T07:01:12Z</time>
					</trkpt>
					<trkpt lat="47.985460" lon="6.624010">
						<ele>394</ele>
						<time>2023-07-03T07:01:21Z</time>
					</trkpt>
					<trkpt lat="47.986290" lon="6.622720">
						<ele>394</ele>
						<time>2023-07-03T07:01:42Z</time>
					</trkpt>
					<trkpt lat="47.986330" lon="6.622600">
						<ele>394</ele>
						<time>2023-07-03T07:01:43Z</time>
					</trkpt>
					<trkpt lat="47.986380" lon="6.622430">
						<ele>394</ele>
						<time>2023-07-03T07:01:46Z</time>
					</trkpt>
					<trkpt lat="47.986460" lon="6.622020">
						<ele>395</ele>
						<time>2023-07-03T07:01:51Z</time>
					</trkpt>
					<trkpt lat="47.986480" lon="6.621940">
						<ele>396</ele>
						<time>2023-07-03T07:01:52Z</time>
					</trkpt>
					<trkpt lat="47.986440" lon="6.621920">
						<ele>396</ele>
						<time>2023-07-03T07:01:53Z</time>
					</trkpt>
					<trkpt lat="47.986230" lon="6.621890">
						<ele>395</ele>
						<time>2023-07-03T07:01:56Z</time>
					</trkpt>
					<trkpt lat="47.984820" lon="6.621950">
						<ele>396</ele>
						<time>2023-07-03T07:02:21Z</time>
					</trkpt>
					<trkpt lat="47.983860" lon="6.622070">
						<ele>397</ele>
						<time>2023-07-03T07:02:39Z</time>
					</trkpt>
					<trkpt lat="47.982760" lon="6.622240">
						<ele>398</ele>
						<time>2023-07-03T07:02:58Z</time>
					</trkpt>
					<trkpt lat="47.981750" lon="6.622530">
						<ele>398</ele>
						<time>2023-07-03T07:03:17Z</time>
					</trkpt>
					<trkpt lat="47.981150" lon="6.622760">
						<ele>399</ele>
						<time>2023-07-03T07:03:28Z</time>
					</trkpt>
					<trkpt lat="47.980390" lon="6.623150">
						<ele>399</ele>
						<time>2023-07-03T07:03:42Z</time>
					</trkpt>
					<trkpt lat="47.980290" lon="6.623230">
						<ele>398</ele>
						<time>2023-07-03T07:03:44Z</time>
					</trkpt>
					<trkpt lat="47.980230" lon="6.623360">
						<ele>397</ele>
						<time>2023-07-03T07:03:46Z</time>
					</trkpt>
					<trkpt lat="47.980140" lon="6.623420">
						<ele>397</ele>
						<time>2023-07-03T07:03:47Z</time>
					</trkpt>
					<trkpt lat="47.979900" lon="6.623470">
						<ele>398</ele>
						<time>2023-07-03T07:03:52Z</time>
					</trkpt>
					<trkpt lat="47.979200" lon="6.623800">
						<ele>399</ele>
						<time>2023-07-03T07:04:05Z</time>
					</trkpt>
					<trkpt lat="47.977990" lon="6.624410">
						<ele>400</ele>
						<time>2023-07-03T07:04:28Z</time>
					</trkpt>
					<trkpt lat="47.977370" lon="6.624790">
						<ele>400</ele>
						<time>2023-07-03T07:04:39Z</time>
					</trkpt>
					<trkpt lat="47.976580" lon="6.625430">
						<ele>401</ele>
						<time>2023-07-03T07:04:55Z</time>
					</trkpt>
					<trkpt lat="47.976490" lon="6.625540">
						<ele>401</ele>
						<time>2023-07-03T07:04:58Z</time>
					</trkpt>
					<trkpt lat="47.976450" lon="6.625650">
						<ele>400</ele>
						<time>2023-07-03T07:04:59Z</time>
					</trkpt>
					<trkpt lat="47.976370" lon="6.625950">
						<ele>398</ele>
						<time>2023-07-03T07:05:03Z</time>
					</trkpt>
					<trkpt lat="47.976130" lon="6.626340">
						<ele>398</ele>
						<time>2023-07-03T07:05:09Z</time>
					</trkpt>
					<trkpt lat="47.975900" lon="6.626680">
						<ele>398</ele>
						<time>2023-07-03T07:05:15Z</time>
					</trkpt>
					<trkpt lat="47.975820" lon="6.626760">
						<ele>398</ele>
						<time>2023-07-03T07:05:17Z</time>
					</trkpt>
					<trkpt lat="47.975740" lon="6.626810">
						<ele>399</ele>
						<time>2023-07-03T07:05:18Z</time>
					</trkpt>
					<trkpt lat="47.975430" lon="6.626800">
						<ele>401</ele>
						<time>2023-07-03T07:05:24Z</time>
					</trkpt>
					<trkpt lat="47.975350" lon="6.626880">
						<ele>402</ele>
						<time>2023-07-03T07:05:25Z</time>
					</trkpt>
					<trkpt lat="47.975220" lon="6.627070">
						<ele>402</ele>
						<time>2023-07-03T07:05:29Z</time>
					</trkpt>
					<trkpt lat="47.975160" lon="6.627120">
						<ele>403</ele>
						<time>2023-07-03T07:05:30Z</time>
					</trkpt>
					<trkpt lat="47.975150" lon="6.627170">
						<ele>402</ele>
						<time>2023-07-03T07:05:31Z</time>
					</trkpt>
					<trkpt lat="47.974960" lon="6.627370">
						<ele>403</ele>
						<time>2023-07-03T07:05:35Z</time>
					</trkpt>
					<trkpt lat="47.974090" lon="6.628790">
						<ele>402</ele>
						<time>2023-07-03T07:05:58Z</time>
					</trkpt>
					<trkpt lat="47.973920" lon="6.628910">
						<ele>403</ele>
						<time>2023-07-03T07:06:01Z</time>
					</trkpt>
					<trkpt lat="47.973580" lon="6.629040">
						<ele>403</ele>
						<time>2023-07-03T07:06:07Z</time>
					</trkpt>
					<trkpt lat="47.973330" lon="6.629070">
						<ele>404</ele>
						<time>2023-07-03T07:06:12Z</time>
					</trkpt>
					<trkpt lat="47.972650" lon="6.629040">
						<ele>403</ele>
						<time>2023-07-03T07:06:24Z</time>
					</trkpt>
					<trkpt lat="47.972280" lon="6.628960">
						<ele>404</ele>
						<time>2023-07-03T07:06:30Z</time>
					</trkpt>
					<trkpt lat="47.972120" lon="6.628970">
						<ele>405</ele>
						<time>2023-07-03T07:06:33Z</time>
					</trkpt>
					<trkpt lat="47.971400" lon="6.629310">
						<ele>405</ele>
						<time>2023-07-03T07:06:47Z</time>
					</trkpt>
					<trkpt lat="47.970630" lon="6.629600">
						<ele>405</ele>
						<time>2023-07-03T07:07:01Z</time>
					</trkpt>
					<trkpt lat="47.970070" lon="6.629760">
						<ele>405</ele>
						<time>2023-07-03T07:07:11Z</time>
					</trkpt>
					<trkpt lat="47.969500" lon="6.629850">
						<ele>403</ele>
						<time>2023-07-03T07:07:21Z</time>
					</trkpt>
					<trkpt lat="47.968960" lon="6.629860">
						<ele>403</ele>
						<time>2023-07-03T07:07:31Z</time>
					</trkpt>
					<trkpt lat="47.968760" lon="6.629890">
						<ele>403</ele>
						<time>2023-07-03T07:07:34Z</time>
					</trkpt>
					<trkpt lat="47.968480" lon="6.630000">
						<ele>402</ele>
						<time>2023-07-03T07:07:39Z</time>
					</trkpt>
					<trkpt lat="47.968280" lon="6.630040">
						<ele>402</ele>
						<time>2023-07-03T07:07:43Z</time>
					</trkpt>
					<trkpt lat="47.967910" lon="6.630070">
						<ele>402</ele>
						<time>2023-07-03T07:07:50Z</time>
					</trkpt>
					<trkpt lat="47.967040" lon="6.630030">
						<ele>401</ele>
						<time>2023-07-03T07:08:05Z</time>
					</trkpt>
					<trkpt lat="47.966640" lon="6.630040">
						<ele>400</ele>
						<time>2023-07-03T07:08:12Z</time>
					</trkpt>
					<trkpt lat="47.966560" lon="6.630060">
						<ele>400</ele>
						<time>2023-07-03T07:08:14Z</time>
					</trkpt>
					<trkpt lat="47.966150" lon="6.630350">
						<ele>401</ele>
						<time>2023-07-03T07:08:22Z</time>
					</trkpt>
					<trkpt lat="47.965960" lon="6.630460">
						<ele>402</ele>
						<time>2023-07-03T07:08:25Z</time>
					</trkpt>
					<trkpt lat="47.965810" lon="6.630500">
						<ele>402</ele>
						<time>2023-07-03T07:08:28Z</time>
					</trkpt>
					<trkpt lat="47.965620" lon="6.630460">
						<ele>403</ele>
						<time>2023-07-03T07:08:32Z</time>
					</trkpt>
					<trkpt lat="47.964960" lon="6.630010">
						<ele>405</ele>
						<time>2023-07-03T07:08:44Z</time>
					</trkpt>
					<trkpt lat="47.964540" lon="6.629870">
						<ele>404</ele>
						<time>2023-07-03T07:08:52Z</time>
					</trkpt>
					<trkpt lat="47.964380" lon="6.629890">
						<ele>404</ele>
						<time>2023-07-03T07:08:55Z</time>
					</trkpt>
					<trkpt lat="47.963990" lon="6.630100">
						<ele>404</ele>
						<time>2023-07-03T07:09:02Z</time>
					</trkpt>
					<trkpt lat="47.963810" lon="6.630140">
						<ele>404</ele>
						<time>2023-07-03T07:09:06Z</time>
					</trkpt>
					<trkpt lat="47.963670" lon="6.630130">
						<ele>404</ele>
						<time>2023-07-03T07:09:08Z</time>
					</trkpt>
					<trkpt lat="47.963490" lon="6.630060">
						<ele>404</ele>
						<time>2023-07-03T07:09:11Z</time>
					</trkpt>
					<trkpt lat="47.963100" lon="6.629740">
						<ele>405</ele>
						<time>2023-07-03T07:09:19Z</time>
					</trkpt>
					<trkpt lat="47.962890" lon="6.629610">
						<ele>405</ele>
						<time>2023-07-03T07:09:23Z</time>
					</trkpt>
					<trkpt lat="47.962430" lon="6.629500">
						<ele>406</ele>
						<time>2023-07-03T07:09:32Z</time>
					</trkpt>
					<trkpt lat="47.960670" lon="6.629180">
						<ele>406</ele>
						<time>2023-07-03T07:10:03Z</time>
					</trkpt>
					<trkpt lat="47.959180" lon="6.628870">
						<ele>406</ele>
						<time>2023-07-03T07:10:30Z</time>
					</trkpt>
					<trkpt lat="47.958680" lon="6.628740">
						<ele>406</ele>
						<time>2023-07-03T07:10:39Z</time>
					</trkpt>
					<trkpt lat="47.957610" lon="6.628350">
						<ele>405</ele>
						<time>2023-07-03T07:10:59Z</time>
					</trkpt>
					<trkpt lat="47.956890" lon="6.628110">
						<ele>406</ele>
						<time>2023-07-03T07:11:12Z</time>
					</trkpt>
					<trkpt lat="47.956240" lon="6.627850">
						<ele>407</ele>
						<time>2023-07-03T07:11:24Z</time>
					</trkpt>
					<trkpt lat="47.955540" lon="6.627620">
						<ele>407</ele>
						<time>2023-07-03T07:11:36Z</time>
					</trkpt>
					<trkpt lat="47.955140" lon="6.627430">
						<ele>408</ele>
						<time>2023-07-03T07:11:44Z</time>
					</trkpt>
					<trkpt lat="47.954130" lon="6.627080">
						<ele>408</ele>
						<time>2023-07-03T07:12:02Z</time>
					</trkpt>
					<trkpt lat="47.953410" lon="6.626890">
						<ele>408</ele>
						<time>2023-07-03T07:12:15Z</time>
					</trkpt>
					<trkpt lat="47.953260" lon="6.626880">
						<ele>408</ele>
						<time>2023-07-03T07:12:18Z</time>
					</trkpt>
					<trkpt lat="47.953060" lon="6.626930">
						<ele>408</ele>
						<time>2023-07-03T07:12:22Z</time>
					</trkpt>
					<trkpt lat="47.952830" lon="6.627060">
						<ele>408</ele>
						<time>2023-07-03T07:12:26Z</time>
					</trkpt>
					<trkpt lat="47.952690" lon="6.627190">
						<ele>407</ele>
						<time>2023-07-03T07:12:29Z</time>
					</trkpt>
					<trkpt lat="47.952620" lon="6.626960">
						<ele>408</ele>
						<time>2023-07-03T07:12:32Z</time>
					</trkpt>
					<trkpt lat="47.952440" lon="6.627020">
						<ele>408</ele>
						<time>2023-07-03T07:12:35Z</time>
					</trkpt>
					<trkpt lat="47.952150" lon="6.627220">
						<ele>407</ele>
						<time>2023-07-03T07:12:41Z</time>
					</trkpt>
					<trkpt lat="47.951890" lon="6.627470">
						<ele>407</ele>
						<time>2023-07-03T07:12:46Z</time>
					</trkpt>
					<trkpt lat="47.950630" lon="6.628950">
						<ele>407</ele>
						<time>2023-07-03T07:13:15Z</time>
					</trkpt>
					<trkpt lat="47.950200" lon="6.627950">
						<ele>408</ele>
						<time>2023-07-03T07:13:29Z</time>
					</trkpt>
					<trkpt lat="47.950280" lon="6.626990">
						<ele>408</ele>
						<time>2023-07-03T07:13:41Z</time>
					</trkpt>
					<trkpt lat="47.950250" lon="6.626960">
						<ele>408</ele>
						<time>2023-07-03T07:13:41Z</time>
					</trkpt>
					<trkpt lat="47.949920" lon="6.626880">
						<ele>408</ele>
						<time>2023-07-03T07:13:47Z</time>
					</trkpt>
					<trkpt lat="47.949770" lon="6.626900">
						<ele>409</ele>
						<time>2023-07-03T07:13:50Z</time>
					</trkpt>
					<trkpt lat="47.949620" lon="6.626970">
						<ele>409</ele>
						<time>2023-07-03T07:13:53Z</time>
					</trkpt>
					<trkpt lat="47.949460" lon="6.627090">
						<ele>409</ele>
						<time>2023-07-03T07:13:56Z</time>
					</trkpt>
					<trkpt lat="47.949040" lon="6.627530">
						<ele>410</ele>
						<time>2023-07-03T07:14:05Z</time>
					</trkpt>
					<trkpt lat="47.948830" lon="6.627780">
						<ele>410</ele>
						<time>2023-07-03T07:14:10Z</time>
					</trkpt>
					<trkpt lat="47.948480" lon="6.628040">
						<ele>410</ele>
						<time>2023-07-03T07:14:17Z</time>
					</trkpt>
					<trkpt lat="47.948170" lon="6.628310">
						<ele>411</ele>
						<time>2023-07-03T07:14:23Z</time>
					</trkpt>
					<trkpt lat="47.947140" lon="6.629380">
						<ele>410</ele>
						<time>2023-07-03T07:14:45Z</time>
					</trkpt>
					<trkpt lat="47.947030" lon="6.629430">
						<ele>411</ele>
						<time>2023-07-03T07:14:48Z</time>
					</trkpt>
					<trkpt lat="47.946920" lon="6.629440">
						<ele>411</ele>
						<time>2023-07-03T07:14:49Z</time>
					</trkpt>
					<trkpt lat="47.946590" lon="6.629370">
						<ele>412</ele>
						<time>2023-07-03T07:14:55Z</time>
					</trkpt>
					<trkpt lat="47.946540" lon="6.629400">
						<ele>412</ele>
						<time>2023-07-03T07:14:56Z</time>
					</trkpt>
					<trkpt lat="47.946480" lon="6.629450">
						<ele>412</ele>
						<time>2023-07-03T07:14:58Z</time>
					</trkpt>
					<trkpt lat="47.946460" lon="6.629520">
						<ele>412</ele>
						<time>2023-07-03T07:14:59Z</time>
					</trkpt>
					<trkpt lat="47.946440" lon="6.629620">
						<ele>412</ele>
						<time>2023-07-03T07:15:00Z</time>
					</trkpt>
					<trkpt lat="47.946390" lon="6.630360">
						<ele>413</ele>
						<time>2023-07-03T07:15:09Z</time>
					</trkpt>
					<trkpt lat="47.946310" lon="6.632250">
						<ele>411</ele>
						<time>2023-07-03T07:15:31Z</time>
					</trkpt>
					<trkpt lat="47.946220" lon="6.632290">
						<ele>411</ele>
						<time>2023-07-03T07:15:33Z</time>
					</trkpt>
					<trkpt lat="47.945990" lon="6.632520">
						<ele>412</ele>
						<time>2023-07-03T07:15:38Z</time>
					</trkpt>
					<trkpt lat="47.945650" lon="6.632950">
						<ele>411</ele>
						<time>2023-07-03T07:15:46Z</time>
					</trkpt>
					<trkpt lat="47.945510" lon="6.633100">
						<ele>411</ele>
						<time>2023-07-03T07:15:49Z</time>
					</trkpt>
					<trkpt lat="47.945430" lon="6.633150">
						<ele>411</ele>
						<time>2023-07-03T07:15:50Z</time>
					</trkpt>
					<trkpt lat="47.945260" lon="6.633170">
						<ele>411</ele>
						<time>2023-07-03T07:15:53Z</time>
					</trkpt>
					<trkpt lat="47.945000" lon="6.633050">
						<ele>411</ele>
						<time>2023-07-03T07:15:58Z</time>
					</trkpt>
					<trkpt lat="47.944730" lon="6.632980">
						<ele>412</ele>
						<time>2023-07-03T07:16:03Z</time>
					</trkpt>
					<trkpt lat="47.944540" lon="6.632990">
						<ele>412</ele>
						<time>2023-07-03T07:16:06Z</time>
					</trkpt>
					<trkpt lat="47.944190" lon="6.633130">
						<ele>412</ele>
						<time>2023-07-03T07:16:13Z</time>
					</trkpt>
					<trkpt lat="47.943890" lon="6.633290">
						<ele>412</ele>
						<time>2023-07-03T07:16:19Z</time>
					</trkpt>
					<trkpt lat="47.943270" lon="6.633780">
						<ele>413</ele>
						<time>2023-07-03T07:16:31Z</time>
					</trkpt>
					<trkpt lat="47.943160" lon="6.633860">
						<ele>413</ele>
						<time>2023-07-03T07:16:33Z</time>
					</trkpt>
					<trkpt lat="47.943040" lon="6.633910">
						<ele>414</ele>
						<time>2023-07-03T07:16:35Z</time>
					</trkpt>
					<trkpt lat="47.942830" lon="6.633900">
						<ele>415</ele>
						<time>2023-07-03T07:16:39Z</time>
					</trkpt>
					<trkpt lat="47.942590" lon="6.633820">
						<ele>416</ele>
						<time>2023-07-03T07:16:44Z</time>
					</trkpt>
					<trkpt lat="47.942210" lon="6.633640">
						<ele>417</ele>
						<time>2023-07-03T07:16:51Z</time>
					</trkpt>
					<trkpt lat="47.941770" lon="6.633570">
						<ele>417</ele>
						<time>2023-07-03T07:16:59Z</time>
					</trkpt>
					<trkpt lat="47.941230" lon="6.633290">
						<ele>421</ele>
						<time>2023-07-03T07:17:09Z</time>
					</trkpt>
					<trkpt lat="47.940980" lon="6.633280">
						<ele>422</ele>
						<time>2023-07-03T07:17:13Z</time>
					</trkpt>
					<trkpt lat="47.940860" lon="6.633320">
						<ele>423</ele>
						<time>2023-07-03T07:17:15Z</time>
					</trkpt>
					<trkpt lat="47.940610" lon="6.633500">
						<ele>427</ele>
						<time>2023-07-03T07:17:20Z</time>
					</trkpt>
					<trkpt lat="47.940430" lon="6.633710">
						<ele>429</ele>
						<time>2023-07-03T07:17:24Z</time>
					</trkpt>
					<trkpt lat="47.940190" lon="6.634110">
						<ele>430</ele>
						<time>2023-07-03T07:17:31Z</time>
					</trkpt>
					<trkpt lat="47.940160" lon="6.634230">
						<ele>429</ele>
						<time>2023-07-03T07:17:32Z</time>
					</trkpt>
					<trkpt lat="47.939980" lon="6.635580">
						<ele>420</ele>
						<time>2023-07-03T07:17:49Z</time>
					</trkpt>
					<trkpt lat="47.939850" lon="6.635990">
						<ele>420</ele>
						<time>2023-07-03T07:17:54Z</time>
					</trkpt>
					<trkpt lat="47.939360" lon="6.637130">
						<ele>419</ele>
						<time>2023-07-03T07:18:10Z</time>
					</trkpt>
					<trkpt lat="47.939240" lon="6.637550">
						<ele>420</ele>
						<time>2023-07-03T07:18:16Z</time>
					</trkpt>
					<trkpt lat="47.939050" lon="6.637920">
						<ele>421</ele>
						<time>2023-07-03T07:18:21Z</time>
					</trkpt>
					<trkpt lat="47.938760" lon="6.638580">
						<ele>419</ele>
						<time>2023-07-03T07:18:31Z</time>
					</trkpt>
					<trkpt lat="47.938590" lon="6.638950">
						<ele>418</ele>
						<time>2023-07-03T07:18:36Z</time>
					</trkpt>
					<trkpt lat="47.938190" lon="6.639780">
						<ele>419</ele>
						<time>2023-07-03T07:18:48Z</time>
					</trkpt>
					<trkpt lat="47.937930" lon="6.640230">
						<ele>418</ele>
						<time>2023-07-03T07:18:55Z</time>
					</trkpt>
					<trkpt lat="47.937640" lon="6.640320">
						<ele>419</ele>
						<time>2023-07-03T07:19:01Z</time>
					</trkpt>
					<trkpt lat="47.937500" lon="6.640410">
						<ele>419</ele>
						<time>2023-07-03T07:19:03Z</time>
					</trkpt>
					<trkpt lat="47.937220" lon="6.640760">
						<ele>419</ele>
						<time>2023-07-03T07:19:10Z</time>
					</trkpt>
					<trkpt lat="47.937100" lon="6.640960">
						<ele>419</ele>
						<time>2023-07-03T07:19:13Z</time>
					</trkpt>
					<trkpt lat="47.936990" lon="6.641410">
						<ele>420</ele>
						<time>2023-07-03T07:19:19Z</time>
					</trkpt>
					<trkpt lat="47.936790" lon="6.641620">
						<ele>420</ele>
						<time>2023-07-03T07:19:23Z</time>
					</trkpt>
					<trkpt lat="47.936620" lon="6.641850">
						<ele>421</ele>
						<time>2023-07-03T07:19:27Z</time>
					</trkpt>
					<trkpt lat="47.936080" lon="6.642720">
						<ele>427</ele>
						<time>2023-07-03T07:19:41Z</time>
					</trkpt>
					<trkpt lat="47.935840" lon="6.643040">
						<ele>429</ele>
						<time>2023-07-03T07:19:47Z</time>
					</trkpt>
					<trkpt lat="47.935650" lon="6.643250">
						<ele>432</ele>
						<time>2023-07-03T07:19:51Z</time>
					</trkpt>
					<trkpt lat="47.935560" lon="6.643390">
						<ele>434</ele>
						<time>2023-07-03T07:19:53Z</time>
					</trkpt>
					<trkpt lat="47.935470" lon="6.643580">
						<ele>435</ele>
						<time>2023-07-03T07:19:56Z</time>
					</trkpt>
					<trkpt lat="47.935310" lon="6.644120">
						<ele>436</ele>
						<time>2023-07-03T07:20:03Z</time>
					</trkpt>
					<trkpt lat="47.935240" lon="6.644290">
						<ele>436</ele>
						<time>2023-07-03T07:20:06Z</time>
					</trkpt>
					<trkpt lat="47.935130" lon="6.644460">
						<ele>435</ele>
						<time>2023-07-03T07:20:08Z</time>
					</trkpt>
					<trkpt lat="47.935010" lon="6.644590">
						<ele>435</ele>
						<time>2023-07-03T07:20:11Z</time>
					</trkpt>
					<trkpt lat="47.934840" lon="6.644730">
						<ele>433</ele>
						<time>2023-07-03T07:20:15Z</time>
					</trkpt>
					<trkpt lat="47.933560" lon="6.645290">
						<ele>427</ele>
						<time>2023-07-03T07:20:38Z</time>
					</trkpt>
					<trkpt lat="47.933260" lon="6.645500">
						<ele>424</ele>
						<time>2023-07-03T07:20:44Z</time>
					</trkpt>
					<trkpt lat="47.932940" lon="6.645800">
						<ele>420</ele>
						<time>2023-07-03T07:20:51Z</time>
					</trkpt>
					<trkpt lat="47.932010" lon="6.646770">
						<ele>429</ele>
						<time>2023-07-03T07:21:11Z</time>
					</trkpt>
					<trkpt lat="47.931710" lon="6.647320">
						<ele>433</ele>
						<time>2023-07-03T07:21:20Z</time>
					</trkpt>
					<trkpt lat="47.931540" lon="6.647580">
						<ele>435</ele>
						<time>2023-07-03T07:21:24Z</time>
					</trkpt>
					<trkpt lat="47.931400" lon="6.647720">
						<ele>436</ele>
						<time>2023-07-03T07:21:27Z</time>
					</trkpt>
					<trkpt lat="47.930990" lon="6.648070">
						<ele>439</ele>
						<time>2023-07-03T07:21:35Z</time>
					</trkpt>
					<trkpt lat="47.930800" lon="6.648260">
						<ele>439</ele>
						<time>2023-07-03T07:21:39Z</time>
					</trkpt>
					<trkpt lat="47.930650" lon="6.648510">
						<ele>438</ele>
						<time>2023-07-03T07:21:43Z</time>
					</trkpt>
					<trkpt lat="47.930490" lon="6.649010">
						<ele>434</ele>
						<time>2023-07-03T07:21:50Z</time>
					</trkpt>
					<trkpt lat="47.930410" lon="6.649160">
						<ele>433</ele>
						<time>2023-07-03T07:21:52Z</time>
					</trkpt>
					<trkpt lat="47.930320" lon="6.649240">
						<ele>433</ele>
						<time>2023-07-03T07:21:54Z</time>
					</trkpt>
					<trkpt lat="47.929660" lon="6.649690">
						<ele>431</ele>
						<time>2023-07-03T07:22:07Z</time>
					</trkpt>
					<trkpt lat="47.929420" lon="6.649800">
						<ele>431</ele>
						<time>2023-07-03T07:22:11Z</time>
					</trkpt>
					<trkpt lat="47.929080" lon="6.650280">
						<ele>429</ele>
						<time>2023-07-03T07:22:20Z</time>
					</trkpt>
					<trkpt lat="47.928900" lon="6.650500">
						<ele>429</ele>
						<time>2023-07-03T07:22:24Z</time>
					</trkpt>
					<trkpt lat="47.928730" lon="6.650680">
						<ele>429</ele>
						<time>2023-07-03T07:22:28Z</time>
					</trkpt>
					<trkpt lat="47.928600" lon="6.650770">
						<ele>429</ele>
						<time>2023-07-03T07:22:30Z</time>
					</trkpt>
					<trkpt lat="47.928210" lon="6.650900">
						<ele>431</ele>
						<time>2023-07-03T07:22:37Z</time>
					</trkpt>
					<trkpt lat="47.928050" lon="6.650930">
						<ele>432</ele>
						<time>2023-07-03T07:22:40Z</time>
					</trkpt>
					<trkpt lat="47.927650" lon="6.651000">
						<ele>433</ele>
						<time>2023-07-03T07:22:47Z</time>
					</trkpt>
					<trkpt lat="47.927500" lon="6.651100">
						<ele>433</ele>
						<time>2023-07-03T07:22:50Z</time>
					</trkpt>
					<trkpt lat="47.927330" lon="6.651260">
						<ele>433</ele>
						<time>2023-07-03T07:22:54Z</time>
					</trkpt>
					<trkpt lat="47.927190" lon="6.651370">
						<ele>433</ele>
						<time>2023-07-03T07:22:57Z</time>
					</trkpt>
					<trkpt lat="47.926360" lon="6.651710">
						<ele>436</ele>
						<time>2023-07-03T07:23:12Z</time>
					</trkpt>
					<trkpt lat="47.925530" lon="6.651730">
						<ele>437</ele>
						<time>2023-07-03T07:23:27Z</time>
					</trkpt>
					<trkpt lat="47.925180" lon="6.651830">
						<ele>437</ele>
						<time>2023-07-03T07:23:33Z</time>
					</trkpt>
					<trkpt lat="47.924600" lon="6.651860">
						<ele>438</ele>
						<time>2023-07-03T07:23:43Z</time>
					</trkpt>
					<trkpt lat="47.924490" lon="6.651890">
						<ele>438</ele>
						<time>2023-07-03T07:23:45Z</time>
					</trkpt>
					<trkpt lat="47.924060" lon="6.652300">
						<ele>434</ele>
						<time>2023-07-03T07:23:54Z</time>
					</trkpt>
					<trkpt lat="47.923840" lon="6.652560">
						<ele>431</ele>
						<time>2023-07-03T07:23:59Z</time>
					</trkpt>
					<trkpt lat="47.923000" lon="6.653950">
						<ele>424</ele>
						<time>2023-07-03T07:24:22Z</time>
					</trkpt>
					<trkpt lat="47.922970" lon="6.653910">
						<ele>424</ele>
						<time>2023-07-03T07:24:23Z</time>
					</trkpt>
					<trkpt lat="47.922860" lon="6.653880">
						<ele>424</ele>
						<time>2023-07-03T07:24:25Z</time>
					</trkpt>
					<trkpt lat="47.921670" lon="6.653790">
						<ele>428</ele>
						<time>2023-07-03T07:24:46Z</time>
					</trkpt>
					<trkpt lat="47.921370" lon="6.653730">
						<ele>431</ele>
						<time>2023-07-03T07:24:51Z</time>
					</trkpt>
					<trkpt lat="47.920950" lon="6.653600">
						<ele>436</ele>
						<time>2023-07-03T07:24:59Z</time>
					</trkpt>
					<trkpt lat="47.920080" lon="6.653570">
						<ele>445</ele>
						<time>2023-07-03T07:25:14Z</time>
					</trkpt>
					<trkpt lat="47.919660" lon="6.653570">
						<ele>450</ele>
						<time>2023-07-03T07:25:22Z</time>
					</trkpt>
					<trkpt lat="47.919430" lon="6.653600">
						<ele>451</ele>
						<time>2023-07-03T07:25:26Z</time>
					</trkpt>
					<trkpt lat="47.918490" lon="6.653400">
						<ele>458</ele>
						<time>2023-07-03T07:25:43Z</time>
					</trkpt>
					<trkpt lat="47.918370" lon="6.653400">
						<ele>457</ele>
						<time>2023-07-03T07:25:45Z</time>
					</trkpt>
					<trkpt lat="47.918020" lon="6.653530">
						<ele>457</ele>
						<time>2023-07-03T07:25:51Z</time>
					</trkpt>
					<trkpt lat="47.917500" lon="6.653740">
						<ele>455</ele>
						<time>2023-07-03T07:26:01Z</time>
					</trkpt>
					<trkpt lat="47.916790" lon="6.653850">
						<ele>460</ele>
						<time>2023-07-03T07:26:14Z</time>
					</trkpt>
					<trkpt lat="47.915770" lon="6.653970">
						<ele>464</ele>
						<time>2023-07-03T07:26:32Z</time>
					</trkpt>
					<trkpt lat="47.915530" lon="6.653860">
						<ele>466</ele>
						<time>2023-07-03T07:26:36Z</time>
					</trkpt>
					<trkpt lat="47.915500" lon="6.653960">
						<ele>465</ele>
						<time>2023-07-03T07:26:38Z</time>
					</trkpt>
					<trkpt lat="47.915450" lon="6.654040">
						<ele>464</ele>
						<time>2023-07-03T07:26:39Z</time>
					</trkpt>
					<trkpt lat="47.915070" lon="6.654100">
						<ele>465</ele>
						<time>2023-07-03T07:26:46Z</time>
					</trkpt>
					<trkpt lat="47.914870" lon="6.654240">
						<ele>462</ele>
						<time>2023-07-03T07:26:50Z</time>
					</trkpt>
					<trkpt lat="47.914680" lon="6.654280">
						<ele>461</ele>
						<time>2023-07-03T07:26:53Z</time>
					</trkpt>
					<trkpt lat="47.914590" lon="6.654280">
						<ele>461</ele>
						<time>2023-07-03T07:26:55Z</time>
					</trkpt>
					<trkpt lat="47.914300" lon="6.654040">
						<ele>465</ele>
						<time>2023-07-03T07:27:00Z</time>
					</trkpt>
					<trkpt lat="47.914140" lon="6.653940">
						<ele>466</ele>
						<time>2023-07-03T07:27:04Z</time>
					</trkpt>
					<trkpt lat="47.914000" lon="6.653900">
						<ele>467</ele>
						<time>2023-07-03T07:27:06Z</time>
					</trkpt>
					<trkpt lat="47.913140" lon="6.654030">
						<ele>466</ele>
						<time>2023-07-03T07:27:21Z</time>
					</trkpt>
					<trkpt lat="47.913020" lon="6.654100">
						<ele>465</ele>
						<time>2023-07-03T07:27:24Z</time>
					</trkpt>
					<trkpt lat="47.912510" lon="6.654790">
						<ele>457</ele>
						<time>2023-07-03T07:27:36Z</time>
					</trkpt>
					<trkpt lat="47.912390" lon="6.655050">
						<ele>454</ele>
						<time>2023-07-03T07:27:40Z</time>
					</trkpt>
					<trkpt lat="47.912230" lon="6.655550">
						<ele>449</ele>
						<time>2023-07-03T07:27:46Z</time>
					</trkpt>
					<trkpt lat="47.912100" lon="6.655830">
						<ele>446</ele>
						<time>2023-07-03T07:27:50Z</time>
					</trkpt>
					<trkpt lat="47.912030" lon="6.655920">
						<ele>445</ele>
						<time>2023-07-03T07:27:52Z</time>
					</trkpt>
					<trkpt lat="47.911730" lon="6.656110">
						<ele>444</ele>
						<time>2023-07-03T07:27:58Z</time>
					</trkpt>
					<trkpt lat="47.911550" lon="6.656310">
						<ele>442</ele>
						<time>2023-07-03T07:28:02Z</time>
					</trkpt>
					<trkpt lat="47.911290" lon="6.656740">
						<ele>438</ele>
						<time>2023-07-03T07:28:09Z</time>
					</trkpt>
					<trkpt lat="47.911200" lon="6.657040">
						<ele>437</ele>
						<time>2023-07-03T07:28:13Z</time>
					</trkpt>
					<trkpt lat="47.911140" lon="6.657350">
						<ele>436</ele>
						<time>2023-07-03T07:28:17Z</time>
					</trkpt>
					<trkpt lat="47.911090" lon="6.657490">
						<ele>436</ele>
						<time>2023-07-03T07:28:18Z</time>
					</trkpt>
					<trkpt lat="47.911010" lon="6.657570">
						<ele>436</ele>
						<time>2023-07-03T07:28:20Z</time>
					</trkpt>
					<trkpt lat="47.910440" lon="6.657730">
						<ele>438</ele>
						<time>2023-07-03T07:28:30Z</time>
					</trkpt>
					<trkpt lat="47.910340" lon="6.657830">
						<ele>439</ele>
						<time>2023-07-03T07:28:33Z</time>
					</trkpt>
					<trkpt lat="47.910310" lon="6.657920">
						<ele>439</ele>
						<time>2023-07-03T07:28:34Z</time>
					</trkpt>
					<trkpt lat="47.910290" lon="6.658280">
						<ele>439</ele>
						<time>2023-07-03T07:28:38Z</time>
					</trkpt>
					<trkpt lat="47.910360" lon="6.658760">
						<ele>438</ele>
						<time>2023-07-03T07:28:44Z</time>
					</trkpt>
					<trkpt lat="47.910430" lon="6.659110">
						<ele>437</ele>
						<time>2023-07-03T07:28:48Z</time>
					</trkpt>
					<trkpt lat="47.910520" lon="6.659350">
						<ele>436</ele>
						<time>2023-07-03T07:28:52Z</time>
					</trkpt>
					<trkpt lat="47.910540" lon="6.659470">
						<ele>436</ele>
						<time>2023-07-03T07:28:53Z</time>
					</trkpt>
					<trkpt lat="47.910520" lon="6.659630">
						<ele>436</ele>
						<time>2023-07-03T07:28:55Z</time>
					</trkpt>
					<trkpt lat="47.910430" lon="6.659880">
						<ele>437</ele>
						<time>2023-07-03T07:28:58Z</time>
					</trkpt>
					<trkpt lat="47.910390" lon="6.660060">
						<ele>437</ele>
						<time>2023-07-03T07:29:01Z</time>
					</trkpt>
					<trkpt lat="47.910380" lon="6.660400">
						<ele>435</ele>
						<time>2023-07-03T07:29:05Z</time>
					</trkpt>
					<trkpt lat="47.910340" lon="6.660400">
						<ele>436</ele>
						<time>2023-07-03T07:29:05Z</time>
					</trkpt>
					<trkpt lat="47.910160" lon="6.660710">
						<ele>436</ele>
						<time>2023-07-03T07:29:10Z</time>
					</trkpt>
					<trkpt lat="47.910090" lon="6.660800">
						<ele>436</ele>
						<time>2023-07-03T07:29:12Z</time>
					</trkpt>
					<trkpt lat="47.910000" lon="6.660870">
						<ele>436</ele>
						<time>2023-07-03T07:29:14Z</time>
					</trkpt>
					<trkpt lat="47.909750" lon="6.660960">
						<ele>435</ele>
						<time>2023-07-03T07:29:18Z</time>
					</trkpt>
					<trkpt lat="47.909640" lon="6.661050">
						<ele>434</ele>
						<time>2023-07-03T07:29:21Z</time>
					</trkpt>
					<trkpt lat="47.909060" lon="6.661690">
						<ele>432</ele>
						<time>2023-07-03T07:29:33Z</time>
					</trkpt>
					<trkpt lat="47.908580" lon="6.662290">
						<ele>433</ele>
						<time>2023-07-03T07:29:45Z</time>
					</trkpt>
					<trkpt lat="47.908320" lon="6.662680">
						<ele>433</ele>
						<time>2023-07-03T07:29:51Z</time>
					</trkpt>
					<trkpt lat="47.908290" lon="6.662770">
						<ele>433</ele>
						<time>2023-07-03T07:29:52Z</time>
					</trkpt>
					<trkpt lat="47.908260" lon="6.663010">
						<ele>433</ele>
						<time>2023-07-03T07:29:55Z</time>
					</trkpt>
					<trkpt lat="47.908210" lon="6.664340">
						<ele>432</ele>
						<time>2023-07-03T07:30:11Z</time>
					</trkpt>
					<trkpt lat="47.908190" lon="6.664490">
						<ele>432</ele>
						<time>2023-07-03T07:30:13Z</time>
					</trkpt>
					<trkpt lat="47.907890" lon="6.666280">
						<ele>431</ele>
						<time>2023-07-03T07:30:35Z</time>
					</trkpt>
					<trkpt lat="47.907700" lon="6.667460">
						<ele>431</ele>
						<time>2023-07-03T07:30:49Z</time>
					</trkpt>
					<trkpt lat="47.907460" lon="6.668830">
						<ele>430</ele>
						<time>2023-07-03T07:31:06Z</time>
					</trkpt>
					<trkpt lat="47.907370" lon="6.669290">
						<ele>430</ele>
						<time>2023-07-03T07:31:12Z</time>
					</trkpt>
					<trkpt lat="47.907290" lon="6.669500">
						<ele>430</ele>
						<time>2023-07-03T07:31:15Z</time>
					</trkpt>
					<trkpt lat="47.906980" lon="6.670060">
						<ele>430</ele>
						<time>2023-07-03T07:31:24Z</time>
					</trkpt>
					<trkpt lat="47.906890" lon="6.670350">
						<ele>431</ele>
						<time>2023-07-03T07:31:27Z</time>
					</trkpt>
					<trkpt lat="47.906830" lon="6.670700">
						<ele>431</ele>
						<time>2023-07-03T07:31:32Z</time>
					</trkpt>
					<trkpt lat="47.906820" lon="6.671120">
						<ele>431</ele>
						<time>2023-07-03T07:31:37Z</time>
					</trkpt>
					<trkpt lat="47.906860" lon="6.671800">
						<ele>432</ele>
						<time>2023-07-03T07:31:45Z</time>
					</trkpt>
					<trkpt lat="47.906790" lon="6.672300">
						<ele>432</ele>
						<time>2023-07-03T07:31:51Z</time>
					</trkpt>
					<trkpt lat="47.906560" lon="6.673560">
						<ele>434</ele>
						<time>2023-07-03T07:32:07Z</time>
					</trkpt>
					<trkpt lat="47.906510" lon="6.673720">
						<ele>435</ele>
						<time>2023-07-03T07:32:09Z</time>
					</trkpt>
					<trkpt lat="47.906420" lon="6.673900">
						<ele>435</ele>
						<time>2023-07-03T07:32:11Z</time>
					</trkpt>
					<trkpt lat="47.906210" lon="6.674170">
						<ele>437</ele>
						<time>2023-07-03T07:32:16Z</time>
					</trkpt>
					<trkpt lat="47.906080" lon="6.674420">
						<ele>438</ele>
						<time>2023-07-03T07:32:20Z</time>
					</trkpt>
					<trkpt lat="47.905920" lon="6.675000">
						<ele>440</ele>
						<time>2023-07-03T07:32:27Z</time>
					</trkpt>
					<trkpt lat="47.905870" lon="6.675260">
						<ele>441</ele>
						<time>2023-07-03T07:32:31Z</time>
					</trkpt>
					<trkpt lat="47.905860" lon="6.675480">
						<ele>441</ele>
						<time>2023-07-03T07:32:33Z</time>
					</trkpt>
					<trkpt lat="47.905920" lon="6.675470">
						<ele>440</ele>
						<time>2023-07-03T07:32:34Z</time>
					</trkpt>
					<trkpt lat="47.906080" lon="6.675570">
						<ele>439</ele>
						<time>2023-07-03T07:32:38Z</time>
					</trkpt>
					<trkpt lat="47.906210" lon="6.675750">
						<ele>438</ele>
						<time>2023-07-03T07:32:41Z</time>
					</trkpt>
					<trkpt lat="47.906280" lon="6.675920">
						<ele>437</ele>
						<time>2023-07-03T07:32:43Z</time>
					</trkpt>
					<trkpt lat="47.906330" lon="6.676100">
						<ele>437</ele>
						<time>2023-07-03T07:32:45Z</time>
					</trkpt>
					<trkpt lat="47.906460" lon="6.676620">
						<ele>436</ele>
						<time>2023-07-03T07:32:52Z</time>
					</trkpt>
					<trkpt lat="47.906490" lon="6.677160">
						<ele>435</ele>
						<time>2023-07-03T07:32:58Z</time>
					</trkpt>
					<trkpt lat="47.906450" lon="6.679250">
						<ele>436</ele>
						<time>2023-07-03T07:33:23Z</time>
					</trkpt>
					<trkpt lat="47.906470" lon="6.679710">
						<ele>438</ele>
						<time>2023-07-03T07:33:29Z</time>
					</trkpt>
					<trkpt lat="47.906660" lon="6.680580">
						<ele>438</ele>
						<time>2023-07-03T07:33:40Z</time>
					</trkpt>
					<trkpt lat="47.906750" lon="6.680810">
						<ele>438</ele>
						<time>2023-07-03T07:33:43Z</time>
					</trkpt>
					<trkpt lat="47.907060" lon="6.681180">
						<ele>436</ele>
						<time>2023-07-03T07:33:50Z</time>
					</trkpt>
					<trkpt lat="47.907230" lon="6.681310">
						<ele>435</ele>
						<time>2023-07-03T07:33:53Z</time>
					</trkpt>
					<trkpt lat="47.907690" lon="6.681660">
						<ele>434</ele>
						<time>2023-07-03T07:34:03Z</time>
					</trkpt>
					<trkpt lat="47.907780" lon="6.681770">
						<ele>434</ele>
						<time>2023-07-03T07:34:05Z</time>
					</trkpt>
					<trkpt lat="47.907910" lon="6.682000">
						<ele>435</ele>
						<time>2023-07-03T07:34:08Z</time>
					</trkpt>
					<trkpt lat="47.907980" lon="6.682200">
						<ele>436</ele>
						<time>2023-07-03T07:34:11Z</time>
					</trkpt>
					<trkpt lat="47.908030" lon="6.682480">
						<ele>437</ele>
						<time>2023-07-03T07:34:14Z</time>
					</trkpt>
					<trkpt lat="47.908030" lon="6.682960">
						<ele>438</ele>
						<time>2023-07-03T07:34:20Z</time>
					</trkpt>
					<trkpt lat="47.907880" lon="6.683870">
						<ele>439</ele>
						<time>2023-07-03T07:34:31Z</time>
					</trkpt>
					<trkpt lat="47.907860" lon="6.684100">
						<ele>439</ele>
						<time>2023-07-03T07:34:34Z</time>
					</trkpt>
					<trkpt lat="47.907890" lon="6.684430">
						<ele>439</ele>
						<time>2023-07-03T07:34:38Z</time>
					</trkpt>
					<trkpt lat="47.907960" lon="6.684700">
						<ele>440</ele>
						<time>2023-07-03T07:34:42Z</time>
					</trkpt>
					<trkpt lat="47.908090" lon="6.684990">
						<ele>440</ele>
						<time>2023-07-03T07:34:46Z</time>
					</trkpt>
					<trkpt lat="47.908180" lon="6.685120">
						<ele>440</ele>
						<time>2023-07-03T07:34:48Z</time>
					</trkpt>
					<trkpt lat="47.908390" lon="6.685360">
						<ele>441</ele>
						<time>2023-07-03T07:34:53Z</time>
					</trkpt>
					<trkpt lat="47.908800" lon="6.685780">
						<ele>440</ele>
						<time>2023-07-03T07:35:01Z</time>
					</trkpt>
					<trkpt lat="47.909060" lon="6.686010">
						<ele>439</ele>
						<time>2023-07-03T07:35:07Z</time>
					</trkpt>
					<trkpt lat="47.909260" lon="6.686060">
						<ele>439</ele>
						<time>2023-07-03T07:35:10Z</time>
					</trkpt>
					<trkpt lat="47.909260" lon="6.686100">
						<ele>439</ele>
						<time>2023-07-03T07:35:11Z</time>
					</trkpt>
					<trkpt lat="47.909170" lon="6.686630">
						<ele>440</ele>
						<time>2023-07-03T07:35:17Z</time>
					</trkpt>
					<trkpt lat="47.909060" lon="6.686880">
						<ele>440</ele>
						<time>2023-07-03T07:35:21Z</time>
					</trkpt>
					<trkpt lat="47.908860" lon="6.687230">
						<ele>442</ele>
						<time>2023-07-03T07:35:27Z</time>
					</trkpt>
					<trkpt lat="47.908610" lon="6.688000">
						<ele>443</ele>
						<time>2023-07-03T07:35:37Z</time>
					</trkpt>
					<trkpt lat="47.908420" lon="6.688390">
						<ele>442</ele>
						<time>2023-07-03T07:35:42Z</time>
					</trkpt>
					<trkpt lat="47.908110" lon="6.688680">
						<ele>444</ele>
						<time>2023-07-03T07:35:49Z</time>
					</trkpt>
					<trkpt lat="47.907990" lon="6.689020">
						<ele>443</ele>
						<time>2023-07-03T07:35:54Z</time>
					</trkpt>
					<trkpt lat="47.907940" lon="6.689100">
						<ele>443</ele>
						<time>2023-07-03T07:35:55Z</time>
					</trkpt>
					<trkpt lat="47.907430" lon="6.689430">
						<ele>446</ele>
						<time>2023-07-03T07:36:05Z</time>
					</trkpt>
					<trkpt lat="47.907610" lon="6.689760">
						<ele>446</ele>
						<time>2023-07-03T07:36:10Z</time>
					</trkpt>
					<trkpt lat="47.907660" lon="6.689940">
						<ele>446</ele>
						<time>2023-07-03T07:36:12Z</time>
					</trkpt>
					<trkpt lat="47.907680" lon="6.690110">
						<ele>446</ele>
						<time>2023-07-03T07:36:14Z</time>
					</trkpt>
					<trkpt lat="47.907650" lon="6.690400">
						<ele>446</ele>
						<time>2023-07-03T07:36:18Z</time>
					</trkpt>
					<trkpt lat="47.907630" lon="6.691490">
						<ele>447</ele>
						<time>2023-07-03T07:36:31Z</time>
					</trkpt>
					<trkpt lat="47.907560" lon="6.692040">
						<ele>449</ele>
						<time>2023-07-03T07:36:37Z</time>
					</trkpt>
					<trkpt lat="47.907640" lon="6.693480">
						<ele>452</ele>
						<time>2023-07-03T07:36:55Z</time>
					</trkpt>
					<trkpt lat="47.907830" lon="6.695790">
						<ele>449</ele>
						<time>2023-07-03T07:37:22Z</time>
					</trkpt>
					<trkpt lat="47.907920" lon="6.696040">
						<ele>448</ele>
						<time>2023-07-03T07:37:26Z</time>
					</trkpt>
					<trkpt lat="47.908000" lon="6.696120">
						<ele>448</ele>
						<time>2023-07-03T07:37:27Z</time>
					</trkpt>
					<trkpt lat="47.908100" lon="6.696140">
						<ele>448</ele>
						<time>2023-07-03T07:37:29Z</time>
					</trkpt>
					<trkpt lat="47.908330" lon="6.696080">
						<ele>446</ele>
						<time>2023-07-03T07:37:33Z</time>
					</trkpt>
					<trkpt lat="47.908450" lon="6.696120">
						<ele>446</ele>
						<time>2023-07-03T07:37:36Z</time>
					</trkpt>
					<trkpt lat="47.908560" lon="6.696210">
						<ele>445</ele>
						<time>2023-07-03T07:37:38Z</time>
					</trkpt>
					<trkpt lat="47.908670" lon="6.696410">
						<ele>445</ele>
						<time>2023-07-03T07:37:41Z</time>
					</trkpt>
					<trkpt lat="47.908750" lon="6.696560">
						<ele>445</ele>
						<time>2023-07-03T07:37:43Z</time>
					</trkpt>
					<trkpt lat="47.908950" lon="6.697110">
						<ele>445</ele>
						<time>2023-07-03T07:37:51Z</time>
					</trkpt>
					<trkpt lat="47.909070" lon="6.697520">
						<ele>445</ele>
						<time>2023-07-03T07:37:56Z</time>
					</trkpt>
					<trkpt lat="47.909110" lon="6.697770">
						<ele>446</ele>
						<time>2023-07-03T07:37:59Z</time>
					</trkpt>
					<trkpt lat="47.909140" lon="6.698680">
						<ele>449</ele>
						<time>2023-07-03T07:38:10Z</time>
					</trkpt>
					<trkpt lat="47.909160" lon="6.698840">
						<ele>450</ele>
						<time>2023-07-03T07:38:12Z</time>
					</trkpt>
					<trkpt lat="47.909440" lon="6.699790">
						<ele>452</ele>
						<time>2023-07-03T07:38:24Z</time>
					</trkpt>
					<trkpt lat="47.909450" lon="6.699960">
						<ele>452</ele>
						<time>2023-07-03T07:38:26Z</time>
					</trkpt>
					<trkpt lat="47.909430" lon="6.700110">
						<ele>453</ele>
						<time>2023-07-03T07:38:28Z</time>
					</trkpt>
					<trkpt lat="47.909130" lon="6.700990">
						<ele>453</ele>
						<time>2023-07-03T07:38:40Z</time>
					</trkpt>
					<trkpt lat="47.908960" lon="6.701220">
						<ele>452</ele>
						<time>2023-07-03T07:38:44Z</time>
					</trkpt>
					<trkpt lat="47.908880" lon="6.701290">
						<ele>452</ele>
						<time>2023-07-03T07:38:46Z</time>
					</trkpt>
					<trkpt lat="47.908800" lon="6.701310">
						<ele>452</ele>
						<time>2023-07-03T07:38:47Z</time>
					</trkpt>
					<trkpt lat="47.908510" lon="6.701240">
						<ele>453</ele>
						<time>2023-07-03T07:38:52Z</time>
					</trkpt>
					<trkpt lat="47.908440" lon="6.701270">
						<ele>454</ele>
						<time>2023-07-03T07:38:54Z</time>
					</trkpt>
					<trkpt lat="47.908330" lon="6.701540">
						<ele>454</ele>
						<time>2023-07-03T07:38:57Z</time>
					</trkpt>
					<trkpt lat="47.908190" lon="6.701740">
						<ele>454</ele>
						<time>2023-07-03T07:39:01Z</time>
					</trkpt>
					<trkpt lat="47.908040" lon="6.701980">
						<ele>454</ele>
						<time>2023-07-03T07:39:05Z</time>
					</trkpt>
					<trkpt lat="47.908020" lon="6.702130">
						<ele>454</ele>
						<time>2023-07-03T07:39:07Z</time>
					</trkpt>
					<trkpt lat="47.908060" lon="6.702440">
						<ele>454</ele>
						<time>2023-07-03T07:39:10Z</time>
					</trkpt>
					<trkpt lat="47.908080" lon="6.702900">
						<ele>452</ele>
						<time>2023-07-03T07:39:16Z</time>
					</trkpt>
					<trkpt lat="47.908070" lon="6.703510">
						<ele>449</ele>
						<time>2023-07-03T07:39:23Z</time>
					</trkpt>
					<trkpt lat="47.908060" lon="6.703620">
						<ele>449</ele>
						<time>2023-07-03T07:39:24Z</time>
					</trkpt>
					<trkpt lat="47.907980" lon="6.703750">
						<ele>449</ele>
						<time>2023-07-03T07:39:27Z</time>
					</trkpt>
					<trkpt lat="47.907690" lon="6.704140">
						<ele>449</ele>
						<time>2023-07-03T07:39:33Z</time>
					</trkpt>
					<trkpt lat="47.907650" lon="6.704090">
						<ele>449</ele>
						<time>2023-07-03T07:39:34Z</time>
					</trkpt>
					<trkpt lat="47.907240" lon="6.704230">
						<ele>450</ele>
						<time>2023-07-03T07:39:42Z</time>
					</trkpt>
					<trkpt lat="47.906450" lon="6.704570">
						<ele>451</ele>
						<time>2023-07-03T07:39:57Z</time>
					</trkpt>
					<trkpt lat="47.906340" lon="6.704600">
						<ele>451</ele>
						<time>2023-07-03T07:39:59Z</time>
					</trkpt>
					<trkpt lat="47.905620" lon="6.704640">
						<ele>450</ele>
						<time>2023-07-03T07:40:11Z</time>
					</trkpt>
					<trkpt lat="47.905520" lon="6.704630">
						<ele>450</ele>
						<time>2023-07-03T07:40:13Z</time>
					</trkpt>
					<trkpt lat="47.905290" lon="6.704530">
						<ele>450</ele>
						<time>2023-07-03T07:40:17Z</time>
					</trkpt>
					<trkpt lat="47.905170" lon="6.704510">
						<ele>450</ele>
						<time>2023-07-03T07:40:20Z</time>
					</trkpt>
					<trkpt lat="47.904830" lon="6.704530">
						<ele>450</ele>
						<time>2023-07-03T07:40:26Z</time>
					</trkpt>
					<trkpt lat="47.904650" lon="6.704580">
						<ele>450</ele>
						<time>2023-07-03T07:40:29Z</time>
					</trkpt>
					<trkpt lat="47.904250" lon="6.704820">
						<ele>451</ele>
						<time>2023-07-03T07:40:37Z</time>
					</trkpt>
					<trkpt lat="47.904110" lon="6.704950">
						<ele>451</ele>
						<time>2023-07-03T07:40:39Z</time>
					</trkpt>
					<trkpt lat="47.903790" lon="6.705450">
						<ele>451</ele>
						<time>2023-07-03T07:40:48Z</time>
					</trkpt>
					<trkpt lat="47.903660" lon="6.705570">
						<ele>451</ele>
						<time>2023-07-03T07:40:50Z</time>
					</trkpt>
					<trkpt lat="47.903550" lon="6.705630">
						<ele>451</ele>
						<time>2023-07-03T07:40:52Z</time>
					</trkpt>
					<trkpt lat="47.903420" lon="6.705650">
						<ele>452</ele>
						<time>2023-07-03T07:40:55Z</time>
					</trkpt>
					<trkpt lat="47.903230" lon="6.705680">
						<ele>454</ele>
						<time>2023-07-03T07:40:58Z</time>
					</trkpt>
					<trkpt lat="47.902960" lon="6.706060">
						<ele>456</ele>
						<time>2023-07-03T07:41:05Z</time>
					</trkpt>
					<trkpt lat="47.902500" lon="6.706730">
						<ele>454</ele>
						<time>2023-07-03T07:41:16Z</time>
					</trkpt>
					<trkpt lat="47.902020" lon="6.707230">
						<ele>463</ele>
						<time>2023-07-03T07:41:27Z</time>
					</trkpt>
					<trkpt lat="47.901890" lon="6.707440">
						<ele>462</ele>
						<time>2023-07-03T07:41:30Z</time>
					</trkpt>
					<trkpt lat="47.901570" lon="6.708140">
						<ele>458</ele>
						<time>2023-07-03T07:41:40Z</time>
					</trkpt>
					<trkpt lat="47.900890" lon="6.709060">
						<ele>457</ele>
						<time>2023-07-03T07:41:57Z</time>
					</trkpt>
					<trkpt lat="47.900630" lon="6.709350">
						<ele>457</ele>
						<time>2023-07-03T07:42:02Z</time>
					</trkpt>
					<trkpt lat="47.900030" lon="6.709910">
						<ele>457</ele>
						<time>2023-07-03T07:42:15Z</time>
					</trkpt>
					<trkpt lat="47.899790" lon="6.710080">
						<ele>460</ele>
						<time>2023-07-03T07:42:20Z</time>
					</trkpt>
					<trkpt lat="47.899460" lon="6.710230">
						<ele>464</ele>
						<time>2023-07-03T07:42:26Z</time>
					</trkpt>
					<trkpt lat="47.899350" lon="6.710320">
						<ele>465</ele>
						<time>2023-07-03T07:42:28Z</time>
					</trkpt>
					<trkpt lat="47.898830" lon="6.710890">
						<ele>467</ele>
						<time>2023-07-03T07:42:39Z</time>
					</trkpt>
					<trkpt lat="47.898460" lon="6.711550">
						<ele>464</ele>
						<time>2023-07-03T07:42:50Z</time>
					</trkpt>
					<trkpt lat="47.898410" lon="6.711680">
						<ele>462</ele>
						<time>2023-07-03T07:42:52Z</time>
					</trkpt>
					<trkpt lat="47.898360" lon="6.712220">
						<ele>459</ele>
						<time>2023-07-03T07:42:58Z</time>
					</trkpt>
					<trkpt lat="47.898200" lon="6.712390">
						<ele>459</ele>
						<time>2023-07-03T07:43:02Z</time>
					</trkpt>
					<trkpt lat="47.897710" lon="6.712780">
						<ele>463</ele>
						<time>2023-07-03T07:43:11Z</time>
					</trkpt>
					<trkpt lat="47.897280" lon="6.712850">
						<ele>467</ele>
						<time>2023-07-03T07:43:19Z</time>
					</trkpt>
					<trkpt lat="47.896970" lon="6.713110">
						<ele>470</ele>
						<time>2023-07-03T07:43:25Z</time>
					</trkpt>
					<trkpt lat="47.896910" lon="6.713210">
						<ele>470</ele>
						<time>2023-07-03T07:43:27Z</time>
					</trkpt>
					<trkpt lat="47.896810" lon="6.713790">
						<ele>468</ele>
						<time>2023-07-03T07:43:34Z</time>
					</trkpt>
					<trkpt lat="47.896670" lon="6.714550">
						<ele>465</ele>
						<time>2023-07-03T07:43:44Z</time>
					</trkpt>
					<trkpt lat="47.896450" lon="6.715740">
						<ele>465</ele>
						<time>2023-07-03T07:43:58Z</time>
					</trkpt>
					<trkpt lat="47.896210" lon="6.716640">
						<ele>463</ele>
						<time>2023-07-03T07:44:10Z</time>
					</trkpt>
					<trkpt lat="47.896160" lon="6.717030">
						<ele>463</ele>
						<time>2023-07-03T07:44:15Z</time>
					</trkpt>
					<trkpt lat="47.896110" lon="6.717350">
						<ele>463</ele>
						<time>2023-07-03T07:44:19Z</time>
					</trkpt>
					<trkpt lat="47.896050" lon="6.717520">
						<ele>463</ele>
						<time>2023-07-03T07:44:21Z</time>
					</trkpt>
					<trkpt lat="47.895570" lon="6.718630">
						<ele>465</ele>
						<time>2023-07-03T07:44:37Z</time>
					</trkpt>
					<trkpt lat="47.895310" lon="6.719320">
						<ele>469</ele>
						<time>2023-07-03T07:44:46Z</time>
					</trkpt>
					<trkpt lat="47.895200" lon="6.719830">
						<ele>469</ele>
						<time>2023-07-03T07:44:52Z</time>
					</trkpt>
					<trkpt lat="47.895020" lon="6.720890">
						<ele>469</ele>
						<time>2023-07-03T07:45:05Z</time>
					</trkpt>
					<trkpt lat="47.894950" lon="6.721500">
						<ele>466</ele>
						<time>2023-07-03T07:45:13Z</time>
					</trkpt>
					<trkpt lat="47.894860" lon="6.721750">
						<ele>466</ele>
						<time>2023-07-03T07:45:16Z</time>
					</trkpt>
					<trkpt lat="47.894490" lon="6.722470">
						<ele>467</ele>
						<time>2023-07-03T07:45:27Z</time>
					</trkpt>
					<trkpt lat="47.894160" lon="6.722910">
						<ele>470</ele>
						<time>2023-07-03T07:45:35Z</time>
					</trkpt>
					<trkpt lat="47.892820" lon="6.724050">
						<ele>477</ele>
						<time>2023-07-03T07:46:02Z</time>
					</trkpt>
					<trkpt lat="47.892630" lon="6.724330">
						<ele>477</ele>
						<time>2023-07-03T07:46:07Z</time>
					</trkpt>
					<trkpt lat="47.892310" lon="6.724870">
						<ele>476</ele>
						<time>2023-07-03T07:46:16Z</time>
					</trkpt>
					<trkpt lat="47.891250" lon="6.726060">
						<ele>475</ele>
						<time>2023-07-03T07:46:39Z</time>
					</trkpt>
					<trkpt lat="47.891150" lon="6.726150">
						<ele>475</ele>
						<time>2023-07-03T07:46:41Z</time>
					</trkpt>
					<trkpt lat="47.890510" lon="6.726760">
						<ele>477</ele>
						<time>2023-07-03T07:46:55Z</time>
					</trkpt>
					<trkpt lat="47.890350" lon="6.726860">
						<ele>478</ele>
						<time>2023-07-03T07:46:58Z</time>
					</trkpt>
					<trkpt lat="47.889970" lon="6.726830">
						<ele>480</ele>
						<time>2023-07-03T07:47:05Z</time>
					</trkpt>
					<trkpt lat="47.889850" lon="6.726910">
						<ele>482</ele>
						<time>2023-07-03T07:47:07Z</time>
					</trkpt>
					<trkpt lat="47.889740" lon="6.727060">
						<ele>484</ele>
						<time>2023-07-03T07:47:10Z</time>
					</trkpt>
					<trkpt lat="47.889000" lon="6.728760">
						<ele>487</ele>
						<time>2023-07-03T07:47:34Z</time>
					</trkpt>
					<trkpt lat="47.888950" lon="6.728940">
						<ele>487</ele>
						<time>2023-07-03T07:47:36Z</time>
					</trkpt>
					<trkpt lat="47.888930" lon="6.729010">
						<ele>487</ele>
						<time>2023-07-03T07:47:37Z</time>
					</trkpt>
					<trkpt lat="47.888920" lon="6.729440">
						<ele>484</ele>
						<time>2023-07-03T07:47:42Z</time>
					</trkpt>
					<trkpt lat="47.888970" lon="6.729800">
						<ele>481</ele>
						<time>2023-07-03T07:47:47Z</time>
					</trkpt>
					<trkpt lat="47.889170" lon="6.730160">
						<ele>477</ele>
						<time>2023-07-03T07:47:52Z</time>
					</trkpt>
					<trkpt lat="47.889370" lon="6.730640">
						<ele>475</ele>
						<time>2023-07-03T07:47:59Z</time>
					</trkpt>
					<trkpt lat="47.889610" lon="6.731090">
						<ele>473</ele>
						<time>2023-07-03T07:48:06Z</time>
					</trkpt>
					<trkpt lat="47.889910" lon="6.731530">
						<ele>471</ele>
						<time>2023-07-03T07:48:13Z</time>
					</trkpt>
					<trkpt lat="47.890150" lon="6.731760">
						<ele>470</ele>
						<time>2023-07-03T07:48:18Z</time>
					</trkpt>
					<trkpt lat="47.890270" lon="6.731940">
						<ele>470</ele>
						<time>2023-07-03T07:48:21Z</time>
					</trkpt>
					<trkpt lat="47.890380" lon="6.732300">
						<ele>469</ele>
						<time>2023-07-03T07:48:26Z</time>
					</trkpt>
					<trkpt lat="47.890480" lon="6.733490">
						<ele>468</ele>
						<time>2023-07-03T07:48:41Z</time>
					</trkpt>
					<trkpt lat="47.890490" lon="6.734270">
						<ele>469</ele>
						<time>2023-07-03T07:48:50Z</time>
					</trkpt>
					<trkpt lat="47.890410" lon="6.734590">
						<ele>470</ele>
						<time>2023-07-03T07:48:54Z</time>
					</trkpt>
					<trkpt lat="47.890250" lon="6.735480">
						<ele>473</ele>
						<time>2023-07-03T07:49:05Z</time>
					</trkpt>
					<trkpt lat="47.890280" lon="6.735810">
						<ele>474</ele>
						<time>2023-07-03T07:49:09Z</time>
					</trkpt>
					<trkpt lat="47.890410" lon="6.736130">
						<ele>473</ele>
						<time>2023-07-03T07:49:13Z</time>
					</trkpt>
					<trkpt lat="47.890520" lon="6.736360">
						<ele>471</ele>
						<time>2023-07-03T07:49:17Z</time>
					</trkpt>
					<trkpt lat="47.890600" lon="6.736580">
						<ele>470</ele>
						<time>2023-07-03T07:49:20Z</time>
					</trkpt>
					<trkpt lat="47.890740" lon="6.738490">
						<ele>470</ele>
						<time>2023-07-03T07:49:43Z</time>
					</trkpt>
					<trkpt lat="47.890750" lon="6.738560">
						<ele>470</ele>
						<time>2023-07-03T07:49:43Z</time>
					</trkpt>
					<trkpt lat="47.890900" lon="6.738740">
						<ele>469</ele>
						<time>2023-07-03T07:49:47Z</time>
					</trkpt>
					<trkpt lat="47.890930" lon="6.738820">
						<ele>468</ele>
						<time>2023-07-03T07:49:48Z</time>
					</trkpt>
					<trkpt lat="47.890930" lon="6.739070">
						<ele>468</ele>
						<time>2023-07-03T07:49:51Z</time>
					</trkpt>
					<trkpt lat="47.891000" lon="6.739100">
						<ele>468</ele>
						<time>2023-07-03T07:49:52Z</time>
					</trkpt>
					<trkpt lat="47.891320" lon="6.739420">
						<ele>466</ele>
						<time>2023-07-03T07:49:59Z</time>
					</trkpt>
					<trkpt lat="47.891390" lon="6.739460">
						<ele>465</ele>
						<time>2023-07-03T07:50:00Z</time>
					</trkpt>
					<trkpt lat="47.891450" lon="6.739450">
						<ele>465</ele>
						<time>2023-07-03T07:50:02Z</time>
					</trkpt>
					<trkpt lat="47.891790" lon="6.739100">
						<ele>465</ele>
						<time>2023-07-03T07:50:09Z</time>
					</trkpt>
					<trkpt lat="47.891840" lon="6.739080">
						<ele>465</ele>
						<time>2023-07-03T07:50:10Z</time>
					</trkpt>
					<trkpt lat="47.892160" lon="6.739090">
						<ele>465</ele>
						<time>2023-07-03T07:50:15Z</time>
					</trkpt>
					<trkpt lat="47.892290" lon="6.739140">
						<ele>465</ele>
						<time>2023-07-03T07:50:18Z</time>
					</trkpt>
					<trkpt lat="47.892360" lon="6.739190">
						<ele>465</ele>
						<time>2023-07-03T07:50:19Z</time>
					</trkpt>
					<trkpt lat="47.892490" lon="6.739370">
						<ele>465</ele>
						<time>2023-07-03T07:50:22Z</time>
					</trkpt>
					<trkpt lat="47.893830" lon="6.741290">
						<ele>472</ele>
						<time>2023-07-03T07:50:55Z</time>
					</trkpt>
					<trkpt lat="47.893940" lon="6.741390">
						<ele>473</ele>
						<time>2023-07-03T07:50:58Z</time>
					</trkpt>
					<trkpt lat="47.893950" lon="6.741320">
						<ele>473</ele>
						<time>2023-07-03T07:50:59Z</time>
					</trkpt>
					<trkpt lat="47.894570" lon="6.741860">
						<ele>475</ele>
						<time>2023-07-03T07:51:11Z</time>
					</trkpt>
					<trkpt lat="47.895200" lon="6.743030">
						<ele>481</ele>
						<time>2023-07-03T07:51:29Z</time>
					</trkpt>
					<trkpt lat="47.895550" lon="6.743580">
						<ele>486</ele>
						<time>2023-07-03T07:51:38Z</time>
					</trkpt>
					<trkpt lat="47.895760" lon="6.744030">
						<ele>488</ele>
						<time>2023-07-03T07:51:45Z</time>
					</trkpt>
					<trkpt lat="47.895820" lon="6.744100">
						<ele>489</ele>
						<time>2023-07-03T07:51:46Z</time>
					</trkpt>
					<trkpt lat="47.895880" lon="6.744130">
						<ele>490</ele>
						<time>2023-07-03T07:51:47Z</time>
					</trkpt>
					<trkpt lat="47.895930" lon="6.744090">
						<ele>491</ele>
						<time>2023-07-03T07:51:48Z</time>
					</trkpt>
					<trkpt lat="47.895980" lon="6.744000">
						<ele>492</ele>
						<time>2023-07-03T07:51:50Z</time>
					</trkpt>
					<trkpt lat="47.896120" lon="6.743270">
						<ele>494</ele>
						<time>2023-07-03T07:51:59Z</time>
					</trkpt>
					<trkpt lat="47.896220" lon="6.743130">
						<ele>496</ele>
						<time>2023-07-03T07:52:01Z</time>
					</trkpt>
					<trkpt lat="47.896760" lon="6.742590">
						<ele>504</ele>
						<time>2023-07-03T07:52:13Z</time>
					</trkpt>
					<trkpt lat="47.896860" lon="6.742410">
						<ele>505</ele>
						<time>2023-07-03T07:52:16Z</time>
					</trkpt>
					<trkpt lat="47.896980" lon="6.742100">
						<ele>507</ele>
						<time>2023-07-03T07:52:20Z</time>
					</trkpt>
					<trkpt lat="47.897020" lon="6.741920">
						<ele>507</ele>
						<time>2023-07-03T07:52:22Z</time>
					</trkpt>
					<trkpt lat="47.897070" lon="6.741430">
						<ele>506</ele>
						<time>2023-07-03T07:52:28Z</time>
					</trkpt>
					<trkpt lat="47.897140" lon="6.740950">
						<ele>507</ele>
						<time>2023-07-03T07:52:34Z</time>
					</trkpt>
					<trkpt lat="47.897230" lon="6.740800">
						<ele>509</ele>
						<time>2023-07-03T07:52:36Z</time>
					</trkpt>
					<trkpt lat="47.897450" lon="6.740750">
						<ele>514</ele>
						<time>2023-07-03T07:52:40Z</time>
					</trkpt>
					<trkpt lat="47.898000" lon="6.740570">
						<ele>520</ele>
						<time>2023-07-03T07:52:50Z</time>
					</trkpt>
					<trkpt lat="47.898090" lon="6.740590">
						<ele>522</ele>
						<time>2023-07-03T07:52:52Z</time>
					</trkpt>
					<trkpt lat="47.898180" lon="6.740660">
						<ele>523</ele>
						<time>2023-07-03T07:52:54Z</time>
					</trkpt>
					<trkpt lat="47.898220" lon="6.740770">
						<ele>524</ele>
						<time>2023-07-03T07:52:55Z</time>
					</trkpt>
					<trkpt lat="47.898360" lon="6.740640">
						<ele>525</ele>
						<time>2023-07-03T07:52:58Z</time>
					</trkpt>
					<trkpt lat="47.898540" lon="6.740380">
						<ele>527</ele>
						<time>2023-07-03T07:53:03Z</time>
					</trkpt>
					<trkpt lat="47.898670" lon="6.740300">
						<ele>528</ele>
						<time>2023-07-03T07:53:05Z</time>
					</trkpt>
					<trkpt lat="47.899470" lon="6.740130">
						<ele>537</ele>
						<time>2023-07-03T07:53:19Z</time>
					</trkpt>
					<trkpt lat="47.899700" lon="6.739890">
						<ele>533</ele>
						<time>2023-07-03T07:53:24Z</time>
					</trkpt>
					<trkpt lat="47.899920" lon="6.739720">
						<ele>530</ele>
						<time>2023-07-03T07:53:29Z</time>
					</trkpt>
					<trkpt lat="47.900210" lon="6.739430">
						<ele>526</ele>
						<time>2023-07-03T07:53:35Z</time>
					</trkpt>
					<trkpt lat="47.900660" lon="6.739260">
						<ele>530</ele>
						<time>2023-07-03T07:53:43Z</time>
					</trkpt>
					<trkpt lat="47.900990" lon="6.739320">
						<ele>534</ele>
						<time>2023-07-03T07:53:49Z</time>
					</trkpt>
					<trkpt lat="47.901400" lon="6.738940">
						<ele>527</ele>
						<time>2023-07-03T07:53:58Z</time>
					</trkpt>
					<trkpt lat="47.901550" lon="6.738860">
						<ele>526</ele>
						<time>2023-07-03T07:54:01Z</time>
					</trkpt>
					<trkpt lat="47.901720" lon="6.738800">
						<ele>524</ele>
						<time>2023-07-03T07:54:04Z</time>
					</trkpt>
					<trkpt lat="47.901840" lon="6.738770">
						<ele>523</ele>
						<time>2023-07-03T07:54:06Z</time>
					</trkpt>
					<trkpt lat="47.902000" lon="6.738790">
						<ele>522</ele>
						<time>2023-07-03T07:54:09Z</time>
					</trkpt>
					<trkpt lat="47.902290" lon="6.738880">
						<ele>522</ele>
						<time>2023-07-03T07:54:14Z</time>
					</trkpt>
					<trkpt lat="47.902520" lon="6.739130">
						<ele>523</ele>
						<time>2023-07-03T07:54:19Z</time>
					</trkpt>
					<trkpt lat="47.902650" lon="6.739210">
						<ele>524</ele>
						<time>2023-07-03T07:54:22Z</time>
					</trkpt>
					<trkpt lat="47.903930" lon="6.739660">
						<ele>527</ele>
						<time>2023-07-03T07:54:45Z</time>
					</trkpt>
					<trkpt lat="47.904460" lon="6.739870">
						<ele>531</ele>
						<time>2023-07-03T07:54:55Z</time>
					</trkpt>
					<trkpt lat="47.904970" lon="6.740260">
						<ele>535</ele>
						<time>2023-07-03T07:55:05Z</time>
					</trkpt>
					<trkpt lat="47.906200" lon="6.741370">
						<ele>541</ele>
						<time>2023-07-03T07:55:31Z</time>
					</trkpt>
					<trkpt lat="47.906950" lon="6.741990">
						<ele>543</ele>
						<time>2023-07-03T07:55:46Z</time>
					</trkpt>
					<trkpt lat="47.907660" lon="6.742660">
						<ele>543</ele>
						<time>2023-07-03T07:56:01Z</time>
					</trkpt>
					<trkpt lat="47.908180" lon="6.743250">
						<ele>543</ele>
						<time>2023-07-03T07:56:12Z</time>
					</trkpt>
					<trkpt lat="47.908440" lon="6.743660">
						<ele>544</ele>
						<time>2023-07-03T07:56:19Z</time>
					</trkpt>
					<trkpt lat="47.908550" lon="6.743840">
						<ele>545</ele>
						<time>2023-07-03T07:56:22Z</time>
					</trkpt>
					<trkpt lat="47.908910" lon="6.744700">
						<ele>550</ele>
						<time>2023-07-03T07:56:34Z</time>
					</trkpt>
					<trkpt lat="47.909400" lon="6.745310">
						<ele>550</ele>
						<time>2023-07-03T07:56:46Z</time>
					</trkpt>
					<trkpt lat="47.909690" lon="6.745840">
						<ele>553</ele>
						<time>2023-07-03T07:56:54Z</time>
					</trkpt>
					<trkpt lat="47.909810" lon="6.746150">
						<ele>554</ele>
						<time>2023-07-03T07:56:58Z</time>
					</trkpt>
					<trkpt lat="47.909920" lon="6.746680">
						<ele>555</ele>
						<time>2023-07-03T07:57:05Z</time>
					</trkpt>
					<trkpt lat="47.910210" lon="6.748560">
						<ele>569</ele>
						<time>2023-07-03T07:57:28Z</time>
					</trkpt>
					<trkpt lat="47.910330" lon="6.749050">
						<ele>573</ele>
						<time>2023-07-03T07:57:34Z</time>
					</trkpt>
					<trkpt lat="47.910410" lon="6.749250">
						<ele>574</ele>
						<time>2023-07-03T07:57:37Z</time>
					</trkpt>
					<trkpt lat="47.910490" lon="6.749380">
						<ele>574</ele>
						<time>2023-07-03T07:57:39Z</time>
					</trkpt>
					<trkpt lat="47.910700" lon="6.749600">
						<ele>571</ele>
						<time>2023-07-03T07:57:43Z</time>
					</trkpt>
					<trkpt lat="47.910810" lon="6.749780">
						<ele>571</ele>
						<time>2023-07-03T07:57:46Z</time>
					</trkpt>
					<trkpt lat="47.911830" lon="6.752180">
						<ele>577</ele>
						<time>2023-07-03T07:58:20Z</time>
					</trkpt>
					<trkpt lat="47.911880" lon="6.752400">
						<ele>578</ele>
						<time>2023-07-03T07:58:23Z</time>
					</trkpt>
					<trkpt lat="47.911910" lon="6.753090">
						<ele>586</ele>
						<time>2023-07-03T07:58:31Z</time>
					</trkpt>
					<trkpt lat="47.912030" lon="6.753510">
						<ele>591</ele>
						<time>2023-07-03T07:58:37Z</time>
					</trkpt>
					<trkpt lat="47.912230" lon="6.754000">
						<ele>596</ele>
						<time>2023-07-03T07:58:43Z</time>
					</trkpt>
					<trkpt lat="47.912420" lon="6.754420">
						<ele>597</ele>
						<time>2023-07-03T07:58:49Z</time>
					</trkpt>
					<trkpt lat="47.912600" lon="6.754750">
						<ele>600</ele>
						<time>2023-07-03T07:58:54Z</time>
					</trkpt>
					<trkpt lat="47.912730" lon="6.755090">
						<ele>603</ele>
						<time>2023-07-03T07:58:59Z</time>
					</trkpt>
					<trkpt lat="47.912770" lon="6.755340">
						<ele>606</ele>
						<time>2023-07-03T07:59:02Z</time>
					</trkpt>
					<trkpt lat="47.912790" lon="6.755800">
						<ele>611</ele>
						<time>2023-07-03T07:59:08Z</time>
					</trkpt>
					<trkpt lat="47.912900" lon="6.756310">
						<ele>615</ele>
						<time>2023-07-03T07:59:14Z</time>
					</trkpt>
					<trkpt lat="47.912910" lon="6.756430">
						<ele>616</ele>
						<time>2023-07-03T07:59:16Z</time>
					</trkpt>
					<trkpt lat="47.912910" lon="6.756550">
						<ele>617</ele>
						<time>2023-07-03T07:59:17Z</time>
					</trkpt>
					<trkpt lat="47.912870" lon="6.756780">
						<ele>621</ele>
						<time>2023-07-03T07:59:20Z</time>
					</trkpt>
					<trkpt lat="47.912860" lon="6.757080">
						<ele>626</ele>
						<time>2023-07-03T07:59:23Z</time>
					</trkpt>
					<trkpt lat="47.912890" lon="6.757260">
						<ele>627</ele>
						<time>2023-07-03T07:59:26Z</time>
					</trkpt>
					<trkpt lat="47.913080" lon="6.757790">
						<ele>630</ele>
						<time>2023-07-03T07:59:33Z</time>
					</trkpt>
					<trkpt lat="47.913150" lon="6.757880">
						<ele>630</ele>
						<time>2023-07-03T07:59:34Z</time>
					</trkpt>
					<trkpt lat="47.913220" lon="6.757950">
						<ele>630</ele>
						<time>2023-07-03T07:59:36Z</time>
					</trkpt>
					<trkpt lat="47.913350" lon="6.757940">
						<ele>628</ele>
						<time>2023-07-03T07:59:38Z</time>
					</trkpt>
					<trkpt lat="47.913540" lon="6.757880">
						<ele>626</ele>
						<time>2023-07-03T07:59:42Z</time>
					</trkpt>
					<trkpt lat="47.913680" lon="6.757910">
						<ele>627</ele>
						<time>2023-07-03T07:59:44Z</time>
					</trkpt>
					<trkpt lat="47.913760" lon="6.758000">
						<ele>628</ele>
						<time>2023-07-03T07:59:46Z</time>
					</trkpt>
					<trkpt lat="47.913830" lon="6.758130">
						<ele>631</ele>
						<time>2023-07-03T07:59:48Z</time>
					</trkpt>
					<trkpt lat="47.913940" lon="6.758490">
						<ele>639</ele>
						<time>2023-07-03T07:59:53Z</time>
					</trkpt>
					<trkpt lat="47.913950" lon="6.758600">
						<ele>642</ele>
						<time>2023-07-03T07:59:54Z</time>
					</trkpt>
					<trkpt lat="47.913930" lon="6.758740">
						<ele>646</ele>
						<time>2023-07-03T07:59:56Z</time>
					</trkpt>
					<trkpt lat="47.913910" lon="6.758790">
						<ele>648</ele>
						<time>2023-07-03T07:59:56Z</time>
					</trkpt>
					<trkpt lat="47.913820" lon="6.758860">
						<ele>650</ele>
						<time>2023-07-03T07:59:58Z</time>
					</trkpt>
					<trkpt lat="47.913720" lon="6.758840">
						<ele>650</ele>
						<time>2023-07-03T08:00:00Z</time>
					</trkpt>
					<trkpt lat="47.913580" lon="6.758730">
						<ele>647</ele>
						<time>2023-07-03T08:00:03Z</time>
					</trkpt>
					<trkpt lat="47.913470" lon="6.758720">
						<ele>647</ele>
						<time>2023-07-03T08:00:05Z</time>
					</trkpt>
					<trkpt lat="47.913150" lon="6.758950">
						<ele>656</ele>
						<time>2023-07-03T08:00:11Z</time>
					</trkpt>
					<trkpt lat="47.913010" lon="6.758920">
						<ele>656</ele>
						<time>2023-07-03T08:00:14Z</time>
					</trkpt>
					<trkpt lat="47.912920" lon="6.758940">
						<ele>658</ele>
						<time>2023-07-03T08:00:15Z</time>
					</trkpt>
					<trkpt lat="47.912730" lon="6.759070">
						<ele>663</ele>
						<time>2023-07-03T08:00:19Z</time>
					</trkpt>
					<trkpt lat="47.912620" lon="6.759060">
						<ele>663</ele>
						<time>2023-07-03T08:00:21Z</time>
					</trkpt>
					<trkpt lat="47.912410" lon="6.758840">
						<ele>661</ele>
						<time>2023-07-03T08:00:25Z</time>
					</trkpt>
					<trkpt lat="47.912170" lon="6.758730">
						<ele>663</ele>
						<time>2023-07-03T08:00:30Z</time>
					</trkpt>
					<trkpt lat="47.911800" lon="6.758500">
						<ele>667</ele>
						<time>2023-07-03T08:00:37Z</time>
					</trkpt>
					<trkpt lat="47.911700" lon="6.758470">
						<ele>669</ele>
						<time>2023-07-03T08:00:39Z</time>
					</trkpt>
					<trkpt lat="47.911630" lon="6.758490">
						<ele>671</ele>
						<time>2023-07-03T08:00:40Z</time>
					</trkpt>
					<trkpt lat="47.911580" lon="6.758540">
						<ele>672</ele>
						<time>2023-07-03T08:00:41Z</time>
					</trkpt>
					<trkpt lat="47.911560" lon="6.758610">
						<ele>673</ele>
						<time>2023-07-03T08:00:42Z</time>
					</trkpt>
					<trkpt lat="47.911620" lon="6.758800">
						<ele>675</ele>
						<time>2023-07-03T08:00:45Z</time>
					</trkpt>
					<trkpt lat="47.911710" lon="6.759010">
						<ele>676</ele>
						<time>2023-07-03T08:00:48Z</time>
					</trkpt>
					<trkpt lat="47.912420" lon="6.760960">
						<ele>697</ele>
						<time>2023-07-03T08:01:14Z</time>
					</trkpt>
					<trkpt lat="47.912530" lon="6.761070">
						<ele>699</ele>
						<time>2023-07-03T08:01:16Z</time>
					</trkpt>
					<trkpt lat="47.912610" lon="6.761090">
						<ele>700</ele>
						<time>2023-07-03T08:01:18Z</time>
					</trkpt>
					<trkpt lat="47.912780" lon="6.760910">
						<ele>699</ele>
						<time>2023-07-03T08:01:22Z</time>
					</trkpt>
					<trkpt lat="47.912960" lon="6.760810">
						<ele>698</ele>
						<time>2023-07-03T08:01:25Z</time>
					</trkpt>
					<trkpt lat="47.913130" lon="6.760790">
						<ele>699</ele>
						<time>2023-07-03T08:01:28Z</time>
					</trkpt>
					<trkpt lat="47.913280" lon="6.760810">
						<ele>701</ele>
						<time>2023-07-03T08:01:31Z</time>
					</trkpt>
					<trkpt lat="47.913400" lon="6.760930">
						<ele>704</ele>
						<time>2023-07-03T08:01:33Z</time>
					</trkpt>
					<trkpt lat="47.913710" lon="6.761430">
						<ele>716</ele>
						<time>2023-07-03T08:01:41Z</time>
					</trkpt>
					<trkpt lat="47.913860" lon="6.761460">
						<ele>717</ele>
						<time>2023-07-03T08:01:44Z</time>
					</trkpt>
					<trkpt lat="47.914180" lon="6.761410">
						<ele>718</ele>
						<time>2023-07-03T08:01:50Z</time>
					</trkpt>
					<trkpt lat="47.914330" lon="6.761360">
						<ele>717</ele>
						<time>2023-07-03T08:01:53Z</time>
					</trkpt>
					<trkpt lat="47.914440" lon="6.761390">
						<ele>718</ele>
						<time>2023-07-03T08:01:55Z</time>
					</trkpt>
					<trkpt lat="47.914630" lon="6.761550">
						<ele>723</ele>
						<time>2023-07-03T08:01:58Z</time>
					</trkpt>
					<trkpt lat="47.914790" lon="6.761610">
						<ele>725</ele>
						<time>2023-07-03T08:02:01Z</time>
					</trkpt>
					<trkpt lat="47.915250" lon="6.761520">
						<ele>722</ele>
						<time>2023-07-03T08:02:10Z</time>
					</trkpt>
					<trkpt lat="47.915360" lon="6.761560">
						<ele>722</ele>
						<time>2023-07-03T08:02:12Z</time>
					</trkpt>
					<trkpt lat="47.915500" lon="6.761710">
						<ele>726</ele>
						<time>2023-07-03T08:02:15Z</time>
					</trkpt>
					<trkpt lat="47.915890" lon="6.762320">
						<ele>739</ele>
						<time>2023-07-03T08:02:25Z</time>
					</trkpt>
					<trkpt lat="47.916090" lon="6.762550">
						<ele>741</ele>
						<time>2023-07-03T08:02:29Z</time>
					</trkpt>
					<trkpt lat="47.916530" lon="6.762860">
						<ele>740</ele>
						<time>2023-07-03T08:02:38Z</time>
					</trkpt>
					<trkpt lat="47.917040" lon="6.763600">
						<ele>750</ele>
						<time>2023-07-03T08:02:51Z</time>
					</trkpt>
					<trkpt lat="47.917510" lon="6.764250">
						<ele>756</ele>
						<time>2023-07-03T08:03:02Z</time>
					</trkpt>
					<trkpt lat="47.917820" lon="6.764600">
						<ele>760</ele>
						<time>2023-07-03T08:03:09Z</time>
					</trkpt>
					<trkpt lat="47.918380" lon="6.765190">
						<ele>764</ele>
						<time>2023-07-03T08:03:21Z</time>
					</trkpt>
					<trkpt lat="47.918510" lon="6.765370">
						<ele>766</ele>
						<time>2023-07-03T08:03:24Z</time>
					</trkpt>
					<trkpt lat="47.918740" lon="6.765900">
						<ele>771</ele>
						<time>2023-07-03T08:03:32Z</time>
					</trkpt>
					<trkpt lat="47.919330" lon="6.766560">
						<ele>772</ele>
						<time>2023-07-03T08:03:45Z</time>
					</trkpt>
					<trkpt lat="47.919450" lon="6.766810">
						<ele>776</ele>
						<time>2023-07-03T08:03:49Z</time>
					</trkpt>
					<trkpt lat="47.919570" lon="6.767190">
						<ele>783</ele>
						<time>2023-07-03T08:03:54Z</time>
					</trkpt>
					<trkpt lat="47.919710" lon="6.767350">
						<ele>786</ele>
						<time>2023-07-03T08:03:57Z</time>
					</trkpt>
					<trkpt lat="47.919860" lon="6.767350">
						<ele>785</ele>
						<time>2023-07-03T08:03:59Z</time>
					</trkpt>
					<trkpt lat="47.920480" lon="6.767230">
						<ele>789</ele>
						<time>2023-07-03T08:04:10Z</time>
					</trkpt>
					<trkpt lat="47.920620" lon="6.767160">
						<ele>790</ele>
						<time>2023-07-03T08:04:13Z</time>
					</trkpt>
					<trkpt lat="47.920720" lon="6.767090">
						<ele>790</ele>
						<time>2023-07-03T08:04:15Z</time>
					</trkpt>
					<trkpt lat="47.920810" lon="6.766980">
						<ele>790</ele>
						<time>2023-07-03T08:04:17Z</time>
					</trkpt>
					<trkpt lat="47.920870" lon="6.766840">
						<ele>789</ele>
						<time>2023-07-03T08:04:19Z</time>
					</trkpt>
					<trkpt lat="47.920910" lon="6.766720">
						<ele>788</ele>
						<time>2023-07-03T08:04:21Z</time>
					</trkpt>
					<trkpt lat="47.921000" lon="6.765790">
						<ele>788</ele>
						<time>2023-07-03T08:04:32Z</time>
					</trkpt>
					<trkpt lat="47.921020" lon="6.765120">
						<ele>790</ele>
						<time>2023-07-03T08:04:40Z</time>
					</trkpt>
					<trkpt lat="47.920990" lon="6.764680">
						<ele>789</ele>
						<time>2023-07-03T08:04:45Z</time>
					</trkpt>
					<trkpt lat="47.921000" lon="6.764510">
						<ele>789</ele>
						<time>2023-07-03T08:04:47Z</time>
					</trkpt>
					<trkpt lat="47.921150" lon="6.764020">
						<ele>793</ele>
						<time>2023-07-03T08:04:54Z</time>
					</trkpt>
					<trkpt lat="47.921440" lon="6.763230">
						<ele>797</ele>
						<time>2023-07-03T08:05:04Z</time>
					</trkpt>
					<trkpt lat="47.921720" lon="6.762610">
						<ele>797</ele>
						<time>2023-07-03T08:05:13Z</time>
					</trkpt>
					<trkpt lat="47.921890" lon="6.762380">
						<ele>795</ele>
						<time>2023-07-03T08:05:17Z</time>
					</trkpt>
					<trkpt lat="47.922060" lon="6.762190">
						<ele>792</ele>
						<time>2023-07-03T08:05:21Z</time>
					</trkpt>
					<trkpt lat="47.922240" lon="6.762050">
						<ele>791</ele>
						<time>2023-07-03T08:05:25Z</time>
					</trkpt>
					<trkpt lat="47.922430" lon="6.761960">
						<ele>791</ele>
						<time>2023-07-03T08:05:28Z</time>
					</trkpt>
					<trkpt lat="47.923130" lon="6.761930">
						<ele>796</ele>
						<time>2023-07-03T08:05:41Z</time>
					</trkpt>
					<trkpt lat="47.924010" lon="6.761780">
						<ele>800</ele>
						<time>2023-07-03T08:05:57Z</time>
					</trkpt>
					<trkpt lat="47.924200" lon="6.761800">
						<ele>801</ele>
						<time>2023-07-03T08:06:00Z</time>
					</trkpt>
					<trkpt lat="47.924520" lon="6.761870">
						<ele>802</ele>
						<time>2023-07-03T08:06:06Z</time>
					</trkpt>
					<trkpt lat="47.924890" lon="6.761950">
						<ele>802</ele>
						<time>2023-07-03T08:06:12Z</time>
					</trkpt>
					<trkpt lat="47.925240" lon="6.761940">
						<ele>801</ele>
						<time>2023-07-03T08:06:19Z</time>
					</trkpt>
					<trkpt lat="47.925380" lon="6.761880">
						<ele>800</ele>
						<time>2023-07-03T08:06:21Z</time>
					</trkpt>
					<trkpt lat="47.925620" lon="6.761660">
						<ele>801</ele>
						<time>2023-07-03T08:06:26Z</time>
					</trkpt>
					<trkpt lat="47.926080" lon="6.761340">
						<ele>805</ele>
						<time>2023-07-03T08:06:35Z</time>
					</trkpt>
					<trkpt lat="47.926280" lon="6.761240">
						<ele>805</ele>
						<time>2023-07-03T08:06:39Z</time>
					</trkpt>
					<trkpt lat="47.926540" lon="6.761160">
						<ele>803</ele>
						<time>2023-07-03T08:06:44Z</time>
					</trkpt>
					<trkpt lat="47.926800" lon="6.761050">
						<ele>802</ele>
						<time>2023-07-03T08:06:49Z</time>
					</trkpt>
					<trkpt lat="47.927230" lon="6.760960">
						<ele>797</ele>
						<time>2023-07-03T08:06:56Z</time>
					</trkpt>
					<trkpt lat="47.927370" lon="6.760880">
						<ele>796</ele>
						<time>2023-07-03T08:06:59Z</time>
					</trkpt>
					<trkpt lat="47.927540" lon="6.760710">
						<ele>797</ele>
						<time>2023-07-03T08:07:03Z</time>
					</trkpt>
					<trkpt lat="47.927780" lon="6.760610">
						<ele>798</ele>
						<time>2023-07-03T08:07:07Z</time>
					</trkpt>
					<trkpt lat="47.928470" lon="6.760380">
						<ele>796</ele>
						<time>2023-07-03T08:07:20Z</time>
					</trkpt>
					<trkpt lat="47.928580" lon="6.760350">
						<ele>796</ele>
						<time>2023-07-03T08:07:22Z</time>
					</trkpt>
					<trkpt lat="47.928640" lon="6.760390">
						<ele>794</ele>
						<time>2023-07-03T08:07:23Z</time>
					</trkpt>
					<trkpt lat="47.928640" lon="6.760430">
						<ele>793</ele>
						<time>2023-07-03T08:07:23Z</time>
					</trkpt>
					<trkpt lat="47.928620" lon="6.760490">
						<ele>792</ele>
						<time>2023-07-03T08:07:24Z</time>
					</trkpt>
					<trkpt lat="47.928580" lon="6.760520">
						<ele>792</ele>
						<time>2023-07-03T08:07:25Z</time>
					</trkpt>
					<trkpt lat="47.928360" lon="6.760640">
						<ele>792</ele>
						<time>2023-07-03T08:07:29Z</time>
					</trkpt>
					<trkpt lat="47.928110" lon="6.760800">
						<ele>790</ele>
						<time>2023-07-03T08:07:34Z</time>
					</trkpt>
					<trkpt lat="47.927640" lon="6.761350">
						<ele>783</ele>
						<time>2023-07-03T08:07:44Z</time>
					</trkpt>
					<trkpt lat="47.927280" lon="6.761820">
						<ele>780</ele>
						<time>2023-07-03T08:07:53Z</time>
					</trkpt>
					<trkpt lat="47.927180" lon="6.762030">
						<ele>779</ele>
						<time>2023-07-03T08:07:56Z</time>
					</trkpt>
					<trkpt lat="47.926960" lon="6.762800">
						<ele>776</ele>
						<time>2023-07-03T08:08:06Z</time>
					</trkpt>
					<trkpt lat="47.926930" lon="6.763020">
						<ele>775</ele>
						<time>2023-07-03T08:08:09Z</time>
					</trkpt>
					<trkpt lat="47.927000" lon="6.763610">
						<ele>770</ele>
						<time>2023-07-03T08:08:16Z</time>
					</trkpt>
					<trkpt lat="47.927070" lon="6.763800">
						<ele>768</ele>
						<time>2023-07-03T08:08:18Z</time>
					</trkpt>
					<trkpt lat="47.927270" lon="6.764180">
						<ele>761</ele>
						<time>2023-07-03T08:08:24Z</time>
					</trkpt>
					<trkpt lat="47.927630" lon="6.765240">
						<ele>755</ele>
						<time>2023-07-03T08:08:38Z</time>
					</trkpt>
					<trkpt lat="47.927920" lon="6.765640">
						<ele>748</ele>
						<time>2023-07-03T08:08:45Z</time>
					</trkpt>
					<trkpt lat="47.927980" lon="6.765780">
						<ele>747</ele>
						<time>2023-07-03T08:08:47Z</time>
					</trkpt>
					<trkpt lat="47.928280" lon="6.766860">
						<ele>742</ele>
						<time>2023-07-03T08:09:01Z</time>
					</trkpt>
					<trkpt lat="47.928640" lon="6.767870">
						<ele>734</ele>
						<time>2023-07-03T08:09:15Z</time>
					</trkpt>
					<trkpt lat="47.929070" lon="6.768600">
						<ele>729</ele>
						<time>2023-07-03T08:09:26Z</time>
					</trkpt>
					<trkpt lat="47.929380" lon="6.768950">
						<ele>726</ele>
						<time>2023-07-03T08:09:33Z</time>
					</trkpt>
					<trkpt lat="47.929620" lon="6.769160">
						<ele>725</ele>
						<time>2023-07-03T08:09:38Z</time>
					</trkpt>
					<trkpt lat="47.929960" lon="6.769380">
						<ele>721</ele>
						<time>2023-07-03T08:09:45Z</time>
					</trkpt>
					<trkpt lat="47.930270" lon="6.769470">
						<ele>716</ele>
						<time>2023-07-03T08:09:51Z</time>
					</trkpt>
					<trkpt lat="47.930780" lon="6.769720">
						<ele>711</ele>
						<time>2023-07-03T08:10:00Z</time>
					</trkpt>
					<trkpt lat="47.931090" lon="6.769960">
						<ele>709</ele>
						<time>2023-07-03T08:10:06Z</time>
					</trkpt>
					<trkpt lat="47.931330" lon="6.770060">
						<ele>705</ele>
						<time>2023-07-03T08:10:11Z</time>
					</trkpt>
					<trkpt lat="47.931670" lon="6.770270">
						<ele>702</ele>
						<time>2023-07-03T08:10:17Z</time>
					</trkpt>
					<trkpt lat="47.932670" lon="6.771220">
						<ele>695</ele>
						<time>2023-07-03T08:10:38Z</time>
					</trkpt>
					<trkpt lat="47.933220" lon="6.771550">
						<ele>689</ele>
						<time>2023-07-03T08:10:49Z</time>
					</trkpt>
					<trkpt lat="47.933590" lon="6.771850">
						<ele>684</ele>
						<time>2023-07-03T08:10:56Z</time>
					</trkpt>
					<trkpt lat="47.934040" lon="6.772420">
						<ele>680</ele>
						<time>2023-07-03T08:11:07Z</time>
					</trkpt>
					<trkpt lat="47.934330" lon="6.772970">
						<ele>683</ele>
						<time>2023-07-03T08:11:15Z</time>
					</trkpt>
					<trkpt lat="47.934490" lon="6.773190">
						<ele>683</ele>
						<time>2023-07-03T08:11:19Z</time>
					</trkpt>
					<trkpt lat="47.934640" lon="6.773390">
						<ele>682</ele>
						<time>2023-07-03T08:11:23Z</time>
					</trkpt>
					<trkpt lat="47.935180" lon="6.773740">
						<ele>672</ele>
						<time>2023-07-03T08:11:33Z</time>
					</trkpt>
					<trkpt lat="47.935780" lon="6.774600">
						<ele>669</ele>
						<time>2023-07-03T08:11:48Z</time>
					</trkpt>
					<trkpt lat="47.936630" lon="6.775940">
						<ele>656</ele>
						<time>2023-07-03T08:12:10Z</time>
					</trkpt>
					<trkpt lat="47.936700" lon="6.776030">
						<ele>655</ele>
						<time>2023-07-03T08:12:12Z</time>
					</trkpt>
					<trkpt lat="47.936770" lon="6.776070">
						<ele>654</ele>
						<time>2023-07-03T08:12:13Z</time>
					</trkpt>
					<trkpt lat="47.936800" lon="6.776040">
						<ele>652</ele>
						<time>2023-07-03T08:12:14Z</time>
					</trkpt>
					<trkpt lat="47.936780" lon="6.775920">
						<ele>651</ele>
						<time>2023-07-03T08:12:15Z</time>
					</trkpt>
					<trkpt lat="47.936640" lon="6.775560">
						<ele>650</ele>
						<time>2023-07-03T08:12:20Z</time>
					</trkpt>
					<trkpt lat="47.936310" lon="6.774410">
						<ele>648</ele>
						<time>2023-07-03T08:12:35Z</time>
					</trkpt>
					<trkpt lat="47.936240" lon="6.773850">
						<ele>642</ele>
						<time>2023-07-03T08:12:42Z</time>
					</trkpt>
					<trkpt lat="47.936120" lon="6.773380">
						<ele>638</ele>
						<time>2023-07-03T08:12:48Z</time>
					</trkpt>
					<trkpt lat="47.935960" lon="6.772970">
						<ele>635</ele>
						<time>2023-07-03T08:12:53Z</time>
					</trkpt>
					<trkpt lat="47.935780" lon="6.772430">
						<ele>630</ele>
						<time>2023-07-03T08:13:01Z</time>
					</trkpt>
					<trkpt lat="47.935470" lon="6.771740">
						<ele>627</ele>
						<time>2023-07-03T08:13:11Z</time>
					</trkpt>
					<trkpt lat="47.935180" lon="6.770900">
						<ele>627</ele>
						<time>2023-07-03T08:13:22Z</time>
					</trkpt>
					<trkpt lat="47.935000" lon="6.770410">
						<ele>628</ele>
						<time>2023-07-03T08:13:28Z</time>
					</trkpt>
					<trkpt lat="47.934980" lon="6.770130">
						<ele>626</ele>
						<time>2023-07-03T08:13:32Z</time>
					</trkpt>
					<trkpt lat="47.935110" lon="6.769290">
						<ele>616</ele>
						<time>2023-07-03T08:13:42Z</time>
					</trkpt>
					<trkpt lat="47.935130" lon="6.769000">
						<ele>614</ele>
						<time>2023-07-03T08:13:46Z</time>
					</trkpt>
					<trkpt lat="47.935110" lon="6.768570">
						<ele>611</ele>
						<time>2023-07-03T08:13:51Z</time>
					</trkpt>
					<trkpt lat="47.935080" lon="6.768350">
						<ele>610</ele>
						<time>2023-07-03T08:13:53Z</time>
					</trkpt>
					<trkpt lat="47.935080" lon="6.768100">
						<ele>611</ele>
						<time>2023-07-03T08:13:56Z</time>
					</trkpt>
					<trkpt lat="47.935090" lon="6.768040">
						<ele>611</ele>
						<time>2023-07-03T08:13:57Z</time>
					</trkpt>
					<trkpt lat="47.935130" lon="6.767970">
						<ele>611</ele>
						<time>2023-07-03T08:13:58Z</time>
					</trkpt>
					<trkpt lat="47.935160" lon="6.767940">
						<ele>610</ele>
						<time>2023-07-03T08:13:59Z</time>
					</trkpt>
					<trkpt lat="47.935240" lon="6.767930">
						<ele>610</ele>
						<time>2023-07-03T08:14:00Z</time>
					</trkpt>
					<trkpt lat="47.935420" lon="6.768120">
						<ele>607</ele>
						<time>2023-07-03T08:14:04Z</time>
					</trkpt>
					<trkpt lat="47.935500" lon="6.768170">
						<ele>606</ele>
						<time>2023-07-03T08:14:06Z</time>
					</trkpt>
					<trkpt lat="47.935910" lon="6.768150">
						<ele>602</ele>
						<time>2023-07-03T08:14:13Z</time>
					</trkpt>
					<trkpt lat="47.936060" lon="6.768170">
						<ele>601</ele>
						<time>2023-07-03T08:14:16Z</time>
					</trkpt>
					<trkpt lat="47.936230" lon="6.768150">
						<ele>600</ele>
						<time>2023-07-03T08:14:19Z</time>
					</trkpt>
					<trkpt lat="47.936740" lon="6.767960">
						<ele>598</ele>
						<time>2023-07-03T08:14:28Z</time>
					</trkpt>
					<trkpt lat="47.937420" lon="6.767660">
						<ele>593</ele>
						<time>2023-07-03T08:14:41Z</time>
					</trkpt>
					<trkpt lat="47.937890" lon="6.767340">
						<ele>590</ele>
						<time>2023-07-03T08:14:50Z</time>
					</trkpt>
					<trkpt lat="47.938060" lon="6.767260">
						<ele>589</ele>
						<time>2023-07-03T08:14:53Z</time>
					</trkpt>
					<trkpt lat="47.938570" lon="6.767260">
						<ele>582</ele>
						<time>2023-07-03T08:15:02Z</time>
					</trkpt>
					<trkpt lat="47.938770" lon="6.767140">
						<ele>579</ele>
						<time>2023-07-03T08:15:06Z</time>
					</trkpt>
					<trkpt lat="47.938940" lon="6.766980">
						<ele>577</ele>
						<time>2023-07-03T08:15:10Z</time>
					</trkpt>
					<trkpt lat="47.939100" lon="6.766780">
						<ele>576</ele>
						<time>2023-07-03T08:15:13Z</time>
					</trkpt>
					<trkpt lat="47.939250" lon="6.766660">
						<ele>574</ele>
						<time>2023-07-03T08:15:16Z</time>
					</trkpt>
					<trkpt lat="47.939530" lon="6.766560">
						<ele>572</ele>
						<time>2023-07-03T08:15:21Z</time>
					</trkpt>
					<trkpt lat="47.939620" lon="6.766560">
						<ele>571</ele>
						<time>2023-07-03T08:15:23Z</time>
					</trkpt>
					<trkpt lat="47.939660" lon="6.766580">
						<ele>570</ele>
						<time>2023-07-03T08:15:24Z</time>
					</trkpt>
					<trkpt lat="47.939690" lon="6.766620">
						<ele>570</ele>
						<time>2023-07-03T08:15:24Z</time>
					</trkpt>
					<trkpt lat="47.939690" lon="6.766700">
						<ele>569</ele>
						<time>2023-07-03T08:15:25Z</time>
					</trkpt>
					<trkpt lat="47.939620" lon="6.766830">
						<ele>569</ele>
						<time>2023-07-03T08:15:27Z</time>
					</trkpt>
					<trkpt lat="47.939400" lon="6.767110">
						<ele>570</ele>
						<time>2023-07-03T08:15:33Z</time>
					</trkpt>
					<trkpt lat="47.939300" lon="6.767270">
						<ele>570</ele>
						<time>2023-07-03T08:15:35Z</time>
					</trkpt>
					<trkpt lat="47.939130" lon="6.767640">
						<ele>569</ele>
						<time>2023-07-03T08:15:41Z</time>
					</trkpt>
					<trkpt lat="47.939000" lon="6.768040">
						<ele>566</ele>
						<time>2023-07-03T08:15:46Z</time>
					</trkpt>
					<trkpt lat="47.938610" lon="6.768730">
						<ele>568</ele>
						<time>2023-07-03T08:15:57Z</time>
					</trkpt>
					<trkpt lat="47.938350" lon="6.769260">
						<ele>570</ele>
						<time>2023-07-03T08:16:04Z</time>
					</trkpt>
					<trkpt lat="47.938250" lon="6.769520">
						<ele>569</ele>
						<time>2023-07-03T08:16:08Z</time>
					</trkpt>
					<trkpt lat="47.938230" lon="6.769790">
						<ele>566</ele>
						<time>2023-07-03T08:16:11Z</time>
					</trkpt>
					<trkpt lat="47.938280" lon="6.769910">
						<ele>564</ele>
						<time>2023-07-03T08:16:13Z</time>
					</trkpt>
					<trkpt lat="47.938460" lon="6.770090">
						<ele>559</ele>
						<time>2023-07-03T08:16:17Z</time>
					</trkpt>
					<trkpt lat="47.938690" lon="6.770390">
						<ele>554</ele>
						<time>2023-07-03T08:16:22Z</time>
					</trkpt>
					<trkpt lat="47.938860" lon="6.770660">
						<ele>551</ele>
						<time>2023-07-03T08:16:27Z</time>
					</trkpt>
					<trkpt lat="47.939020" lon="6.771020">
						<ele>549</ele>
						<time>2023-07-03T08:16:32Z</time>
					</trkpt>
					<trkpt lat="47.939080" lon="6.771190">
						<ele>548</ele>
						<time>2023-07-03T08:16:34Z</time>
					</trkpt>
					<trkpt lat="47.939170" lon="6.771640">
						<ele>550</ele>
						<time>2023-07-03T08:16:40Z</time>
					</trkpt>
					<trkpt lat="47.939300" lon="6.772100">
						<ele>547</ele>
						<time>2023-07-03T08:16:46Z</time>
					</trkpt>
					<trkpt lat="47.939510" lon="6.772750">
						<ele>542</ele>
						<time>2023-07-03T08:16:54Z</time>
					</trkpt>
					<trkpt lat="47.939690" lon="6.773130">
						<ele>537</ele>
						<time>2023-07-03T08:17:00Z</time>
					</trkpt>
					<trkpt lat="47.939890" lon="6.773460">
						<ele>531</ele>
						<time>2023-07-03T08:17:05Z</time>
					</trkpt>
					<trkpt lat="47.940010" lon="6.773730">
						<ele>527</ele>
						<time>2023-07-03T08:17:09Z</time>
					</trkpt>
					<trkpt lat="47.940120" lon="6.774260">
						<ele>524</ele>
						<time>2023-07-03T08:17:16Z</time>
					</trkpt>
					<trkpt lat="47.940220" lon="6.774640">
						<ele>518</ele>
						<time>2023-07-03T08:17:20Z</time>
					</trkpt>
					<trkpt lat="47.940400" lon="6.775020">
						<ele>512</ele>
						<time>2023-07-03T08:17:26Z</time>
					</trkpt>
					<trkpt lat="47.940590" lon="6.775640">
						<ele>510</ele>
						<time>2023-07-03T08:17:34Z</time>
					</trkpt>
					<trkpt lat="47.940680" lon="6.775860">
						<ele>510</ele>
						<time>2023-07-03T08:17:37Z</time>
					</trkpt>
					<trkpt lat="47.940970" lon="6.776320">
						<ele>510</ele>
						<time>2023-07-03T08:17:45Z</time>
					</trkpt>
					<trkpt lat="47.941140" lon="6.776770">
						<ele>514</ele>
						<time>2023-07-03T08:17:51Z</time>
					</trkpt>
					<trkpt lat="47.941240" lon="6.777330">
						<ele>518</ele>
						<time>2023-07-03T08:17:58Z</time>
					</trkpt>
					<trkpt lat="47.941320" lon="6.777440">
						<ele>518</ele>
						<time>2023-07-03T08:18:00Z</time>
					</trkpt>
					<trkpt lat="47.941380" lon="6.777460">
						<ele>518</ele>
						<time>2023-07-03T08:18:01Z</time>
					</trkpt>
					<trkpt lat="47.941420" lon="6.777440">
						<ele>517</ele>
						<time>2023-07-03T08:18:02Z</time>
					</trkpt>
					<trkpt lat="47.941450" lon="6.777380">
						<ele>516</ele>
						<time>2023-07-03T08:18:02Z</time>
					</trkpt>
					<trkpt lat="47.941460" lon="6.777270">
						<ele>516</ele>
						<time>2023-07-03T08:18:04Z</time>
					</trkpt>
					<trkpt lat="47.941430" lon="6.776380">
						<ele>508</ele>
						<time>2023-07-03T08:18:14Z</time>
					</trkpt>
					<trkpt lat="47.941450" lon="6.775840">
						<ele>502</ele>
						<time>2023-07-03T08:18:21Z</time>
					</trkpt>
					<trkpt lat="47.941440" lon="6.775460">
						<ele>498</ele>
						<time>2023-07-03T08:18:25Z</time>
					</trkpt>
					<trkpt lat="47.941460" lon="6.774250">
						<ele>493</ele>
						<time>2023-07-03T08:18:40Z</time>
					</trkpt>
					<trkpt lat="47.941500" lon="6.773880">
						<ele>493</ele>
						<time>2023-07-03T08:18:44Z</time>
					</trkpt>
					<trkpt lat="47.941680" lon="6.773360">
						<ele>491</ele>
						<time>2023-07-03T08:18:51Z</time>
					</trkpt>
					<trkpt lat="47.942000" lon="6.772780">
						<ele>485</ele>
						<time>2023-07-03T08:19:00Z</time>
					</trkpt>
					<trkpt lat="47.942370" lon="6.772170">
						<ele>478</ele>
						<time>2023-07-03T08:19:10Z</time>
					</trkpt>
					<trkpt lat="47.942450" lon="6.771960">
						<ele>476</ele>
						<time>2023-07-03T08:19:13Z</time>
					</trkpt>
					<trkpt lat="47.942590" lon="6.771470">
						<ele>475</ele>
						<time>2023-07-03T08:19:19Z</time>
					</trkpt>
					<trkpt lat="47.942610" lon="6.771370">
						<ele>476</ele>
						<time>2023-07-03T08:19:20Z</time>
					</trkpt>
					<trkpt lat="47.942650" lon="6.771280">
						<ele>476</ele>
						<time>2023-07-03T08:19:22Z</time>
					</trkpt>
					<trkpt lat="47.943070" lon="6.770660">
						<ele>476</ele>
						<time>2023-07-03T08:19:32Z</time>
					</trkpt>
					<trkpt lat="47.943720" lon="6.769850">
						<ele>473</ele>
						<time>2023-07-03T08:19:47Z</time>
					</trkpt>
					<trkpt lat="47.944040" lon="6.769550">
						<ele>471</ele>
						<time>2023-07-03T08:19:54Z</time>
					</trkpt>
					<trkpt lat="47.944340" lon="6.768940">
						<ele>474</ele>
						<time>2023-07-03T08:20:03Z</time>
					</trkpt>
					<trkpt lat="47.944450" lon="6.768830">
						<ele>473</ele>
						<time>2023-07-03T08:20:05Z</time>
					</trkpt>
					<trkpt lat="47.944630" lon="6.768740">
						<ele>470</ele>
						<time>2023-07-03T08:20:09Z</time>
					</trkpt>
					<trkpt lat="47.944820" lon="6.768600">
						<ele>466</ele>
						<time>2023-07-03T08:20:13Z</time>
					</trkpt>
					<trkpt lat="47.944870" lon="6.768580">
						<ele>464</ele>
						<time>2023-07-03T08:20:13Z</time>
					</trkpt>
					<trkpt lat="47.945020" lon="6.768630">
						<ele>460</ele>
						<time>2023-07-03T08:20:16Z</time>
					</trkpt>
					<trkpt lat="47.945050" lon="6.768650">
						<ele>460</ele>
						<time>2023-07-03T08:20:17Z</time>
					</trkpt>
					<trkpt lat="47.945250" lon="6.768740">
						<ele>460</ele>
						<time>2023-07-03T08:20:21Z</time>
					</trkpt>
					<trkpt lat="47.945370" lon="6.768970">
						<ele>460</ele>
						<time>2023-07-03T08:20:24Z</time>
					</trkpt>
					<trkpt lat="47.945500" lon="6.769060">
						<ele>460</ele>
						<time>2023-07-03T08:20:27Z</time>
					</trkpt>
					<trkpt lat="47.945450" lon="6.769130">
						<ele>460</ele>
						<time>2023-07-03T08:20:28Z</time>
					</trkpt>
					<trkpt lat="47.945420" lon="6.769680">
						<ele>460</ele>
						<time>2023-07-03T08:20:34Z</time>
					</trkpt>
					<trkpt lat="47.945440" lon="6.769750">
						<ele>460</ele>
						<time>2023-07-03T08:20:35Z</time>
					</trkpt>
					<trkpt lat="47.945490" lon="6.769790">
						<ele>460</ele>
						<time>2023-07-03T08:20:36Z</time>
					</trkpt>
					<trkpt lat="47.945710" lon="6.769860">
						<ele>461</ele>
						<time>2023-07-03T08:20:40Z</time>
					</trkpt>
					<trkpt lat="47.945770" lon="6.769910">
						<ele>461</ele>
						<time>2023-07-03T08:20:41Z</time>
					</trkpt>
					<trkpt lat="47.945800" lon="6.770000">
						<ele>461</ele>
						<time>2023-07-03T08:20:43Z</time>
					</trkpt>
					<trkpt lat="47.945810" lon="6.770160">
						<ele>461</ele>
						<time>2023-07-03T08:20:45Z</time>
					</trkpt>
					<trkpt lat="47.945740" lon="6.771850">
						<ele>459</ele>
						<time>2023-07-03T08:21:05Z</time>
					</trkpt>
					<trkpt lat="47.945670" lon="6.772820">
						<ele>459</ele>
						<time>2023-07-03T08:21:16Z</time>
					</trkpt>
					<trkpt lat="47.945600" lon="6.773320">
						<ele>458</ele>
						<time>2023-07-03T08:21:22Z</time>
					</trkpt>
					<trkpt lat="47.945530" lon="6.773520">
						<ele>459</ele>
						<time>2023-07-03T08:21:25Z</time>
					</trkpt>
					<trkpt lat="47.945390" lon="6.773810">
						<ele>459</ele>
						<time>2023-07-03T08:21:29Z</time>
					</trkpt>
					<trkpt lat="47.945360" lon="6.773920">
						<ele>459</ele>
						<time>2023-07-03T08:21:31Z</time>
					</trkpt>
					<trkpt lat="47.945310" lon="6.774480">
						<ele>460</ele>
						<time>2023-07-03T08:21:38Z</time>
					</trkpt>
					<trkpt lat="47.945240" lon="6.776000">
						<ele>461</ele>
						<time>2023-07-03T08:21:56Z</time>
					</trkpt>
					<trkpt lat="47.945190" lon="6.777570">
						<ele>465</ele>
						<time>2023-07-03T08:22:14Z</time>
					</trkpt>
					<trkpt lat="47.945190" lon="6.778110">
						<ele>466</ele>
						<time>2023-07-03T08:22:21Z</time>
					</trkpt>
					<trkpt lat="47.945190" lon="6.778870">
						<ele>466</ele>
						<time>2023-07-03T08:22:30Z</time>
					</trkpt>
					<trkpt lat="47.945270" lon="6.782160">
						<ele>467</ele>
						<time>2023-07-03T08:23:09Z</time>
					</trkpt>
					<trkpt lat="47.945270" lon="6.782250">
						<ele>468</ele>
						<time>2023-07-03T08:23:10Z</time>
					</trkpt>
					<trkpt lat="47.945440" lon="6.787160">
						<ele>472</ele>
						<time>2023-07-03T08:24:09Z</time>
					</trkpt>
					<trkpt lat="47.945530" lon="6.788250">
						<ele>471</ele>
						<time>2023-07-03T08:24:22Z</time>
					</trkpt>
					<trkpt lat="47.945850" lon="6.791300">
						<ele>472</ele>
						<time>2023-07-03T08:24:59Z</time>
					</trkpt>
					<trkpt lat="47.945920" lon="6.791750">
						<ele>473</ele>
						<time>2023-07-03T08:25:04Z</time>
					</trkpt>
					<trkpt lat="47.946240" lon="6.792990">
						<ele>479</ele>
						<time>2023-07-03T08:25:20Z</time>
					</trkpt>
					<trkpt lat="47.946330" lon="6.793390">
						<ele>480</ele>
						<time>2023-07-03T08:25:25Z</time>
					</trkpt>
					<trkpt lat="47.946420" lon="6.794040">
						<ele>480</ele>
						<time>2023-07-03T08:25:33Z</time>
					</trkpt>
					<trkpt lat="47.946460" lon="6.794460">
						<ele>480</ele>
						<time>2023-07-03T08:25:38Z</time>
					</trkpt>
					<trkpt lat="47.946490" lon="6.796010">
						<ele>479</ele>
						<time>2023-07-03T08:25:57Z</time>
					</trkpt>
					<trkpt lat="47.946530" lon="6.796360">
						<ele>478</ele>
						<time>2023-07-03T08:26:01Z</time>
					</trkpt>
					<trkpt lat="47.946680" lon="6.797340">
						<ele>477</ele>
						<time>2023-07-03T08:26:13Z</time>
					</trkpt>
					<trkpt lat="47.946820" lon="6.798010">
						<ele>479</ele>
						<time>2023-07-03T08:26:21Z</time>
					</trkpt>
					<trkpt lat="47.946840" lon="6.798070">
						<ele>479</ele>
						<time>2023-07-03T08:26:22Z</time>
					</trkpt>
					<trkpt lat="47.947230" lon="6.800070">
						<ele>483</ele>
						<time>2023-07-03T08:26:47Z</time>
					</trkpt>
					<trkpt lat="47.947240" lon="6.800120">
						<ele>483</ele>
						<time>2023-07-03T08:26:47Z</time>
					</trkpt>
					<trkpt lat="47.947350" lon="6.800620">
						<ele>485</ele>
						<time>2023-07-03T08:26:54Z</time>
					</trkpt>
					<trkpt lat="47.947600" lon="6.801500">
						<ele>486</ele>
						<time>2023-07-03T08:27:05Z</time>
					</trkpt>
					<trkpt lat="47.948010" lon="6.802630">
						<ele>485</ele>
						<time>2023-07-03T08:27:20Z</time>
					</trkpt>
					<trkpt lat="47.949060" lon="6.805220">
						<ele>487</ele>
						<time>2023-07-03T08:27:56Z</time>
					</trkpt>
					<trkpt lat="47.949270" lon="6.805960">
						<ele>488</ele>
						<time>2023-07-03T08:28:06Z</time>
					</trkpt>
					<trkpt lat="47.949390" lon="6.806480">
						<ele>488</ele>
						<time>2023-07-03T08:28:13Z</time>
					</trkpt>
					<trkpt lat="47.949510" lon="6.807070">
						<ele>490</ele>
						<time>2023-07-03T08:28:20Z</time>
					</trkpt>
					<trkpt lat="47.950050" lon="6.809300">
						<ele>496</ele>
						<time>2023-07-03T08:28:48Z</time>
					</trkpt>
					<trkpt lat="47.950720" lon="6.811620">
						<ele>496</ele>
						<time>2023-07-03T08:29:18Z</time>
					</trkpt>
					<trkpt lat="47.950920" lon="6.812210">
						<ele>495</ele>
						<time>2023-07-03T08:29:26Z</time>
					</trkpt>
					<trkpt lat="47.951280" lon="6.813050">
						<ele>493</ele>
						<time>2023-07-03T08:29:38Z</time>
					</trkpt>
					<trkpt lat="47.951680" lon="6.813730">
						<ele>492</ele>
						<time>2023-07-03T08:29:49Z</time>
					</trkpt>
					<trkpt lat="47.951890" lon="6.814040">
						<ele>492</ele>
						<time>2023-07-03T08:29:54Z</time>
					</trkpt>
					<trkpt lat="47.952300" lon="6.814160">
						<ele>492</ele>
						<time>2023-07-03T08:30:02Z</time>
					</trkpt>
					<trkpt lat="47.952360" lon="6.814240">
						<ele>493</ele>
						<time>2023-07-03T08:30:03Z</time>
					</trkpt>
					<trkpt lat="47.952640" lon="6.814870">
						<ele>496</ele>
						<time>2023-07-03T08:30:12Z</time>
					</trkpt>
					<trkpt lat="47.953840" lon="6.816240">
						<ele>502</ele>
						<time>2023-07-03T08:30:39Z</time>
					</trkpt>
					<trkpt lat="47.954050" lon="6.816530">
						<ele>502</ele>
						<time>2023-07-03T08:30:44Z</time>
					</trkpt>
					<trkpt lat="47.954250" lon="6.816860">
						<ele>501</ele>
						<time>2023-07-03T08:30:49Z</time>
					</trkpt>
					<trkpt lat="47.954540" lon="6.817440">
						<ele>498</ele>
						<time>2023-07-03T08:30:58Z</time>
					</trkpt>
					<trkpt lat="47.954670" lon="6.817750">
						<ele>497</ele>
						<time>2023-07-03T08:31:02Z</time>
					</trkpt>
					<trkpt lat="47.954950" lon="6.818580">
						<ele>495</ele>
						<time>2023-07-03T08:31:13Z</time>
					</trkpt>
					<trkpt lat="47.955260" lon="6.819890">
						<ele>496</ele>
						<time>2023-07-03T08:31:30Z</time>
					</trkpt>
					<trkpt lat="47.955460" lon="6.820840">
						<ele>497</ele>
						<time>2023-07-03T08:31:42Z</time>
					</trkpt>
					<trkpt lat="47.955680" lon="6.821800">
						<ele>499</ele>
						<time>2023-07-03T08:31:54Z</time>
					</trkpt>
					<trkpt lat="47.956100" lon="6.823080">
						<ele>500</ele>
						<time>2023-07-03T08:32:11Z</time>
					</trkpt>
					<trkpt lat="47.956180" lon="6.823300">
						<ele>501</ele>
						<time>2023-07-03T08:32:14Z</time>
					</trkpt>
					<trkpt lat="47.956190" lon="6.823380">
						<ele>501</ele>
						<time>2023-07-03T08:32:15Z</time>
					</trkpt>
					<trkpt lat="47.956150" lon="6.823740">
						<ele>501</ele>
						<time>2023-07-03T08:32:19Z</time>
					</trkpt>
					<trkpt lat="47.956300" lon="6.824220">
						<ele>501</ele>
						<time>2023-07-03T08:32:25Z</time>
					</trkpt>
					<trkpt lat="47.956620" lon="6.825070">
						<ele>501</ele>
						<time>2023-07-03T08:32:37Z</time>
					</trkpt>
					<trkpt lat="47.956770" lon="6.825270">
						<ele>501</ele>
						<time>2023-07-03T08:32:41Z</time>
					</trkpt>
					<trkpt lat="47.956870" lon="6.825480">
						<ele>501</ele>
						<time>2023-07-03T08:32:44Z</time>
					</trkpt>
					<trkpt lat="47.957060" lon="6.825980">
						<ele>502</ele>
						<time>2023-07-03T08:32:51Z</time>
					</trkpt>
					<trkpt lat="47.957350" lon="6.826860">
						<ele>504</ele>
						<time>2023-07-03T08:33:02Z</time>
					</trkpt>
					<trkpt lat="47.957370" lon="6.826940">
						<ele>505</ele>
						<time>2023-07-03T08:33:03Z</time>
					</trkpt>
					<trkpt lat="47.957360" lon="6.826980">
						<ele>505</ele>
						<time>2023-07-03T08:33:04Z</time>
					</trkpt>
					<trkpt lat="47.957330" lon="6.827010">
						<ele>505</ele>
						<time>2023-07-03T08:33:04Z</time>
					</trkpt>
					<trkpt lat="47.957590" lon="6.827730">
						<ele>506</ele>
						<time>2023-07-03T08:33:14Z</time>
					</trkpt>
					<trkpt lat="47.957740" lon="6.827600">
						<ele>505</ele>
						<time>2023-07-03T08:33:17Z</time>
					</trkpt>
					<trkpt lat="47.958080" lon="6.827250">
						<ele>504</ele>
						<time>2023-07-03T08:33:25Z</time>
					</trkpt>
					<trkpt lat="47.958870" lon="6.826400">
						<ele>499</ele>
						<time>2023-07-03T08:33:42Z</time>
					</trkpt>
					<trkpt lat="47.959070" lon="6.826230">
						<ele>498</ele>
						<time>2023-07-03T08:33:46Z</time>
					</trkpt>
					<trkpt lat="47.959260" lon="6.826140">
						<ele>498</ele>
						<time>2023-07-03T08:33:50Z</time>
					</trkpt>
					<trkpt lat="47.959430" lon="6.826150">
						<ele>499</ele>
						<time>2023-07-03T08:33:53Z</time>
					</trkpt>
					<trkpt lat="47.959530" lon="6.826170">
						<ele>499</ele>
						<time>2023-07-03T08:33:54Z</time>
					</trkpt>
					<trkpt lat="47.959670" lon="6.826200">
						<ele>500</ele>
						<time>2023-07-03T08:33:57Z</time>
					</trkpt>
					<trkpt lat="47.959950" lon="6.826240">
						<ele>500</ele>
						<time>2023-07-03T08:34:02Z</time>
					</trkpt>
					<trkpt lat="47.960100" lon="6.826300">
						<ele>503</ele>
						<time>2023-07-03T08:34:05Z</time>
					</trkpt>
					<trkpt lat="47.960170" lon="6.826400">
						<ele>504</ele>
						<time>2023-07-03T08:34:06Z</time>
					</trkpt>
					<trkpt lat="47.961670" lon="6.829250">
						<ele>510</ele>
						<time>2023-07-03T08:34:50Z</time>
					</trkpt>
					<trkpt lat="47.961780" lon="6.829610">
						<ele>512</ele>
						<time>2023-07-03T08:34:54Z</time>
					</trkpt>
					<trkpt lat="47.961820" lon="6.829970">
						<ele>511</ele>
						<time>2023-07-03T08:34:59Z</time>
					</trkpt>
					<trkpt lat="47.961900" lon="6.831920">
						<ele>510</ele>
						<time>2023-07-03T08:35:22Z</time>
					</trkpt>
					<trkpt lat="47.961940" lon="6.832170">
						<ele>510</ele>
						<time>2023-07-03T08:35:25Z</time>
					</trkpt>
					<trkpt lat="47.962000" lon="6.832400">
						<ele>509</ele>
						<time>2023-07-03T08:35:28Z</time>
					</trkpt>
					<trkpt lat="47.962150" lon="6.832740">
						<ele>509</ele>
						<time>2023-07-03T08:35:33Z</time>
					</trkpt>
					<trkpt lat="47.962350" lon="6.832930">
						<ele>510</ele>
						<time>2023-07-03T08:35:37Z</time>
					</trkpt>
					<trkpt lat="47.964090" lon="6.834510">
						<ele>515</ele>
						<time>2023-07-03T08:36:13Z</time>
					</trkpt>
					<trkpt lat="47.964160" lon="6.834610">
						<ele>515</ele>
						<time>2023-07-03T08:36:15Z</time>
					</trkpt>
					<trkpt lat="47.964300" lon="6.835030">
						<ele>515</ele>
						<time>2023-07-03T08:36:21Z</time>
					</trkpt>
					<trkpt lat="47.964770" lon="6.834500">
						<ele>516</ele>
						<time>2023-07-03T08:36:31Z</time>
					</trkpt>
					<trkpt lat="47.965010" lon="6.834210">
						<ele>517</ele>
						<time>2023-07-03T08:36:37Z</time>
					</trkpt>
					<trkpt lat="47.965090" lon="6.834000">
						<ele>519</ele>
						<time>2023-07-03T08:36:39Z</time>
					</trkpt>
					<trkpt lat="47.965130" lon="6.833460">
						<ele>524</ele>
						<time>2023-07-03T08:36:46Z</time>
					</trkpt>
					<trkpt lat="47.965220" lon="6.832940">
						<ele>528</ele>
						<time>2023-07-03T08:36:52Z</time>
					</trkpt>
					<trkpt lat="47.965230" lon="6.832750">
						<ele>529</ele>
						<time>2023-07-03T08:36:55Z</time>
					</trkpt>
					<trkpt lat="47.965200" lon="6.832650">
						<ele>530</ele>
						<time>2023-07-03T08:36:56Z</time>
					</trkpt>
					<trkpt lat="47.965140" lon="6.832530">
						<ele>531</ele>
						<time>2023-07-03T08:36:58Z</time>
					</trkpt>
					<trkpt lat="47.964900" lon="6.832170">
						<ele>533</ele>
						<time>2023-07-03T08:37:04Z</time>
					</trkpt>
					<trkpt lat="47.964830" lon="6.832020">
						<ele>534</ele>
						<time>2023-07-03T08:37:06Z</time>
					</trkpt>
					<trkpt lat="47.964780" lon="6.831700">
						<ele>536</ele>
						<time>2023-07-03T08:37:10Z</time>
					</trkpt>
					<trkpt lat="47.964810" lon="6.831490">
						<ele>538</ele>
						<time>2023-07-03T08:37:12Z</time>
					</trkpt>
					<trkpt lat="47.964880" lon="6.831360">
						<ele>540</ele>
						<time>2023-07-03T08:37:14Z</time>
					</trkpt>
					<trkpt lat="47.965110" lon="6.831150">
						<ele>544</ele>
						<time>2023-07-03T08:37:19Z</time>
					</trkpt>
					<trkpt lat="47.966190" lon="6.830430">
						<ele>556</ele>
						<time>2023-07-03T08:37:40Z</time>
					</trkpt>
					<trkpt lat="47.966610" lon="6.830230">
						<ele>560</ele>
						<time>2023-07-03T08:37:48Z</time>
					</trkpt>
					<trkpt lat="47.967130" lon="6.829850">
						<ele>566</ele>
						<time>2023-07-03T08:37:58Z</time>
					</trkpt>
					<trkpt lat="47.967580" lon="6.829490">
						<ele>571</ele>
						<time>2023-07-03T08:38:07Z</time>
					</trkpt>
					<trkpt lat="47.967800" lon="6.829330">
						<ele>573</ele>
						<time>2023-07-03T08:38:12Z</time>
					</trkpt>
					<trkpt lat="47.967970" lon="6.829160">
						<ele>575</ele>
						<time>2023-07-03T08:38:15Z</time>
					</trkpt>
					<trkpt lat="47.968150" lon="6.828890">
						<ele>579</ele>
						<time>2023-07-03T08:38:20Z</time>
					</trkpt>
					<trkpt lat="47.968420" lon="6.828740">
						<ele>580</ele>
						<time>2023-07-03T08:38:25Z</time>
					</trkpt>
					<trkpt lat="47.968530" lon="6.828600">
						<ele>582</ele>
						<time>2023-07-03T08:38:28Z</time>
					</trkpt>
					<trkpt lat="47.968710" lon="6.828120">
						<ele>590</ele>
						<time>2023-07-03T08:38:34Z</time>
					</trkpt>
					<trkpt lat="47.968860" lon="6.827840">
						<ele>593</ele>
						<time>2023-07-03T08:38:38Z</time>
					</trkpt>
					<trkpt lat="47.969550" lon="6.826780">
						<ele>603</ele>
						<time>2023-07-03T08:38:56Z</time>
					</trkpt>
					<trkpt lat="47.969740" lon="6.826360">
						<ele>607</ele>
						<time>2023-07-03T08:39:02Z</time>
					</trkpt>
					<trkpt lat="47.969890" lon="6.826110">
						<ele>608</ele>
						<time>2023-07-03T08:39:06Z</time>
					</trkpt>
					<trkpt lat="47.970400" lon="6.825420">
						<ele>616</ele>
						<time>2023-07-03T08:39:18Z</time>
					</trkpt>
					<trkpt lat="47.970490" lon="6.825240">
						<ele>618</ele>
						<time>2023-07-03T08:39:21Z</time>
					</trkpt>
					<trkpt lat="47.970870" lon="6.824140">
						<ele>632</ele>
						<time>2023-07-03T08:39:36Z</time>
					</trkpt>
					<trkpt lat="47.971010" lon="6.824000">
						<ele>635</ele>
						<time>2023-07-03T08:39:39Z</time>
					</trkpt>
					<trkpt lat="47.971170" lon="6.824040">
						<ele>635</ele>
						<time>2023-07-03T08:39:42Z</time>
					</trkpt>
					<trkpt lat="47.971480" lon="6.824190">
						<ele>635</ele>
						<time>2023-07-03T08:39:47Z</time>
					</trkpt>
					<trkpt lat="47.972130" lon="6.824240">
						<ele>638</ele>
						<time>2023-07-03T08:39:59Z</time>
					</trkpt>
					<trkpt lat="47.972610" lon="6.824190">
						<ele>643</ele>
						<time>2023-07-03T08:40:08Z</time>
					</trkpt>
					<trkpt lat="47.973570" lon="6.824230">
						<ele>650</ele>
						<time>2023-07-03T08:40:25Z</time>
					</trkpt>
					<trkpt lat="47.974340" lon="6.824120">
						<ele>662</ele>
						<time>2023-07-03T08:40:38Z</time>
					</trkpt>
					<trkpt lat="47.974660" lon="6.824170">
						<ele>664</ele>
						<time>2023-07-03T08:40:44Z</time>
					</trkpt>
					<trkpt lat="47.974810" lon="6.824140">
						<ele>667</ele>
						<time>2023-07-03T08:40:47Z</time>
					</trkpt>
					<trkpt lat="47.975010" lon="6.824120">
						<ele>670</ele>
						<time>2023-07-03T08:40:50Z</time>
					</trkpt>
					<trkpt lat="47.975290" lon="6.824160">
						<ele>673</ele>
						<time>2023-07-03T08:40:55Z</time>
					</trkpt>
					<trkpt lat="47.975650" lon="6.824320">
						<ele>675</ele>
						<time>2023-07-03T08:41:02Z</time>
					</trkpt>
					<trkpt lat="47.975890" lon="6.824310">
						<ele>678</ele>
						<time>2023-07-03T08:41:06Z</time>
					</trkpt>
					<trkpt lat="47.976020" lon="6.824330">
						<ele>678</ele>
						<time>2023-07-03T08:41:09Z</time>
					</trkpt>
					<trkpt lat="47.976370" lon="6.824290">
						<ele>681</ele>
						<time>2023-07-03T08:41:15Z</time>
					</trkpt>
					<trkpt lat="47.976950" lon="6.824180">
						<ele>681</ele>
						<time>2023-07-03T08:41:25Z</time>
					</trkpt>
					<trkpt lat="47.977130" lon="6.824100">
						<ele>681</ele>
						<time>2023-07-03T08:41:29Z</time>
					</trkpt>
					<trkpt lat="47.977280" lon="6.823930">
						<ele>682</ele>
						<time>2023-07-03T08:41:32Z</time>
					</trkpt>
					<trkpt lat="47.977610" lon="6.823360">
						<ele>686</ele>
						<time>2023-07-03T08:41:41Z</time>
					</trkpt>
					<trkpt lat="47.977740" lon="6.823180">
						<ele>689</ele>
						<time>2023-07-03T08:41:44Z</time>
					</trkpt>
					<trkpt lat="47.977890" lon="6.823000">
						<ele>691</ele>
						<time>2023-07-03T08:41:48Z</time>
					</trkpt>
					<trkpt lat="47.978030" lon="6.822980">
						<ele>690</ele>
						<time>2023-07-03T08:41:50Z</time>
					</trkpt>
					<trkpt lat="47.978150" lon="6.823020">
						<ele>688</ele>
						<time>2023-07-03T08:41:52Z</time>
					</trkpt>
					<trkpt lat="47.978570" lon="6.823340">
						<ele>687</ele>
						<time>2023-07-03T08:42:01Z</time>
					</trkpt>
					<trkpt lat="47.978750" lon="6.823460">
						<ele>688</ele>
						<time>2023-07-03T08:42:04Z</time>
					</trkpt>
					<trkpt lat="47.978850" lon="6.823470">
						<ele>689</ele>
						<time>2023-07-03T08:42:06Z</time>
					</trkpt>
					<trkpt lat="47.978980" lon="6.823430">
						<ele>692</ele>
						<time>2023-07-03T08:42:08Z</time>
					</trkpt>
					<trkpt lat="47.979080" lon="6.823370">
						<ele>694</ele>
						<time>2023-07-03T08:42:10Z</time>
					</trkpt>
					<trkpt lat="47.979140" lon="6.823280">
						<ele>696</ele>
						<time>2023-07-03T08:42:12Z</time>
					</trkpt>
					<trkpt lat="47.979150" lon="6.823150">
						<ele>698</ele>
						<time>2023-07-03T08:42:13Z</time>
					</trkpt>
					<trkpt lat="47.979080" lon="6.822930">
						<ele>700</ele>
						<time>2023-07-03T08:42:16Z</time>
					</trkpt>
					<trkpt lat="47.978700" lon="6.822590">
						<ele>699</ele>
						<time>2023-07-03T08:42:24Z</time>
					</trkpt>
					<trkpt lat="47.978590" lon="6.822460">
						<ele>699</ele>
						<time>2023-07-03T08:42:27Z</time>
					</trkpt>
					<trkpt lat="47.978560" lon="6.822350">
						<ele>701</ele>
						<time>2023-07-03T08:42:28Z</time>
					</trkpt>
					<trkpt lat="47.978570" lon="6.822220">
						<ele>703</ele>
						<time>2023-07-03T08:42:30Z</time>
					</trkpt>
					<trkpt lat="47.978620" lon="6.822140">
						<ele>706</ele>
						<time>2023-07-03T08:42:31Z</time>
					</trkpt>
					<trkpt lat="47.978680" lon="6.822090">
						<ele>707</ele>
						<time>2023-07-03T08:42:32Z</time>
					</trkpt>
					<trkpt lat="47.978770" lon="6.822060">
						<ele>709</ele>
						<time>2023-07-03T08:42:34Z</time>
					</trkpt>
					<trkpt lat="47.980020" lon="6.822210">
						<ele>726</ele>
						<time>2023-07-03T08:42:56Z</time>
					</trkpt>
					<trkpt lat="47.980200" lon="6.822280">
						<ele>728</ele>
						<time>2023-07-03T08:42:59Z</time>
					</trkpt>
					<trkpt lat="47.980280" lon="6.822390">
						<ele>728</ele>
						<time>2023-07-03T08:43:01Z</time>
					</trkpt>
					<trkpt lat="47.980670" lon="6.823190">
						<ele>727</ele>
						<time>2023-07-03T08:43:13Z</time>
					</trkpt>
					<trkpt lat="47.980760" lon="6.823200">
						<ele>728</ele>
						<time>2023-07-03T08:43:15Z</time>
					</trkpt>
					<trkpt lat="47.980820" lon="6.823170">
						<ele>730</ele>
						<time>2023-07-03T08:43:16Z</time>
					</trkpt>
					<trkpt lat="47.980880" lon="6.823080">
						<ele>732</ele>
						<time>2023-07-03T08:43:17Z</time>
					</trkpt>
					<trkpt lat="47.980880" lon="6.822950">
						<ele>733</ele>
						<time>2023-07-03T08:43:19Z</time>
					</trkpt>
					<trkpt lat="47.980600" lon="6.821580">
						<ele>740</ele>
						<time>2023-07-03T08:43:36Z</time>
					</trkpt>
					<trkpt lat="47.980600" lon="6.821400">
						<ele>743</ele>
						<time>2023-07-03T08:43:38Z</time>
					</trkpt>
					<trkpt lat="47.980650" lon="6.821280">
						<ele>745</ele>
						<time>2023-07-03T08:43:40Z</time>
					</trkpt>
					<trkpt lat="47.980740" lon="6.821290">
						<ele>746</ele>
						<time>2023-07-03T08:43:41Z</time>
					</trkpt>
					<trkpt lat="47.980860" lon="6.821450">
						<ele>745</ele>
						<time>2023-07-03T08:43:44Z</time>
					</trkpt>
					<trkpt lat="47.981110" lon="6.822240">
						<ele>745</ele>
						<time>2023-07-03T08:43:55Z</time>
					</trkpt>
					<trkpt lat="47.981210" lon="6.822430">
						<ele>746</ele>
						<time>2023-07-03T08:43:57Z</time>
					</trkpt>
					<trkpt lat="47.981610" lon="6.822980">
						<ele>753</ele>
						<time>2023-07-03T08:44:07Z</time>
					</trkpt>
					<trkpt lat="47.981870" lon="6.823690">
						<ele>756</ele>
						<time>2023-07-03T08:44:17Z</time>
					</trkpt>
					<trkpt lat="47.981970" lon="6.823910">
						<ele>758</ele>
						<time>2023-07-03T08:44:20Z</time>
					</trkpt>
					<trkpt lat="47.982380" lon="6.824480">
						<ele>767</ele>
						<time>2023-07-03T08:44:30Z</time>
					</trkpt>
					<trkpt lat="47.982710" lon="6.825350">
						<ele>767</ele>
						<time>2023-07-03T08:44:42Z</time>
					</trkpt>
					<trkpt lat="47.982780" lon="6.825400">
						<ele>768</ele>
						<time>2023-07-03T08:44:43Z</time>
					</trkpt>
					<trkpt lat="47.982840" lon="6.825390">
						<ele>770</ele>
						<time>2023-07-03T08:44:44Z</time>
					</trkpt>
					<trkpt lat="47.982880" lon="6.825350">
						<ele>771</ele>
						<time>2023-07-03T08:44:45Z</time>
					</trkpt>
					<trkpt lat="47.982900" lon="6.825250">
						<ele>772</ele>
						<time>2023-07-03T08:44:46Z</time>
					</trkpt>
					<trkpt lat="47.982880" lon="6.825070">
						<ele>774</ele>
						<time>2023-07-03T08:44:49Z</time>
					</trkpt>
					<trkpt lat="47.982740" lon="6.824350">
						<ele>778</ele>
						<time>2023-07-03T08:44:58Z</time>
					</trkpt>
					<trkpt lat="47.982650" lon="6.824120">
						<ele>777</ele>
						<time>2023-07-03T08:45:01Z</time>
					</trkpt>
					<trkpt lat="47.982530" lon="6.823890">
						<ele>777</ele>
						<time>2023-07-03T08:45:04Z</time>
					</trkpt>
					<trkpt lat="47.982490" lon="6.823750">
						<ele>777</ele>
						<time>2023-07-03T08:45:06Z</time>
					</trkpt>
					<trkpt lat="47.982500" lon="6.823360">
						<ele>782</ele>
						<time>2023-07-03T08:45:11Z</time>
					</trkpt>
					<trkpt lat="47.982500" lon="6.822640">
						<ele>787</ele>
						<time>2023-07-03T08:45:19Z</time>
					</trkpt>
					<trkpt lat="47.982470" lon="6.822380">
						<ele>789</ele>
						<time>2023-07-03T08:45:22Z</time>
					</trkpt>
					<trkpt lat="47.982320" lon="6.821960">
						<ele>789</ele>
						<time>2023-07-03T08:45:28Z</time>
					</trkpt>
					<trkpt lat="47.982230" lon="6.821650">
						<ele>790</ele>
						<time>2023-07-03T08:45:32Z</time>
					</trkpt>
					<trkpt lat="47.981870" lon="6.819220">
						<ele>805</ele>
						<time>2023-07-03T08:46:02Z</time>
					</trkpt>
					<trkpt lat="47.981690" lon="6.818410">
						<ele>812</ele>
						<time>2023-07-03T08:46:12Z</time>
					</trkpt>
					<trkpt lat="47.981370" lon="6.817870">
						<ele>817</ele>
						<time>2023-07-03T08:46:20Z</time>
					</trkpt>
					<trkpt lat="47.981170" lon="6.817710">
						<ele>817</ele>
						<time>2023-07-03T08:46:24Z</time>
					</trkpt>
					<trkpt lat="47.980290" lon="6.817380">
						<ele>824</ele>
						<time>2023-07-03T08:46:41Z</time>
					</trkpt>
					<trkpt lat="47.980170" lon="6.817380">
						<ele>825</ele>
						<time>2023-07-03T08:46:43Z</time>
					</trkpt>
					<trkpt lat="47.980050" lon="6.817430">
						<ele>826</ele>
						<time>2023-07-03T08:46:45Z</time>
					</trkpt>
					<trkpt lat="47.979810" lon="6.817580">
						<ele>822</ele>
						<time>2023-07-03T08:46:50Z</time>
					</trkpt>
					<trkpt lat="47.979610" lon="6.817840">
						<ele>815</ele>
						<time>2023-07-03T08:46:54Z</time>
					</trkpt>
					<trkpt lat="47.979520" lon="6.817920">
						<ele>813</ele>
						<time>2023-07-03T08:46:56Z</time>
					</trkpt>
					<trkpt lat="47.979440" lon="6.817940">
						<ele>813</ele>
						<time>2023-07-03T08:46:58Z</time>
					</trkpt>
					<trkpt lat="47.979350" lon="6.817900">
						<ele>814</ele>
						<time>2023-07-03T08:46:59Z</time>
					</trkpt>
					<trkpt lat="47.979280" lon="6.817850">
						<ele>814</ele>
						<time>2023-07-03T08:47:01Z</time>
					</trkpt>
					<trkpt lat="47.979230" lon="6.817720">
						<ele>817</ele>
						<time>2023-07-03T08:47:02Z</time>
					</trkpt>
					<trkpt lat="47.979200" lon="6.817590">
						<ele>819</ele>
						<time>2023-07-03T08:47:04Z</time>
					</trkpt>
					<trkpt lat="47.979220" lon="6.817500">
						<ele>820</ele>
						<time>2023-07-03T08:47:05Z</time>
					</trkpt>
					<trkpt lat="47.979280" lon="6.817430">
						<ele>821</ele>
						<time>2023-07-03T08:47:07Z</time>
					</trkpt>
					<trkpt lat="47.979430" lon="6.817410">
						<ele>823</ele>
						<time>2023-07-03T08:47:09Z</time>
					</trkpt>
					<trkpt lat="47.979560" lon="6.817330">
						<ele>825</ele>
						<time>2023-07-03T08:47:12Z</time>
					</trkpt>
					<trkpt lat="47.979900" lon="6.817040">
						<ele>833</ele>
						<time>2023-07-03T08:47:19Z</time>
					</trkpt>
					<trkpt lat="47.979980" lon="6.816930">
						<ele>836</ele>
						<time>2023-07-03T08:47:21Z</time>
					</trkpt>
					<trkpt lat="47.980040" lon="6.816680">
						<ele>840</ele>
						<time>2023-07-03T08:47:24Z</time>
					</trkpt>
					<trkpt lat="47.980130" lon="6.816420">
						<ele>845</ele>
						<time>2023-07-03T08:47:27Z</time>
					</trkpt>
					<trkpt lat="47.980230" lon="6.816300">
						<ele>848</ele>
						<time>2023-07-03T08:47:30Z</time>
					</trkpt>
					<trkpt lat="47.980650" lon="6.816130">
						<ele>850</ele>
						<time>2023-07-03T08:47:37Z</time>
					</trkpt>
					<trkpt lat="47.981230" lon="6.815960">
						<ele>859</ele>
						<time>2023-07-03T08:47:48Z</time>
					</trkpt>
					<trkpt lat="47.981440" lon="6.816060">
						<ele>858</ele>
						<time>2023-07-03T08:47:52Z</time>
					</trkpt>
					<trkpt lat="47.981780" lon="6.816570">
						<ele>853</ele>
						<time>2023-07-03T08:48:00Z</time>
					</trkpt>
					<trkpt lat="47.982320" lon="6.817530">
						<ele>850</ele>
						<time>2023-07-03T08:48:15Z</time>
					</trkpt>
					<trkpt lat="47.982630" lon="6.818320">
						<ele>848</ele>
						<time>2023-07-03T08:48:26Z</time>
					</trkpt>
					<trkpt lat="47.982730" lon="6.818510">
						<ele>848</ele>
						<time>2023-07-03T08:48:29Z</time>
					</trkpt>
					<trkpt lat="47.983240" lon="6.818920">
						<ele>854</ele>
						<time>2023-07-03T08:48:39Z</time>
					</trkpt>
					<trkpt lat="47.983380" lon="6.818950">
						<ele>856</ele>
						<time>2023-07-03T08:48:42Z</time>
					</trkpt>
					<trkpt lat="47.983870" lon="6.818550">
						<ele>856</ele>
						<time>2023-07-03T08:48:52Z</time>
					</trkpt>
					<trkpt lat="47.984180" lon="6.818210">
						<ele>861</ele>
						<time>2023-07-03T08:48:59Z</time>
					</trkpt>
					<trkpt lat="47.984550" lon="6.817910">
						<ele>860</ele>
						<time>2023-07-03T08:49:06Z</time>
					</trkpt>
					<trkpt lat="47.985000" lon="6.816960">
						<ele>872</ele>
						<time>2023-07-03T08:49:20Z</time>
					</trkpt>
					<trkpt lat="47.985160" lon="6.816710">
						<ele>875</ele>
						<time>2023-07-03T08:49:24Z</time>
					</trkpt>
					<trkpt lat="47.985340" lon="6.816500">
						<ele>880</ele>
						<time>2023-07-03T08:49:28Z</time>
					</trkpt>
					<trkpt lat="47.985680" lon="6.816230">
						<ele>885</ele>
						<time>2023-07-03T08:49:35Z</time>
					</trkpt>
					<trkpt lat="47.985920" lon="6.816130">
						<ele>884</ele>
						<time>2023-07-03T08:49:39Z</time>
					</trkpt>
					<trkpt lat="47.986430" lon="6.815680">
						<ele>891</ele>
						<time>2023-07-03T08:49:50Z</time>
					</trkpt>
					<trkpt lat="47.986590" lon="6.815640">
						<ele>889</ele>
						<time>2023-07-03T08:49:53Z</time>
					</trkpt>
					<trkpt lat="47.986670" lon="6.815660">
						<ele>887</ele>
						<time>2023-07-03T08:49:54Z</time>
					</trkpt>
					<trkpt lat="47.986810" lon="6.815800">
						<ele>885</ele>
						<time>2023-07-03T08:49:57Z</time>
					</trkpt>
					<trkpt lat="47.987310" lon="6.816770">
						<ele>883</ele>
						<time>2023-07-03T08:50:12Z</time>
					</trkpt>
					<trkpt lat="47.987450" lon="6.816970">
						<ele>886</ele>
						<time>2023-07-03T08:50:15Z</time>
					</trkpt>
					<trkpt lat="47.987510" lon="6.816870">
						<ele>888</ele>
						<time>2023-07-03T08:50:17Z</time>
					</trkpt>
					<trkpt lat="47.987590" lon="6.816810">
						<ele>889</ele>
						<time>2023-07-03T08:50:19Z</time>
					</trkpt>
					<trkpt lat="47.987930" lon="6.816700">
						<ele>890</ele>
						<time>2023-07-03T08:50:25Z</time>
					</trkpt>
					<trkpt lat="47.988080" lon="6.816590">
						<ele>889</ele>
						<time>2023-07-03T08:50:28Z</time>
					</trkpt>
					<trkpt lat="47.988210" lon="6.816390">
						<ele>889</ele>
						<time>2023-07-03T08:50:31Z</time>
					</trkpt>
					<trkpt lat="47.988390" lon="6.816060">
						<ele>888</ele>
						<time>2023-07-03T08:50:36Z</time>
					</trkpt>
					<trkpt lat="47.988500" lon="6.815700">
						<ele>889</ele>
						<time>2023-07-03T08:50:41Z</time>
					</trkpt>
					<trkpt lat="47.988990" lon="6.813270">
						<ele>885</ele>
						<time>2023-07-03T08:51:11Z</time>
					</trkpt>
					<trkpt lat="47.989030" lon="6.812830">
						<ele>883</ele>
						<time>2023-07-03T08:51:16Z</time>
					</trkpt>
					<trkpt lat="47.989080" lon="6.810650">
						<ele>870</ele>
						<time>2023-07-03T08:51:42Z</time>
					</trkpt>
					<trkpt lat="47.989120" lon="6.809560">
						<ele>864</ele>
						<time>2023-07-03T08:51:55Z</time>
					</trkpt>
					<trkpt lat="47.989170" lon="6.809160">
						<ele>862</ele>
						<time>2023-07-03T08:52:00Z</time>
					</trkpt>
					<trkpt lat="47.989240" lon="6.808940">
						<ele>862</ele>
						<time>2023-07-03T08:52:03Z</time>
					</trkpt>
					<trkpt lat="47.989820" lon="6.807400">
						<ele>856</ele>
						<time>2023-07-03T08:52:24Z</time>
					</trkpt>
					<trkpt lat="47.989980" lon="6.807090">
						<ele>856</ele>
						<time>2023-07-03T08:52:29Z</time>
					</trkpt>
					<trkpt lat="47.990400" lon="6.806400">
						<ele>859</ele>
						<time>2023-07-03T08:52:40Z</time>
					</trkpt>
					<trkpt lat="47.990500" lon="6.806100">
						<ele>859</ele>
						<time>2023-07-03T08:52:44Z</time>
					</trkpt>
					<trkpt lat="47.990500" lon="6.805800">
						<ele>858</ele>
						<time>2023-07-03T08:52:47Z</time>
					</trkpt>
					<trkpt lat="47.990450" lon="6.805460">
						<ele>857</ele>
						<time>2023-07-03T08:52:52Z</time>
					</trkpt>
					<trkpt lat="47.990370" lon="6.805260">
						<ele>856</ele>
						<time>2023-07-03T08:52:54Z</time>
					</trkpt>
					<trkpt lat="47.990150" lon="6.804860">
						<ele>852</ele>
						<time>2023-07-03T08:53:01Z</time>
					</trkpt>
					<trkpt lat="47.990100" lon="6.804710">
						<ele>850</ele>
						<time>2023-07-03T08:53:03Z</time>
					</trkpt>
					<trkpt lat="47.990020" lon="6.804350">
						<ele>847</ele>
						<time>2023-07-03T08:53:07Z</time>
					</trkpt>
					<trkpt lat="47.989600" lon="6.801660">
						<ele>835</ele>
						<time>2023-07-03T08:53:40Z</time>
					</trkpt>
					<trkpt lat="47.989400" lon="6.800460">
						<ele>835</ele>
						<time>2023-07-03T08:53:55Z</time>
					</trkpt>
					<trkpt lat="47.988930" lon="6.799590">
						<ele>832</ele>
						<time>2023-07-03T08:54:08Z</time>
					</trkpt>
					<trkpt lat="47.988770" lon="6.799230">
						<ele>831</ele>
						<time>2023-07-03T08:54:13Z</time>
					</trkpt>
					<trkpt lat="47.988420" lon="6.798170">
						<ele>829</ele>
						<time>2023-07-03T08:54:27Z</time>
					</trkpt>
					<trkpt lat="47.988390" lon="6.797920">
						<ele>828</ele>
						<time>2023-07-03T08:54:30Z</time>
					</trkpt>
					<trkpt lat="47.988420" lon="6.797170">
						<ele>828</ele>
						<time>2023-07-03T08:54:39Z</time>
					</trkpt>
					<trkpt lat="47.988410" lon="6.797020">
						<ele>827</ele>
						<time>2023-07-03T08:54:41Z</time>
					</trkpt>
					<trkpt lat="47.988250" lon="6.796410">
						<ele>822</ele>
						<time>2023-07-03T08:54:49Z</time>
					</trkpt>
					<trkpt lat="47.987650" lon="6.794460">
						<ele>813</ele>
						<time>2023-07-03T08:55:14Z</time>
					</trkpt>
					<trkpt lat="47.987440" lon="6.793730">
						<ele>812</ele>
						<time>2023-07-03T08:55:24Z</time>
					</trkpt>
					<trkpt lat="47.987250" lon="6.792980">
						<ele>813</ele>
						<time>2023-07-03T08:55:33Z</time>
					</trkpt>
					<trkpt lat="47.986980" lon="6.792190">
						<ele>812</ele>
						<time>2023-07-03T08:55:44Z</time>
					</trkpt>
					<trkpt lat="47.986870" lon="6.791750">
						<ele>811</ele>
						<time>2023-07-03T08:55:49Z</time>
					</trkpt>
					<trkpt lat="47.986800" lon="6.791370">
						<ele>808</ele>
						<time>2023-07-03T08:55:54Z</time>
					</trkpt>
					<trkpt lat="47.986740" lon="6.790820">
						<ele>803</ele>
						<time>2023-07-03T08:56:01Z</time>
					</trkpt>
					<trkpt lat="47.986750" lon="6.790520">
						<ele>801</ele>
						<time>2023-07-03T08:56:04Z</time>
					</trkpt>
					<trkpt lat="47.986770" lon="6.790290">
						<ele>799</ele>
						<time>2023-07-03T08:56:07Z</time>
					</trkpt>
					<trkpt lat="47.986990" lon="6.789380">
						<ele>801</ele>
						<time>2023-07-03T08:56:19Z</time>
					</trkpt>
					<trkpt lat="47.987110" lon="6.788090">
						<ele>790</ele>
						<time>2023-07-03T08:56:34Z</time>
					</trkpt>
					<trkpt lat="47.987210" lon="6.787690">
						<ele>786</ele>
						<time>2023-07-03T08:56:39Z</time>
					</trkpt>
					<trkpt lat="47.987410" lon="6.787230">
						<ele>780</ele>
						<time>2023-07-03T08:56:46Z</time>
					</trkpt>
					<trkpt lat="47.987530" lon="6.786890">
						<ele>776</ele>
						<time>2023-07-03T08:56:50Z</time>
					</trkpt>
					<trkpt lat="47.987600" lon="6.786560">
						<ele>774</ele>
						<time>2023-07-03T08:56:54Z</time>
					</trkpt>
					<trkpt lat="47.987680" lon="6.785950">
						<ele>772</ele>
						<time>2023-07-03T08:57:02Z</time>
					</trkpt>
					<trkpt lat="47.987720" lon="6.785770">
						<ele>771</ele>
						<time>2023-07-03T08:57:04Z</time>
					</trkpt>
					<trkpt lat="47.987790" lon="6.785550">
						<ele>770</ele>
						<time>2023-07-03T08:57:07Z</time>
					</trkpt>
					<trkpt lat="47.988000" lon="6.785090">
						<ele>768</ele>
						<time>2023-07-03T08:57:14Z</time>
					</trkpt>
					<trkpt lat="47.988100" lon="6.784830">
						<ele>766</ele>
						<time>2023-07-03T08:57:17Z</time>
					</trkpt>
					<trkpt lat="47.988140" lon="6.784560">
						<ele>764</ele>
						<time>2023-07-03T08:57:21Z</time>
					</trkpt>
					<trkpt lat="47.988210" lon="6.783840">
						<ele>758</ele>
						<time>2023-07-03T08:57:29Z</time>
					</trkpt>
					<trkpt lat="47.988190" lon="6.782880">
						<ele>750</ele>
						<time>2023-07-03T08:57:41Z</time>
					</trkpt>
					<trkpt lat="47.988210" lon="6.782630">
						<ele>748</ele>
						<time>2023-07-03T08:57:44Z</time>
					</trkpt>
					<trkpt lat="47.988270" lon="6.782090">
						<ele>745</ele>
						<time>2023-07-03T08:57:50Z</time>
					</trkpt>
					<trkpt lat="47.988320" lon="6.781730">
						<ele>743</ele>
						<time>2023-07-03T08:57:55Z</time>
					</trkpt>
					<trkpt lat="47.988340" lon="6.781550">
						<ele>743</ele>
						<time>2023-07-03T08:57:57Z</time>
					</trkpt>
					<trkpt lat="47.988330" lon="6.779020">
						<ele>728</ele>
						<time>2023-07-03T08:58:27Z</time>
					</trkpt>
					<trkpt lat="47.988410" lon="6.777970">
						<ele>722</ele>
						<time>2023-07-03T08:58:39Z</time>
					</trkpt>
					<trkpt lat="47.988450" lon="6.777690">
						<ele>722</ele>
						<time>2023-07-03T08:58:43Z</time>
					</trkpt>
					<trkpt lat="47.988800" lon="6.776230">
						<ele>718</ele>
						<time>2023-07-03T08:59:01Z</time>
					</trkpt>
					<trkpt lat="47.988860" lon="6.775850">
						<ele>716</ele>
						<time>2023-07-03T08:59:06Z</time>
					</trkpt>
					<trkpt lat="47.989010" lon="6.774450">
						<ele>707</ele>
						<time>2023-07-03T08:59:23Z</time>
					</trkpt>
					<trkpt lat="47.989200" lon="6.773410">
						<ele>698</ele>
						<time>2023-07-03T08:59:36Z</time>
					</trkpt>
					<trkpt lat="47.989280" lon="6.773160">
						<ele>695</ele>
						<time>2023-07-03T08:59:39Z</time>
					</trkpt>
					<trkpt lat="47.989550" lon="6.772750">
						<ele>692</ele>
						<time>2023-07-03T08:59:46Z</time>
					</trkpt>
					<trkpt lat="47.989600" lon="6.772620">
						<ele>690</ele>
						<time>2023-07-03T08:59:48Z</time>
					</trkpt>
					<trkpt lat="47.989650" lon="6.772450">
						<ele>688</ele>
						<time>2023-07-03T08:59:50Z</time>
					</trkpt>
					<trkpt lat="47.989750" lon="6.771810">
						<ele>684</ele>
						<time>2023-07-03T08:59:58Z</time>
					</trkpt>
					<trkpt lat="47.989890" lon="6.771270">
						<ele>682</ele>
						<time>2023-07-03T09:00:05Z</time>
					</trkpt>
					<trkpt lat="47.989910" lon="6.771010">
						<ele>681</ele>
						<time>2023-07-03T09:00:08Z</time>
					</trkpt>
					<trkpt lat="47.989910" lon="6.770790">
						<ele>679</ele>
						<time>2023-07-03T09:00:10Z</time>
					</trkpt>
					<trkpt lat="47.989680" lon="6.768700">
						<ele>669</ele>
						<time>2023-07-03T09:00:36Z</time>
					</trkpt>
					<trkpt lat="47.989550" lon="6.768240">
						<ele>664</ele>
						<time>2023-07-03T09:00:41Z</time>
					</trkpt>
					<trkpt lat="47.989200" lon="6.767090">
						<ele>651</ele>
						<time>2023-07-03T09:00:56Z</time>
					</trkpt>
					<trkpt lat="47.988880" lon="6.766230">
						<ele>648</ele>
						<time>2023-07-03T09:01:08Z</time>
					</trkpt>
					<trkpt lat="47.988800" lon="6.766010">
						<ele>647</ele>
						<time>2023-07-03T09:01:11Z</time>
					</trkpt>
					<trkpt lat="47.988780" lon="6.765920">
						<ele>647</ele>
						<time>2023-07-03T09:01:12Z</time>
					</trkpt>
					<trkpt lat="47.988680" lon="6.765490">
						<ele>645</ele>
						<time>2023-07-03T09:01:18Z</time>
					</trkpt>
					<trkpt lat="47.988650" lon="6.765210">
						<ele>644</ele>
						<time>2023-07-03T09:01:21Z</time>
					</trkpt>
					<trkpt lat="47.988630" lon="6.764960">
						<ele>643</ele>
						<time>2023-07-03T09:01:24Z</time>
					</trkpt>
					<trkpt lat="47.988690" lon="6.763790">
						<ele>638</ele>
						<time>2023-07-03T09:01:38Z</time>
					</trkpt>
					<trkpt lat="47.988680" lon="6.763660">
						<ele>638</ele>
						<time>2023-07-03T09:01:40Z</time>
					</trkpt>
					<trkpt lat="47.988420" lon="6.761660">
						<ele>630</ele>
						<time>2023-07-03T09:02:04Z</time>
					</trkpt>
					<trkpt lat="47.988410" lon="6.761470">
						<ele>629</ele>
						<time>2023-07-03T09:02:06Z</time>
					</trkpt>
					<trkpt lat="47.988430" lon="6.761150">
						<ele>628</ele>
						<time>2023-07-03T09:02:10Z</time>
					</trkpt>
					<trkpt lat="47.988570" lon="6.759650">
						<ele>620</ele>
						<time>2023-07-03T09:02:28Z</time>
					</trkpt>
					<trkpt lat="47.988620" lon="6.758840">
						<ele>615</ele>
						<time>2023-07-03T09:02:38Z</time>
					</trkpt>
					<trkpt lat="47.988670" lon="6.758670">
						<ele>614</ele>
						<time>2023-07-03T09:02:40Z</time>
					</trkpt>
					<trkpt lat="47.989030" lon="6.758020">
						<ele>611</ele>
						<time>2023-07-03T09:02:50Z</time>
					</trkpt>
					<trkpt lat="47.989400" lon="6.757280">
						<ele>607</ele>
						<time>2023-07-03T09:03:01Z</time>
					</trkpt>
					<trkpt lat="47.990190" lon="6.755090">
						<ele>596</ele>
						<time>2023-07-03T09:03:31Z</time>
					</trkpt>
					<trkpt lat="47.990280" lon="6.754620">
						<ele>593</ele>
						<time>2023-07-03T09:03:36Z</time>
					</trkpt>
					<trkpt lat="47.990750" lon="6.751330">
						<ele>576</ele>
						<time>2023-07-03T09:04:16Z</time>
					</trkpt>
					<trkpt lat="47.990740" lon="6.751090">
						<ele>575</ele>
						<time>2023-07-03T09:04:19Z</time>
					</trkpt>
					<trkpt lat="47.990630" lon="6.750000">
						<ele>570</ele>
						<time>2023-07-03T09:04:32Z</time>
					</trkpt>
					<trkpt lat="47.990630" lon="6.749540">
						<ele>567</ele>
						<time>2023-07-03T09:04:38Z</time>
					</trkpt>
					<trkpt lat="47.990710" lon="6.749130">
						<ele>566</ele>
						<time>2023-07-03T09:04:43Z</time>
					</trkpt>
					<trkpt lat="47.990940" lon="6.748190">
						<ele>563</ele>
						<time>2023-07-03T09:04:55Z</time>
					</trkpt>
					<trkpt lat="47.990970" lon="6.747900">
						<ele>562</ele>
						<time>2023-07-03T09:04:58Z</time>
					</trkpt>
					<trkpt lat="47.990950" lon="6.747720">
						<ele>560</ele>
						<time>2023-07-03T09:05:01Z</time>
					</trkpt>
					<trkpt lat="47.990650" lon="6.746690">
						<ele>553</ele>
						<time>2023-07-03T09:05:14Z</time>
					</trkpt>
					<trkpt lat="47.990580" lon="6.746390">
						<ele>551</ele>
						<time>2023-07-03T09:05:18Z</time>
					</trkpt>
					<trkpt lat="47.990570" lon="6.746180">
						<ele>550</ele>
						<time>2023-07-03T09:05:20Z</time>
					</trkpt>
					<trkpt lat="47.990590" lon="6.746000">
						<ele>549</ele>
						<time>2023-07-03T09:05:22Z</time>
					</trkpt>
					<trkpt lat="47.990640" lon="6.745790">
						<ele>549</ele>
						<time>2023-07-03T09:05:25Z</time>
					</trkpt>
					<trkpt lat="47.991100" lon="6.744580">
						<ele>551</ele>
						<time>2023-07-03T09:05:42Z</time>
					</trkpt>
					<trkpt lat="47.991280" lon="6.743990">
						<ele>550</ele>
						<time>2023-07-03T09:05:49Z</time>
					</trkpt>
					<trkpt lat="47.991390" lon="6.743490">
						<ele>546</ele>
						<time>2023-07-03T09:05:56Z</time>
					</trkpt>
					<trkpt lat="47.991550" lon="6.742710">
						<ele>541</ele>
						<time>2023-07-03T09:06:05Z</time>
					</trkpt>
					<trkpt lat="47.991850" lon="6.741320">
						<ele>532</ele>
						<time>2023-07-03T09:06:23Z</time>
					</trkpt>
					<trkpt lat="47.992070" lon="6.740210">
						<ele>528</ele>
						<time>2023-07-03T09:06:37Z</time>
					</trkpt>
					<trkpt lat="47.992510" lon="6.739060">
						<ele>525</ele>
						<time>2023-07-03T09:06:52Z</time>
					</trkpt>
					<trkpt lat="47.992990" lon="6.738060">
						<ele>522</ele>
						<time>2023-07-03T09:07:07Z</time>
					</trkpt>
					<trkpt lat="47.993290" lon="6.737560">
						<ele>518</ele>
						<time>2023-07-03T09:07:15Z</time>
					</trkpt>
					<trkpt lat="47.993810" lon="6.736770">
						<ele>507</ele>
						<time>2023-07-03T09:07:28Z</time>
					</trkpt>
					<trkpt lat="47.994130" lon="6.736080">
						<ele>501</ele>
						<time>2023-07-03T09:07:38Z</time>
					</trkpt>
					<trkpt lat="47.994220" lon="6.735950">
						<ele>500</ele>
						<time>2023-07-03T09:07:40Z</time>
					</trkpt>
					<trkpt lat="47.994450" lon="6.735720">
						<ele>499</ele>
						<time>2023-07-03T09:07:45Z</time>
					</trkpt>
					<trkpt lat="47.994590" lon="6.735530">
						<ele>498</ele>
						<time>2023-07-03T09:07:49Z</time>
					</trkpt>
					<trkpt lat="47.994700" lon="6.735260">
						<ele>495</ele>
						<time>2023-07-03T09:07:52Z</time>
					</trkpt>
					<trkpt lat="47.994780" lon="6.735020">
						<ele>492</ele>
						<time>2023-07-03T09:07:56Z</time>
					</trkpt>
					<trkpt lat="47.995040" lon="6.734090">
						<ele>491</ele>
						<time>2023-07-03T09:08:08Z</time>
					</trkpt>
					<trkpt lat="47.995100" lon="6.733780">
						<ele>490</ele>
						<time>2023-07-03T09:08:12Z</time>
					</trkpt>
					<trkpt lat="47.995220" lon="6.733590">
						<ele>490</ele>
						<time>2023-07-03T09:08:15Z</time>
					</trkpt>
					<trkpt lat="47.995660" lon="6.733250">
						<ele>488</ele>
						<time>2023-07-03T09:08:23Z</time>
					</trkpt>
					<trkpt lat="47.996150" lon="6.732780">
						<ele>482</ele>
						<time>2023-07-03T09:08:34Z</time>
					</trkpt>
					<trkpt lat="47.996310" lon="6.732690">
						<ele>479</ele>
						<time>2023-07-03T09:08:37Z</time>
					</trkpt>
					<trkpt lat="47.996390" lon="6.732670">
						<ele>478</ele>
						<time>2023-07-03T09:08:38Z</time>
					</trkpt>
					<trkpt lat="47.996480" lon="6.732700">
						<ele>476</ele>
						<time>2023-07-03T09:08:40Z</time>
					</trkpt>
					<trkpt lat="47.996570" lon="6.732750">
						<ele>474</ele>
						<time>2023-07-03T09:08:42Z</time>
					</trkpt>
					<trkpt lat="47.996620" lon="6.732830">
						<ele>473</ele>
						<time>2023-07-03T09:08:43Z</time>
					</trkpt>
					<trkpt lat="47.996680" lon="6.732970">
						<ele>472</ele>
						<time>2023-07-03T09:08:45Z</time>
					</trkpt>
					<trkpt lat="47.996890" lon="6.733710">
						<ele>467</ele>
						<time>2023-07-03T09:08:54Z</time>
					</trkpt>
					<trkpt lat="47.996990" lon="6.733980">
						<ele>465</ele>
						<time>2023-07-03T09:08:58Z</time>
					</trkpt>
					<trkpt lat="47.997060" lon="6.734100">
						<ele>463</ele>
						<time>2023-07-03T09:09:00Z</time>
					</trkpt>
					<trkpt lat="47.997040" lon="6.734150">
						<ele>463</ele>
						<time>2023-07-03T09:09:01Z</time>
					</trkpt>
					<trkpt lat="47.997010" lon="6.734420">
						<ele>463</ele>
						<time>2023-07-03T09:09:04Z</time>
					</trkpt>
					<trkpt lat="47.997010" lon="6.735360">
						<ele>462</ele>
						<time>2023-07-03T09:09:15Z</time>
					</trkpt>
					<trkpt lat="47.996990" lon="6.735510">
						<ele>463</ele>
						<time>2023-07-03T09:09:17Z</time>
					</trkpt>
					<trkpt lat="47.996780" lon="6.736310">
						<ele>468</ele>
						<time>2023-07-03T09:09:27Z</time>
					</trkpt>
					<trkpt lat="47.996770" lon="6.736410">
						<ele>468</ele>
						<time>2023-07-03T09:09:28Z</time>
					</trkpt>
					<trkpt lat="47.996790" lon="6.736490">
						<ele>468</ele>
						<time>2023-07-03T09:09:29Z</time>
					</trkpt>
					<trkpt lat="47.996840" lon="6.736570">
						<ele>468</ele>
						<time>2023-07-03T09:09:31Z</time>
					</trkpt>
					<trkpt lat="47.996900" lon="6.736620">
						<ele>468</ele>
						<time>2023-07-03T09:09:32Z</time>
					</trkpt>
					<trkpt lat="47.997190" lon="6.736580">
						<ele>464</ele>
						<time>2023-07-03T09:09:37Z</time>
					</trkpt>
					<trkpt lat="47.997240" lon="6.736590">
						<ele>463</ele>
						<time>2023-07-03T09:09:38Z</time>
					</trkpt>
					<trkpt lat="47.997650" lon="6.737060">
						<ele>462</ele>
						<time>2023-07-03T09:09:47Z</time>
					</trkpt>
					<trkpt lat="47.998100" lon="6.737600">
						<ele>460</ele>
						<time>2023-07-03T09:09:58Z</time>
					</trkpt>
					<trkpt lat="47.998310" lon="6.737780">
						<ele>458</ele>
						<time>2023-07-03T09:10:02Z</time>
					</trkpt>
					<trkpt lat="47.998700" lon="6.738060">
						<ele>455</ele>
						<time>2023-07-03T09:10:10Z</time>
					</trkpt>
					<trkpt lat="47.998880" lon="6.738220">
						<ele>454</ele>
						<time>2023-07-03T09:10:13Z</time>
					</trkpt>
					<trkpt lat="47.999270" lon="6.738800">
						<ele>454</ele>
						<time>2023-07-03T09:10:23Z</time>
					</trkpt>
					<trkpt lat="47.999430" lon="6.738990">
						<ele>453</ele>
						<time>2023-07-03T09:10:27Z</time>
					</trkpt>
					<trkpt lat="47.999660" lon="6.739130">
						<ele>450</ele>
						<time>2023-07-03T09:10:31Z</time>
					</trkpt>
					<trkpt lat="47.999830" lon="6.739150">
						<ele>448</ele>
						<time>2023-07-03T09:10:34Z</time>
					</trkpt>
					<trkpt lat="48.000110" lon="6.739110">
						<ele>445</ele>
						<time>2023-07-03T09:10:39Z</time>
					</trkpt>
					<trkpt lat="48.001680" lon="6.738520">
						<ele>442</ele>
						<time>2023-07-03T09:11:08Z</time>
					</trkpt>
					<trkpt lat="48.001850" lon="6.738480">
						<ele>443</ele>
						<time>2023-07-03T09:11:11Z</time>
					</trkpt>
					<trkpt lat="48.001970" lon="6.738500">
						<ele>443</ele>
						<time>2023-07-03T09:11:13Z</time>
					</trkpt>
					<trkpt lat="48.002330" lon="6.738720">
						<ele>445</ele>
						<time>2023-07-03T09:11:20Z</time>
					</trkpt>
					<trkpt lat="48.002620" lon="6.738920">
						<ele>446</ele>
						<time>2023-07-03T09:11:26Z</time>
					</trkpt>
					<trkpt lat="48.002600" lon="6.739270">
						<ele>446</ele>
						<time>2023-07-03T09:11:30Z</time>
					</trkpt>
					<trkpt lat="48.002610" lon="6.739420">
						<ele>446</ele>
						<time>2023-07-03T09:11:32Z</time>
					</trkpt>
					<trkpt lat="48.002660" lon="6.739710">
						<ele>447</ele>
						<time>2023-07-03T09:11:35Z</time>
					</trkpt>
					<trkpt lat="48.002760" lon="6.740020">
						<ele>448</ele>
						<time>2023-07-03T09:11:39Z</time>
					</trkpt>
					<trkpt lat="48.002860" lon="6.740550">
						<ele>449</ele>
						<time>2023-07-03T09:11:46Z</time>
					</trkpt>
					<trkpt lat="48.002900" lon="6.741010">
						<ele>450</ele>
						<time>2023-07-03T09:11:51Z</time>
					</trkpt>
					<trkpt lat="48.002890" lon="6.741210">
						<ele>450</ele>
						<time>2023-07-03T09:11:54Z</time>
					</trkpt>
					<trkpt lat="48.002850" lon="6.741520">
						<ele>450</ele>
						<time>2023-07-03T09:11:58Z</time>
					</trkpt>
					<trkpt lat="48.002360" lon="6.743850">
						<ele>453</ele>
						<time>2023-07-03T09:12:27Z</time>
					</trkpt>
					<trkpt lat="48.002320" lon="6.744130">
						<ele>454</ele>
						<time>2023-07-03T09:12:30Z</time>
					</trkpt>
					<trkpt lat="48.002200" lon="6.745560">
						<ele>465</ele>
						<time>2023-07-03T09:12:47Z</time>
					</trkpt>
					<trkpt lat="48.002200" lon="6.746060">
						<ele>468</ele>
						<time>2023-07-03T09:12:53Z</time>
					</trkpt>
					<trkpt lat="48.002260" lon="6.746910">
						<ele>473</ele>
						<time>2023-07-03T09:13:03Z</time>
					</trkpt>
					<trkpt lat="48.002300" lon="6.747120">
						<ele>474</ele>
						<time>2023-07-03T09:13:06Z</time>
					</trkpt>
					<trkpt lat="48.002370" lon="6.747280">
						<ele>475</ele>
						<time>2023-07-03T09:13:08Z</time>
					</trkpt>
					<trkpt lat="48.002740" lon="6.747640">
						<ele>476</ele>
						<time>2023-07-03T09:13:16Z</time>
					</trkpt>
					<trkpt lat="48.003300" lon="6.748080">
						<ele>480</ele>
						<time>2023-07-03T09:13:27Z</time>
					</trkpt>
					<trkpt lat="48.003460" lon="6.748200">
						<ele>481</ele>
						<time>2023-07-03T09:13:31Z</time>
					</trkpt>
					<trkpt lat="48.003640" lon="6.748280">
						<ele>481</ele>
						<time>2023-07-03T09:13:34Z</time>
					</trkpt>
					<trkpt lat="48.004370" lon="6.748410">
						<ele>481</ele>
						<time>2023-07-03T09:13:47Z</time>
					</trkpt>
					<trkpt lat="48.004780" lon="6.748390">
						<ele>481</ele>
						<time>2023-07-03T09:13:54Z</time>
					</trkpt>
					<trkpt lat="48.005480" lon="6.748290">
						<ele>482</ele>
						<time>2023-07-03T09:14:07Z</time>
					</trkpt>
					<trkpt lat="48.005680" lon="6.748300">
						<ele>483</ele>
						<time>2023-07-03T09:14:10Z</time>
					</trkpt>
					<trkpt lat="48.005870" lon="6.748350">
						<ele>484</ele>
						<time>2023-07-03T09:14:14Z</time>
					</trkpt>
					<trkpt lat="48.006140" lon="6.748550">
						<ele>486</ele>
						<time>2023-07-03T09:14:19Z</time>
					</trkpt>
					<trkpt lat="48.006410" lon="6.748970">
						<ele>488</ele>
						<time>2023-07-03T09:14:26Z</time>
					</trkpt>
					<trkpt lat="48.007890" lon="6.751630">
						<ele>488</ele>
						<time>2023-07-03T09:15:07Z</time>
					</trkpt>
					<trkpt lat="48.008140" lon="6.751990">
						<ele>489</ele>
						<time>2023-07-03T09:15:13Z</time>
					</trkpt>
					<trkpt lat="48.008820" lon="6.752650">
						<ele>487</ele>
						<time>2023-07-03T09:15:28Z</time>
					</trkpt>
					<trkpt lat="48.008930" lon="6.752820">
						<ele>487</ele>
						<time>2023-07-03T09:15:31Z</time>
					</trkpt>
					<trkpt lat="48.009040" lon="6.753060">
						<ele>486</ele>
						<time>2023-07-03T09:15:34Z</time>
					</trkpt>
					<trkpt lat="48.009540" lon="6.754630">
						<ele>485</ele>
						<time>2023-07-03T09:15:55Z</time>
					</trkpt>
					<trkpt lat="48.009850" lon="6.755710">
						<ele>486</ele>
						<time>2023-07-03T09:16:09Z</time>
					</trkpt>
					<trkpt lat="48.009940" lon="6.755920">
						<ele>486</ele>
						<time>2023-07-03T09:16:12Z</time>
					</trkpt>
					<trkpt lat="48.009990" lon="6.755990">
						<ele>486</ele>
						<time>2023-07-03T09:16:13Z</time>
					</trkpt>
					<trkpt lat="48.010040" lon="6.756060">
						<ele>486</ele>
						<time>2023-07-03T09:16:14Z</time>
					</trkpt>
					<trkpt lat="48.010220" lon="6.756190">
						<ele>485</ele>
						<time>2023-07-03T09:16:18Z</time>
					</trkpt>
					<trkpt lat="48.010320" lon="6.756210">
						<ele>485</ele>
						<time>2023-07-03T09:16:20Z</time>
					</trkpt>
					<trkpt lat="48.010450" lon="6.756180">
						<ele>484</ele>
						<time>2023-07-03T09:16:22Z</time>
					</trkpt>
					<trkpt lat="48.010620" lon="6.756040">
						<ele>484</ele>
						<time>2023-07-03T09:16:25Z</time>
					</trkpt>
					<trkpt lat="48.010730" lon="6.755930">
						<ele>483</ele>
						<time>2023-07-03T09:16:28Z</time>
					</trkpt>
					<trkpt lat="48.011660" lon="6.755010">
						<ele>498</ele>
						<time>2023-07-03T09:16:48Z</time>
					</trkpt>
					<trkpt lat="48.011830" lon="6.754890">
						<ele>502</ele>
						<time>2023-07-03T09:16:51Z</time>
					</trkpt>
					<trkpt lat="48.011810" lon="6.754800">
						<ele>501</ele>
						<time>2023-07-03T09:16:52Z</time>
					</trkpt>
					<trkpt lat="48.011880" lon="6.754720">
						<ele>503</ele>
						<time>2023-07-03T09:16:54Z</time>
					</trkpt>
					<trkpt lat="48.012030" lon="6.754340">
						<ele>505</ele>
						<time>2023-07-03T09:16:59Z</time>
					</trkpt>
					<trkpt lat="48.012180" lon="6.754080">
						<ele>506</ele>
						<time>2023-07-03T09:17:03Z</time>
					</trkpt>
					<trkpt lat="48.012300" lon="6.753960">
						<ele>506</ele>
						<time>2023-07-03T09:17:06Z</time>
					</trkpt>
					<trkpt lat="48.012850" lon="6.753650">
						<ele>505</ele>
						<time>2023-07-03T09:17:16Z</time>
					</trkpt>
					<trkpt lat="48.012990" lon="6.753660">
						<ele>506</ele>
						<time>2023-07-03T09:17:19Z</time>
					</trkpt>
					<trkpt lat="48.013270" lon="6.753820">
						<ele>512</ele>
						<time>2023-07-03T09:17:24Z</time>
					</trkpt>
					<trkpt lat="48.013480" lon="6.753870">
						<ele>514</ele>
						<time>2023-07-03T09:17:28Z</time>
					</trkpt>
					<trkpt lat="48.013640" lon="6.753830">
						<ele>514</ele>
						<time>2023-07-03T09:17:31Z</time>
					</trkpt>
					<trkpt lat="48.013890" lon="6.753600">
						<ele>508</ele>
						<time>2023-07-03T09:17:36Z</time>
					</trkpt>
					<trkpt lat="48.014280" lon="6.753360">
						<ele>502</ele>
						<time>2023-07-03T09:17:43Z</time>
					</trkpt>
					<trkpt lat="48.014490" lon="6.753320">
						<ele>501</ele>
						<time>2023-07-03T09:17:47Z</time>
					</trkpt>
					<trkpt lat="48.014930" lon="6.753400">
						<ele>502</ele>
						<time>2023-07-03T09:17:55Z</time>
					</trkpt>
					<trkpt lat="48.016280" lon="6.753900">
						<ele>496</ele>
						<time>2023-07-03T09:18:20Z</time>
					</trkpt>
					<trkpt lat="48.016340" lon="6.754010">
						<ele>496</ele>
						<time>2023-07-03T09:18:21Z</time>
					</trkpt>
					<trkpt lat="48.016630" lon="6.755510">
						<ele>505</ele>
						<time>2023-07-03T09:18:40Z</time>
					</trkpt>
					<trkpt lat="48.016800" lon="6.756030">
						<ele>504</ele>
						<time>2023-07-03T09:18:47Z</time>
					</trkpt>
					<trkpt lat="48.017030" lon="6.756470">
						<ele>500</ele>
						<time>2023-07-03T09:18:53Z</time>
					</trkpt>
					<trkpt lat="48.017120" lon="6.756540">
						<ele>498</ele>
						<time>2023-07-03T09:18:55Z</time>
					</trkpt>
					<trkpt lat="48.017390" lon="6.756660">
						<ele>490</ele>
						<time>2023-07-03T09:19:00Z</time>
					</trkpt>
					<trkpt lat="48.017550" lon="6.756840">
						<ele>488</ele>
						<time>2023-07-03T09:19:04Z</time>
					</trkpt>
					<trkpt lat="48.017840" lon="6.757470">
						<ele>487</ele>
						<time>2023-07-03T09:19:13Z</time>
					</trkpt>
					<trkpt lat="48.017940" lon="6.757630">
						<ele>487</ele>
						<time>2023-07-03T09:19:16Z</time>
					</trkpt>
					<trkpt lat="48.018080" lon="6.757720">
						<ele>485</ele>
						<time>2023-07-03T09:19:18Z</time>
					</trkpt>
					<trkpt lat="48.018340" lon="6.758040">
						<ele>484</ele>
						<time>2023-07-03T09:19:24Z</time>
					</trkpt>
					<trkpt lat="48.018440" lon="6.758110">
						<ele>483</ele>
						<time>2023-07-03T09:19:26Z</time>
					</trkpt>
					<trkpt lat="48.019050" lon="6.758380">
						<ele>473</ele>
						<time>2023-07-03T09:19:38Z</time>
					</trkpt>
					<trkpt lat="48.019740" lon="6.758750">
						<ele>465</ele>
						<time>2023-07-03T09:19:51Z</time>
					</trkpt>
					<trkpt lat="48.019870" lon="6.758730">
						<ele>463</ele>
						<time>2023-07-03T09:19:53Z</time>
					</trkpt>
					<trkpt lat="48.020290" lon="6.758570">
						<ele>459</ele>
						<time>2023-07-03T09:20:01Z</time>
					</trkpt>
					<trkpt lat="48.020400" lon="6.758480">
						<ele>458</ele>
						<time>2023-07-03T09:20:03Z</time>
					</trkpt>
					<trkpt lat="48.020310" lon="6.758310">
						<ele>458</ele>
						<time>2023-07-03T09:20:05Z</time>
					</trkpt>
					<trkpt lat="48.020110" lon="6.757800">
						<ele>454</ele>
						<time>2023-07-03T09:20:12Z</time>
					</trkpt>
					<trkpt lat="48.019710" lon="6.756830">
						<ele>452</ele>
						<time>2023-07-03T09:20:26Z</time>
					</trkpt>
					<trkpt lat="48.019550" lon="6.756240">
						<ele>451</ele>
						<time>2023-07-03T09:20:34Z</time>
					</trkpt>
					<trkpt lat="48.019220" lon="6.754670">
						<ele>449</ele>
						<time>2023-07-03T09:20:53Z</time>
					</trkpt>
					<trkpt lat="48.019180" lon="6.754350">
						<ele>448</ele>
						<time>2023-07-03T09:20:57Z</time>
					</trkpt>
					<trkpt lat="48.019070" lon="6.751800">
						<ele>443</ele>
						<time>2023-07-03T09:21:27Z</time>
					</trkpt>
					<trkpt lat="48.019010" lon="6.751350">
						<ele>442</ele>
						<time>2023-07-03T09:21:33Z</time>
					</trkpt>
					<trkpt lat="48.018820" lon="6.750840">
						<ele>442</ele>
						<time>2023-07-03T09:21:40Z</time>
					</trkpt>
					<trkpt lat="48.018650" lon="6.750530">
						<ele>442</ele>
						<time>2023-07-03T09:21:45Z</time>
					</trkpt>
					<trkpt lat="48.018330" lon="6.749710">
						<ele>441</ele>
						<time>2023-07-03T09:21:56Z</time>
					</trkpt>
					<trkpt lat="48.018170" lon="6.749410">
						<ele>440</ele>
						<time>2023-07-03T09:22:01Z</time>
					</trkpt>
					<trkpt lat="48.017690" lon="6.748710">
						<ele>438</ele>
						<time>2023-07-03T09:22:12Z</time>
					</trkpt>
					<trkpt lat="48.017240" lon="6.747990">
						<ele>436</ele>
						<time>2023-07-03T09:22:24Z</time>
					</trkpt>
					<trkpt lat="48.017210" lon="6.747970">
						<ele>436</ele>
						<time>2023-07-03T09:22:25Z</time>
					</trkpt>
					<trkpt lat="48.017250" lon="6.747740">
						<ele>436</ele>
						<time>2023-07-03T09:22:28Z</time>
					</trkpt>
					<trkpt lat="48.017250" lon="6.747510">
						<ele>436</ele>
						<time>2023-07-03T09:22:30Z</time>
					</trkpt>
					<trkpt lat="48.017140" lon="6.746780">
						<ele>436</ele>
						<time>2023-07-03T09:22:39Z</time>
					</trkpt>
					<trkpt lat="48.017050" lon="6.746340">
						<ele>436</ele>
						<time>2023-07-03T09:22:45Z</time>
					</trkpt>
					<trkpt lat="48.016410" lon="6.744110">
						<ele>435</ele>
						<time>2023-07-03T09:23:14Z</time>
					</trkpt>
					<trkpt lat="48.016340" lon="6.743860">
						<ele>434</ele>
						<time>2023-07-03T09:23:17Z</time>
					</trkpt>
					<trkpt lat="48.016280" lon="6.743620">
						<ele>434</ele>
						<time>2023-07-03T09:23:20Z</time>
					</trkpt>
					<trkpt lat="48.016160" lon="6.742440">
						<ele>432</ele>
						<time>2023-07-03T09:23:34Z</time>
					</trkpt>
					<trkpt lat="48.015990" lon="6.739750">
						<ele>428</ele>
						<time>2023-07-03T09:24:06Z</time>
					</trkpt>
					<trkpt lat="48.015960" lon="6.739510">
						<ele>428</ele>
						<time>2023-07-03T09:24:09Z</time>
					</trkpt>
					<trkpt lat="48.015880" lon="6.739130">
						<ele>427</ele>
						<time>2023-07-03T09:24:14Z</time>
					</trkpt>
					<trkpt lat="48.015670" lon="6.738470">
						<ele>425</ele>
						<time>2023-07-03T09:24:23Z</time>
					</trkpt>
					<trkpt lat="48.015320" lon="6.737440">
						<ele>424</ele>
						<time>2023-07-03T09:24:36Z</time>
					</trkpt>
					<trkpt lat="48.014900" lon="6.736490">
						<ele>423</ele>
						<time>2023-07-03T09:24:50Z</time>
					</trkpt>
					<trkpt lat="48.013580" lon="6.733290">
						<ele>422</ele>
						<time>2023-07-03T09:25:35Z</time>
					</trkpt>
					<trkpt lat="48.013290" lon="6.732580">
						<ele>422</ele>
						<time>2023-07-03T09:25:45Z</time>
					</trkpt>
					<trkpt lat="48.013200" lon="6.732300">
						<ele>422</ele>
						<time>2023-07-03T09:25:48Z</time>
					</trkpt>
					<trkpt lat="48.013000" lon="6.731400">
						<ele>422</ele>
						<time>2023-07-03T09:25:59Z</time>
					</trkpt>
					<trkpt lat="48.012570" lon="6.728960">
						<ele>419</ele>
						<time>2023-07-03T09:26:30Z</time>
					</trkpt>
					<trkpt lat="48.012490" lon="6.728720">
						<ele>418</ele>
						<time>2023-07-03T09:26:33Z</time>
					</trkpt>
					<trkpt lat="48.012170" lon="6.728100">
						<ele>416</ele>
						<time>2023-07-03T09:26:42Z</time>
					</trkpt>
					<trkpt lat="48.009860" lon="6.723910">
						<ele>408</ele>
						<time>2023-07-03T09:27:47Z</time>
					</trkpt>
					<trkpt lat="48.008940" lon="6.721560">
						<ele>406</ele>
						<time>2023-07-03T09:28:19Z</time>
					</trkpt>
					<trkpt lat="48.008730" lon="6.720760">
						<ele>405</ele>
						<time>2023-07-03T09:28:29Z</time>
					</trkpt>
					<trkpt lat="48.008610" lon="6.720190">
						<ele>405</ele>
						<time>2023-07-03T09:28:36Z</time>
					</trkpt>
					<trkpt lat="48.008570" lon="6.719830">
						<ele>405</ele>
						<time>2023-07-03T09:28:41Z</time>
					</trkpt>
					<trkpt lat="48.008560" lon="6.718710">
						<ele>405</ele>
						<time>2023-07-03T09:28:54Z</time>
					</trkpt>
					<trkpt lat="48.008520" lon="6.718170">
						<ele>406</ele>
						<time>2023-07-03T09:29:01Z</time>
					</trkpt>
					<trkpt lat="48.008410" lon="6.717150">
						<ele>405</ele>
						<time>2023-07-03T09:29:13Z</time>
					</trkpt>
					<trkpt lat="48.008430" lon="6.717020">
						<ele>405</ele>
						<time>2023-07-03T09:29:14Z</time>
					</trkpt>
					<trkpt lat="48.008520" lon="6.716890">
						<ele>405</ele>
						<time>2023-07-03T09:29:17Z</time>
					</trkpt>
					<trkpt lat="48.008570" lon="6.716870">
						<ele>405</ele>
						<time>2023-07-03T09:29:18Z</time>
					</trkpt>
					<trkpt lat="48.008630" lon="6.716790">
						<ele>404</ele>
						<time>2023-07-03T09:29:19Z</time>
					</trkpt>
					<trkpt lat="48.008680" lon="6.716770">
						<ele>404</ele>
						<time>2023-07-03T09:29:20Z</time>
					</trkpt>
					<trkpt lat="48.008760" lon="6.716680">
						<ele>404</ele>
						<time>2023-07-03T09:29:22Z</time>
					</trkpt>
					<trkpt lat="48.008930" lon="6.716580">
						<ele>403</ele>
						<time>2023-07-03T09:29:25Z</time>
					</trkpt>
					<trkpt lat="48.009170" lon="6.716390">
						<ele>403</ele>
						<time>2023-07-03T09:29:30Z</time>
					</trkpt>
					<trkpt lat="48.009340" lon="6.716300">
						<ele>403</ele>
						<time>2023-07-03T09:29:33Z</time>
					</trkpt>
					<trkpt lat="48.009330" lon="6.716260">
						<ele>403</ele>
						<time>2023-07-03T09:29:34Z</time>
					</trkpt>
					<trkpt lat="48.009410" lon="6.716210">
						<ele>403</ele>
						<time>2023-07-03T09:29:35Z</time>
					</trkpt>
					<trkpt lat="48.009530" lon="6.716150">
						<ele>403</ele>
						<time>2023-07-03T09:29:37Z</time>
					</trkpt>
					<trkpt lat="48.009670" lon="6.716090">
						<ele>403</ele>
						<time>2023-07-03T09:29:40Z</time>
					</trkpt>
					<trkpt lat="48.010000" lon="6.716050">
						<ele>403</ele>
						<time>2023-07-03T09:29:46Z</time>
					</trkpt>
					<trkpt lat="48.011060" lon="6.716170">
						<ele>404</ele>
						<time>2023-07-03T09:30:05Z</time>
					</trkpt>
					<trkpt lat="48.011260" lon="6.716140">
						<ele>404</ele>
						<time>2023-07-03T09:30:08Z</time>
					</trkpt>
					<trkpt lat="48.011550" lon="6.716050">
						<ele>404</ele>
						<time>2023-07-03T09:30:14Z</time>
					</trkpt>
					<trkpt lat="48.011750" lon="6.715940">
						<ele>404</ele>
						<time>2023-07-03T09:30:17Z</time>
					</trkpt>
					<trkpt lat="48.011880" lon="6.715850">
						<ele>404</ele>
						<time>2023-07-03T09:30:20Z</time>
					</trkpt>
					<trkpt lat="48.012340" lon="6.715440">
						<ele>404</ele>
						<time>2023-07-03T09:30:29Z</time>
					</trkpt>
					<trkpt lat="48.012400" lon="6.715450">
						<ele>404</ele>
						<time>2023-07-03T09:30:31Z</time>
					</trkpt>
					<trkpt lat="48.012900" lon="6.715000">
						<ele>403</ele>
						<time>2023-07-03T09:30:41Z</time>
					</trkpt>
					<trkpt lat="48.013910" lon="6.713960">
						<ele>401</ele>
						<time>2023-07-03T09:31:03Z</time>
					</trkpt>
					<trkpt lat="48.015070" lon="6.712900">
						<ele>402</ele>
						<time>2023-07-03T09:31:27Z</time>
					</trkpt>
					<trkpt lat="48.016060" lon="6.711950">
						<ele>404</ele>
						<time>2023-07-03T09:31:48Z</time>
					</trkpt>
					<trkpt lat="48.016180" lon="6.711810">
						<ele>403</ele>
						<time>2023-07-03T09:31:51Z</time>
					</trkpt>
					<trkpt lat="48.016360" lon="6.711550">
						<ele>403</ele>
						<time>2023-07-03T09:31:55Z</time>
					</trkpt>
					<trkpt lat="48.016660" lon="6.710990">
						<ele>402</ele>
						<time>2023-07-03T09:32:04Z</time>
					</trkpt>
					<trkpt lat="48.016830" lon="6.710790">
						<ele>402</ele>
						<time>2023-07-03T09:32:07Z</time>
					</trkpt>
					<trkpt lat="48.016950" lon="6.710690">
						<ele>402</ele>
						<time>2023-07-03T09:32:10Z</time>
					</trkpt>
					<trkpt lat="48.017180" lon="6.710560">
						<ele>403</ele>
						<time>2023-07-03T09:32:14Z</time>
					</trkpt>
					<trkpt lat="48.017380" lon="6.710520">
						<ele>404</ele>
						<time>2023-07-03T09:32:18Z</time>
					</trkpt>
					<trkpt lat="48.017540" lon="6.710510">
						<ele>405</ele>
						<time>2023-07-03T09:32:21Z</time>
					</trkpt>
					<trkpt lat="48.017730" lon="6.710540">
						<ele>405</ele>
						<time>2023-07-03T09:32:24Z</time>
					</trkpt>
					<trkpt lat="48.018000" lon="6.710670">
						<ele>406</ele>
						<time>2023-07-03T09:32:29Z</time>
					</trkpt>
					<trkpt lat="48.018450" lon="6.710940">
						<ele>406</ele>
						<time>2023-07-03T09:32:38Z</time>
					</trkpt>
					<trkpt lat="48.018750" lon="6.711060">
						<ele>404</ele>
						<time>2023-07-03T09:32:43Z</time>
					</trkpt>
					<trkpt lat="48.018910" lon="6.711120">
						<ele>404</ele>
						<time>2023-07-03T09:32:46Z</time>
					</trkpt>
					<trkpt lat="48.019290" lon="6.711170">
						<ele>402</ele>
						<time>2023-07-03T09:32:53Z</time>
					</trkpt>
					<trkpt lat="48.020130" lon="6.711230">
						<ele>401</ele>
						<time>2023-07-03T09:33:08Z</time>
					</trkpt>
					<trkpt lat="48.020270" lon="6.711200">
						<ele>401</ele>
						<time>2023-07-03T09:33:10Z</time>
					</trkpt>
					<trkpt lat="48.020490" lon="6.711150">
						<ele>401</ele>
						<time>2023-07-03T09:33:14Z</time>
					</trkpt>
					<trkpt lat="48.020770" lon="6.710970">
						<ele>401</ele>
						<time>2023-07-03T09:33:20Z</time>
					</trkpt>
					<trkpt lat="48.020940" lon="6.710840">
						<ele>401</ele>
						<time>2023-07-03T09:33:23Z</time>
					</trkpt>
					<trkpt lat="48.021120" lon="6.710610">
						<ele>402</ele>
						<time>2023-07-03T09:33:27Z</time>
					</trkpt>
					<trkpt lat="48.021360" lon="6.710160">
						<ele>401</ele>
						<time>2023-07-03T09:33:34Z</time>
					</trkpt>
					<trkpt lat="48.022330" lon="6.707990">
						<ele>399</ele>
						<time>2023-07-03T09:34:05Z</time>
					</trkpt>
					<trkpt lat="48.023000" lon="6.706240">
						<ele>400</ele>
						<time>2023-07-03T09:34:29Z</time>
					</trkpt>
					<trkpt lat="48.023690" lon="6.704340">
						<ele>400</ele>
						<time>2023-07-03T09:34:55Z</time>
					</trkpt>
					<trkpt lat="48.023800" lon="6.704400">
						<ele>400</ele>
						<time>2023-07-03T09:34:57Z</time>
					</trkpt>
					<trkpt lat="48.023690" lon="6.704340">
						<ele>400</ele>
						<time>2023-07-03T09:34:59Z</time>
					</trkpt>
					<trkpt lat="48.023790" lon="6.704100">
						<ele>399</ele>
						<time>2023-07-03T09:35:03Z</time>
					</trkpt>
					<trkpt lat="48.024530" lon="6.702710">
						<ele>397</ele>
						<time>2023-07-03T09:35:24Z</time>
					</trkpt>
					<trkpt lat="48.024600" lon="6.702470">
						<ele>397</ele>
						<time>2023-07-03T09:35:27Z</time>
					</trkpt>
					<trkpt lat="48.024640" lon="6.702270">
						<ele>397</ele>
						<time>2023-07-03T09:35:29Z</time>
					</trkpt>
					<trkpt lat="48.024650" lon="6.702120">
						<ele>397</ele>
						<time>2023-07-03T09:35:31Z</time>
					</trkpt>
					<trkpt lat="48.024600" lon="6.701960">
						<ele>397</ele>
						<time>2023-07-03T09:35:33Z</time>
					</trkpt>
					<trkpt lat="48.024470" lon="6.701750">
						<ele>396</ele>
						<time>2023-07-03T09:35:37Z</time>
					</trkpt>
					<trkpt lat="48.024430" lon="6.701640">
						<ele>396</ele>
						<time>2023-07-03T09:35:38Z</time>
					</trkpt>
					<trkpt lat="48.024430" lon="6.701460">
						<ele>396</ele>
						<time>2023-07-03T09:35:40Z</time>
					</trkpt>
					<trkpt lat="48.024600" lon="6.700730">
						<ele>396</ele>
						<time>2023-07-03T09:35:49Z</time>
					</trkpt>
					<trkpt lat="48.024670" lon="6.700230">
						<ele>396</ele>
						<time>2023-07-03T09:35:56Z</time>
					</trkpt>
					<trkpt lat="48.024730" lon="6.699570">
						<ele>396</ele>
						<time>2023-07-03T09:36:03Z</time>
					</trkpt>
					<trkpt lat="48.024740" lon="6.699100">
						<ele>397</ele>
						<time>2023-07-03T09:36:09Z</time>
					</trkpt>
					<trkpt lat="48.024610" lon="6.697480">
						<ele>397</ele>
						<time>2023-07-03T09:36:29Z</time>
					</trkpt>
					<trkpt lat="48.024540" lon="6.696320">
						<ele>400</ele>
						<time>2023-07-03T09:36:42Z</time>
					</trkpt>
					<trkpt lat="48.024530" lon="6.695830">
						<ele>401</ele>
						<time>2023-07-03T09:36:48Z</time>
					</trkpt>
					<trkpt lat="48.024580" lon="6.695050">
						<ele>400</ele>
						<time>2023-07-03T09:36:58Z</time>
					</trkpt>
					<trkpt lat="48.024640" lon="6.694460">
						<ele>399</ele>
						<time>2023-07-03T09:37:05Z</time>
					</trkpt>
					<trkpt lat="48.024720" lon="6.693980">
						<ele>398</ele>
						<time>2023-07-03T09:37:11Z</time>
					</trkpt>
					<trkpt lat="48.024830" lon="6.693520">
						<ele>398</ele>
						<time>2023-07-03T09:37:16Z</time>
					</trkpt>
					<trkpt lat="48.025030" lon="6.692820">
						<ele>400</ele>
						<time>2023-07-03T09:37:25Z</time>
					</trkpt>
					<trkpt lat="48.025630" lon="6.691100">
						<ele>401</ele>
						<time>2023-07-03T09:37:48Z</time>
					</trkpt>
					<trkpt lat="48.025780" lon="6.690660">
						<ele>401</ele>
						<time>2023-07-03T09:37:54Z</time>
					</trkpt>
					<trkpt lat="48.025880" lon="6.690030">
						<ele>401</ele>
						<time>2023-07-03T09:38:02Z</time>
					</trkpt>
					<trkpt lat="48.025910" lon="6.689770">
						<ele>401</ele>
						<time>2023-07-03T09:38:05Z</time>
					</trkpt>
					<trkpt lat="48.025910" lon="6.689350">
						<ele>400</ele>
						<time>2023-07-03T09:38:10Z</time>
					</trkpt>
					<trkpt lat="48.025940" lon="6.689350">
						<ele>400</ele>
						<time>2023-07-03T09:38:11Z</time>
					</trkpt>
					<trkpt lat="48.025920" lon="6.688930">
						<ele>400</ele>
						<time>2023-07-03T09:38:16Z</time>
					</trkpt>
					<trkpt lat="48.025860" lon="6.688420">
						<ele>399</ele>
						<time>2023-07-03T09:38:22Z</time>
					</trkpt>
					<trkpt lat="48.025770" lon="6.687840">
						<ele>401</ele>
						<time>2023-07-03T09:38:29Z</time>
					</trkpt>
					<trkpt lat="48.025660" lon="6.687320">
						<ele>402</ele>
						<time>2023-07-03T09:38:35Z</time>
					</trkpt>
					<trkpt lat="48.025670" lon="6.687250">
						<ele>402</ele>
						<time>2023-07-03T09:38:36Z</time>
					</trkpt>
					<trkpt lat="48.025660" lon="6.687190">
						<ele>402</ele>
						<time>2023-07-03T09:38:37Z</time>
					</trkpt>
					<trkpt lat="48.025640" lon="6.687130">
						<ele>402</ele>
						<time>2023-07-03T09:38:38Z</time>
					</trkpt>
					<trkpt lat="48.025610" lon="6.687110">
						<ele>401</ele>
						<time>2023-07-03T09:38:38Z</time>
					</trkpt>
					<trkpt lat="48.025260" lon="6.685630">
						<ele>401</ele>
						<time>2023-07-03T09:38:57Z</time>
					</trkpt>
					<trkpt lat="48.025130" lon="6.684630">
						<ele>401</ele>
						<time>2023-07-03T09:39:09Z</time>
					</trkpt>
					<trkpt lat="48.024800" lon="6.683150">
						<ele>399</ele>
						<time>2023-07-03T09:39:28Z</time>
					</trkpt>
					<trkpt lat="48.024670" lon="6.682490">
						<ele>401</ele>
						<time>2023-07-03T09:39:36Z</time>
					</trkpt>
					<trkpt lat="48.024640" lon="6.682110">
						<ele>401</ele>
						<time>2023-07-03T09:39:41Z</time>
					</trkpt>
					<trkpt lat="48.024650" lon="6.681720">
						<ele>401</ele>
						<time>2023-07-03T09:39:45Z</time>
					</trkpt>
					<trkpt lat="48.024710" lon="6.681270">
						<ele>401</ele>
						<time>2023-07-03T09:39:51Z</time>
					</trkpt>
					<trkpt lat="48.024830" lon="6.680790">
						<ele>400</ele>
						<time>2023-07-03T09:39:57Z</time>
					</trkpt>
					<trkpt lat="48.025110" lon="6.679750">
						<ele>398</ele>
						<time>2023-07-03T09:40:10Z</time>
					</trkpt>
					<trkpt lat="48.025080" lon="6.679720">
						<ele>398</ele>
						<time>2023-07-03T09:40:11Z</time>
					</trkpt>
					<trkpt lat="48.025170" lon="6.679480">
						<ele>397</ele>
						<time>2023-07-03T09:40:14Z</time>
					</trkpt>
					<trkpt lat="48.025200" lon="6.679440">
						<ele>397</ele>
						<time>2023-07-03T09:40:15Z</time>
					</trkpt>
					<trkpt lat="48.025240" lon="6.679320">
						<ele>397</ele>
						<time>2023-07-03T09:40:16Z</time>
					</trkpt>
					<trkpt lat="48.025230" lon="6.679180">
						<ele>397</ele>
						<time>2023-07-03T09:40:18Z</time>
					</trkpt>
					<trkpt lat="48.025200" lon="6.679100">
						<ele>397</ele>
						<time>2023-07-03T09:40:19Z</time>
					</trkpt>
					<trkpt lat="48.025140" lon="6.678860">
						<ele>397</ele>
						<time>2023-07-03T09:40:22Z</time>
					</trkpt>
					<trkpt lat="48.025070" lon="6.678380">
						<ele>397</ele>
						<time>2023-07-03T09:40:28Z</time>
					</trkpt>
					<trkpt lat="48.025060" lon="6.677910">
						<ele>397</ele>
						<time>2023-07-03T09:40:34Z</time>
					</trkpt>
					<trkpt lat="48.025070" lon="6.677420">
						<ele>397</ele>
						<time>2023-07-03T09:40:39Z</time>
					</trkpt>
					<trkpt lat="48.025110" lon="6.675610">
						<ele>397</ele>
						<time>2023-07-03T09:41:01Z</time>
					</trkpt>
					<trkpt lat="48.025160" lon="6.674890">
						<ele>397</ele>
						<time>2023-07-03T09:41:10Z</time>
					</trkpt>
					<trkpt lat="48.025220" lon="6.674420">
						<ele>397</ele>
						<time>2023-07-03T09:41:15Z</time>
					</trkpt>
					<trkpt lat="48.025250" lon="6.673900">
						<ele>396</ele>
						<time>2023-07-03T09:41:21Z</time>
					</trkpt>
					<trkpt lat="48.025160" lon="6.671230">
						<ele>395</ele>
						<time>2023-07-03T09:41:53Z</time>
					</trkpt>
					<trkpt lat="48.025160" lon="6.670610">
						<ele>396</ele>
						<time>2023-07-03T09:42:01Z</time>
					</trkpt>
					<trkpt lat="48.025140" lon="6.670410">
						<ele>395</ele>
						<time>2023-07-03T09:42:03Z</time>
					</trkpt>
					<trkpt lat="48.025080" lon="6.670060">
						<ele>395</ele>
						<time>2023-07-03T09:42:07Z</time>
					</trkpt>
					<trkpt lat="48.024950" lon="6.669610">
						<ele>395</ele>
						<time>2023-07-03T09:42:13Z</time>
					</trkpt>
					<trkpt lat="48.023840" lon="6.666440">
						<ele>395</ele>
						<time>2023-07-03T09:42:56Z</time>
					</trkpt>
					<trkpt lat="48.023390" lon="6.665200">
						<ele>394</ele>
						<time>2023-07-03T09:43:13Z</time>
					</trkpt>
					<trkpt lat="48.023420" lon="6.665100">
						<ele>394</ele>
						<time>2023-07-03T09:43:14Z</time>
					</trkpt>
					<trkpt lat="48.023360" lon="6.664850">
						<ele>394</ele>
						<time>2023-07-03T09:43:17Z</time>
					</trkpt>
					<trkpt lat="48.023300" lon="6.664390">
						<ele>393</ele>
						<time>2023-07-03T09:43:23Z</time>
					</trkpt>
					<trkpt lat="48.023250" lon="6.662270">
						<ele>394</ele>
						<time>2023-07-03T09:43:48Z</time>
					</trkpt>
					<trkpt lat="48.023220" lon="6.661640">
						<ele>394</ele>
						<time>2023-07-03T09:43:55Z</time>
					</trkpt>
					<trkpt lat="48.023210" lon="6.661540">
						<ele>394</ele>
						<time>2023-07-03T09:43:57Z</time>
					</trkpt>
					<trkpt lat="48.023180" lon="6.661470">
						<ele>394</ele>
						<time>2023-07-03T09:43:58Z</time>
					</trkpt>
					<trkpt lat="48.023140" lon="6.661180">
						<ele>393</ele>
						<time>2023-07-03T09:44:01Z</time>
					</trkpt>
					<trkpt lat="48.023020" lon="6.660520">
						<ele>393</ele>
						<time>2023-07-03T09:44:09Z</time>
					</trkpt>
					<trkpt lat="48.022970" lon="6.660340">
						<ele>393</ele>
						<time>2023-07-03T09:44:12Z</time>
					</trkpt>
					<trkpt lat="48.022880" lon="6.660120">
						<ele>393</ele>
						<time>2023-07-03T09:44:15Z</time>
					</trkpt>
					<trkpt lat="48.022660" lon="6.659780">
						<ele>393</ele>
						<time>2023-07-03T09:44:20Z</time>
					</trkpt>
					<trkpt lat="48.022670" lon="6.659730">
						<ele>393</ele>
						<time>2023-07-03T09:44:21Z</time>
					</trkpt>
					<trkpt lat="48.022560" lon="6.659580">
						<ele>393</ele>
						<time>2023-07-03T09:44:24Z</time>
					</trkpt>
					<trkpt lat="48.022520" lon="6.659610">
						<ele>393</ele>
						<time>2023-07-03T09:44:24Z</time>
					</trkpt>
					<trkpt lat="48.022280" lon="6.659300">
						<ele>392</ele>
						<time>2023-07-03T09:44:30Z</time>
					</trkpt>
					<trkpt lat="48.022170" lon="6.659130">
						<ele>392</ele>
						<time>2023-07-03T09:44:33Z</time>
					</trkpt>
					<trkpt lat="48.021960" lon="6.658830">
						<ele>391</ele>
						<time>2023-07-03T09:44:38Z</time>
					</trkpt>
					<trkpt lat="48.021320" lon="6.658030">
						<ele>391</ele>
						<time>2023-07-03T09:44:53Z</time>
					</trkpt>
					<trkpt lat="48.020940" lon="6.657500">
						<ele>390</ele>
						<time>2023-07-03T09:45:02Z</time>
					</trkpt>
					<trkpt lat="48.019500" lon="6.655580">
						<ele>390</ele>
						<time>2023-07-03T09:45:36Z</time>
					</trkpt>
					<trkpt lat="48.019360" lon="6.655330">
						<ele>390</ele>
						<time>2023-07-03T09:45:40Z</time>
					</trkpt>
					<trkpt lat="48.019210" lon="6.655180">
						<ele>390</ele>
						<time>2023-07-03T09:45:43Z</time>
					</trkpt>
					<trkpt lat="48.016450" lon="6.651460">
						<ele>389</ele>
						<time>2023-07-03T09:46:50Z</time>
					</trkpt>
					<trkpt lat="48.016310" lon="6.651200">
						<ele>390</ele>
						<time>2023-07-03T09:46:54Z</time>
					</trkpt>
					<trkpt lat="48.015220" lon="6.648530">
						<ele>392</ele>
						<time>2023-07-03T09:47:31Z</time>
					</trkpt>
					<trkpt lat="48.015070" lon="6.648080">
						<ele>393</ele>
						<time>2023-07-03T09:47:37Z</time>
					</trkpt>
					<trkpt lat="48.014730" lon="6.646830">
						<ele>391</ele>
						<time>2023-07-03T09:47:53Z</time>
					</trkpt>
					<trkpt lat="48.014510" lon="6.646110">
						<ele>390</ele>
						<time>2023-07-03T09:48:02Z</time>
					</trkpt>
					<trkpt lat="48.014420" lon="6.645890">
						<ele>389</ele>
						<time>2023-07-03T09:48:05Z</time>
					</trkpt>
					<trkpt lat="48.013610" lon="6.644200">
						<ele>394</ele>
						<time>2023-07-03T09:48:30Z</time>
					</trkpt>
					<trkpt lat="48.013450" lon="6.643770">
						<ele>394</ele>
						<time>2023-07-03T09:48:36Z</time>
					</trkpt>
					<trkpt lat="48.013210" lon="6.642710">
						<ele>391</ele>
						<time>2023-07-03T09:48:49Z</time>
					</trkpt>
					<trkpt lat="48.013120" lon="6.642180">
						<ele>390</ele>
						<time>2023-07-03T09:48:56Z</time>
					</trkpt>
					<trkpt lat="48.013090" lon="6.641550">
						<ele>390</ele>
						<time>2023-07-03T09:49:03Z</time>
					</trkpt>
					<trkpt lat="48.013140" lon="6.640910">
						<ele>390</ele>
						<time>2023-07-03T09:49:11Z</time>
					</trkpt>
					<trkpt lat="48.013350" lon="6.639110">
						<ele>393</ele>
						<time>2023-07-03T09:49:33Z</time>
					</trkpt>
					<trkpt lat="48.013360" lon="6.638930">
						<ele>394</ele>
						<time>2023-07-03T09:49:35Z</time>
					</trkpt>
					<trkpt lat="48.013320" lon="6.638920">
						<ele>393</ele>
						<time>2023-07-03T09:49:36Z</time>
					</trkpt>
					<trkpt lat="48.013320" lon="6.638620">
						<ele>394</ele>
						<time>2023-07-03T09:49:39Z</time>
					</trkpt>
					<trkpt lat="48.013060" lon="6.636830">
						<ele>400</ele>
						<time>2023-07-03T09:50:01Z</time>
					</trkpt>
					<trkpt lat="48.013050" lon="6.636380">
						<ele>400</ele>
						<time>2023-07-03T09:50:06Z</time>
					</trkpt>
					<trkpt lat="48.013030" lon="6.633680">
						<ele>386</ele>
						<time>2023-07-03T09:50:38Z</time>
					</trkpt>
					<trkpt lat="48.013010" lon="6.633520">
						<ele>385</ele>
						<time>2023-07-03T09:50:40Z</time>
					</trkpt>
					<trkpt lat="48.012950" lon="6.633370">
						<ele>385</ele>
						<time>2023-07-03T09:50:42Z</time>
					</trkpt>
					<trkpt lat="48.013030" lon="6.633180">
						<ele>385</ele>
						<time>2023-07-03T09:50:45Z</time>
					</trkpt>
					<trkpt lat="48.013090" lon="6.632800">
						<ele>385</ele>
						<time>2023-07-03T09:50:50Z</time>
					</trkpt>
					<trkpt lat="48.013280" lon="6.631940">
						<ele>387</ele>
						<time>2023-07-03T09:51:01Z</time>
					</trkpt>
					<trkpt lat="48.013430" lon="6.631410">
						<ele>388</ele>
						<time>2023-07-03T09:51:07Z</time>
					</trkpt>
					<trkpt lat="48.013630" lon="6.630850">
						<ele>389</ele>
						<time>2023-07-03T09:51:15Z</time>
					</trkpt>
					<trkpt lat="48.014140" lon="6.629670">
						<ele>388</ele>
						<time>2023-07-03T09:51:32Z</time>
					</trkpt>
					<trkpt lat="48.014630" lon="6.628710">
						<ele>388</ele>
						<time>2023-07-03T09:51:46Z</time>
					</trkpt>
					<trkpt lat="48.014820" lon="6.628300">
						<ele>389</ele>
						<time>2023-07-03T09:51:52Z</time>
					</trkpt>
					<trkpt lat="48.015110" lon="6.626790">
						<ele>395</ele>
						<time>2023-07-03T09:52:11Z</time>
					</trkpt>
					<trkpt lat="48.015370" lon="6.625620">
						<ele>402</ele>
						<time>2023-07-03T09:52:25Z</time>
					</trkpt>
					<trkpt lat="48.015520" lon="6.625150">
						<ele>403</ele>
						<time>2023-07-03T09:52:32Z</time>
					</trkpt>
					<trkpt lat="48.015680" lon="6.624740">
						<ele>402</ele>
						<time>2023-07-03T09:52:37Z</time>
					</trkpt>
					<trkpt lat="48.015930" lon="6.624200">
						<ele>400</ele>
						<time>2023-07-03T09:52:45Z</time>
					</trkpt>
					<trkpt lat="48.016180" lon="6.623760">
						<ele>403</ele>
						<time>2023-07-03T09:52:52Z</time>
					</trkpt>
					<trkpt lat="48.017270" lon="6.622040">
						<ele>412</ele>
						<time>2023-07-03T09:53:20Z</time>
					</trkpt>
					<trkpt lat="48.017620" lon="6.621330">
						<ele>414</ele>
						<time>2023-07-03T09:53:31Z</time>
					</trkpt>
					<trkpt lat="48.017710" lon="6.621070">
						<ele>414</ele>
						<time>2023-07-03T09:53:34Z</time>
					</trkpt>
					<trkpt lat="48.017790" lon="6.620730">
						<ele>414</ele>
						<time>2023-07-03T09:53:38Z</time>
					</trkpt>
					<trkpt lat="48.017920" lon="6.619780">
						<ele>414</ele>
						<time>2023-07-03T09:53:50Z</time>
					</trkpt>
					<trkpt lat="48.018100" lon="6.619210">
						<ele>411</ele>
						<time>2023-07-03T09:53:57Z</time>
					</trkpt>
					<trkpt lat="48.019090" lon="6.616840">
						<ele>399</ele>
						<time>2023-07-03T09:54:31Z</time>
					</trkpt>
					<trkpt lat="48.019210" lon="6.616500">
						<ele>398</ele>
						<time>2023-07-03T09:54:35Z</time>
					</trkpt>
					<trkpt lat="48.019200" lon="6.616340">
						<ele>398</ele>
						<time>2023-07-03T09:54:37Z</time>
					</trkpt>
					<trkpt lat="48.019140" lon="6.615990">
						<ele>397</ele>
						<time>2023-07-03T09:54:41Z</time>
					</trkpt>
					<trkpt lat="48.019380" lon="6.615820">
						<ele>397</ele>
						<time>2023-07-03T09:54:46Z</time>
					</trkpt>
					<trkpt lat="48.019500" lon="6.615660">
						<ele>398</ele>
						<time>2023-07-03T09:54:49Z</time>
					</trkpt>
					<trkpt lat="48.019570" lon="6.615550">
						<ele>398</ele>
						<time>2023-07-03T09:54:51Z</time>
					</trkpt>
					<trkpt lat="48.019670" lon="6.615330">
						<ele>398</ele>
						<time>2023-07-03T09:54:54Z</time>
					</trkpt>
					<trkpt lat="48.020190" lon="6.613720">
						<ele>401</ele>
						<time>2023-07-03T09:55:15Z</time>
					</trkpt>
					<trkpt lat="48.021250" lon="6.610260">
						<ele>399</ele>
						<time>2023-07-03T09:56:01Z</time>
					</trkpt>
					<trkpt lat="48.021300" lon="6.610030">
						<ele>399</ele>
						<time>2023-07-03T09:56:03Z</time>
					</trkpt>
					<trkpt lat="48.021360" lon="6.610000">
						<ele>399</ele>
						<time>2023-07-03T09:56:05Z</time>
					</trkpt>
					<trkpt lat="48.021390" lon="6.609940">
						<ele>398</ele>
						<time>2023-07-03T09:56:05Z</time>
					</trkpt>
					<trkpt lat="48.021400" lon="6.609880">
						<ele>398</ele>
						<time>2023-07-03T09:56:06Z</time>
					</trkpt>
					<trkpt lat="48.021370" lon="6.609780">
						<ele>398</ele>
						<time>2023-07-03T09:56:08Z</time>
					</trkpt>
					<trkpt lat="48.021390" lon="6.609530">
						<ele>397</ele>
						<time>2023-07-03T09:56:11Z</time>
					</trkpt>
					<trkpt lat="48.021390" lon="6.608810">
						<ele>396</ele>
						<time>2023-07-03T09:56:19Z</time>
					</trkpt>
					<trkpt lat="48.021370" lon="6.607340">
						<ele>394</ele>
						<time>2023-07-03T09:56:37Z</time>
					</trkpt>
					<trkpt lat="48.021370" lon="6.604990">
						<ele>394</ele>
						<time>2023-07-03T09:57:05Z</time>
					</trkpt>
					<trkpt lat="48.021430" lon="6.604380">
						<ele>393</ele>
						<time>2023-07-03T09:57:12Z</time>
					</trkpt>
					<trkpt lat="48.021560" lon="6.603720">
						<ele>391</ele>
						<time>2023-07-03T09:57:20Z</time>
					</trkpt>
					<trkpt lat="48.021570" lon="6.603550">
						<ele>390</ele>
						<time>2023-07-03T09:57:22Z</time>
					</trkpt>
					<trkpt lat="48.021550" lon="6.603360">
						<ele>389</ele>
						<time>2023-07-03T09:57:24Z</time>
					</trkpt>
					<trkpt lat="48.021530" lon="6.603230">
						<ele>388</ele>
						<time>2023-07-03T09:57:26Z</time>
					</trkpt>
					<trkpt lat="48.021460" lon="6.603020">
						<ele>387</ele>
						<time>2023-07-03T09:57:29Z</time>
					</trkpt>
					<trkpt lat="48.021020" lon="6.602320">
						<ele>383</ele>
						<time>2023-07-03T09:57:40Z</time>
					</trkpt>
					<trkpt lat="48.021040" lon="6.602250">
						<ele>383</ele>
						<time>2023-07-03T09:57:41Z</time>
					</trkpt>
					<trkpt lat="48.021040" lon="6.602170">
						<ele>383</ele>
						<time>2023-07-03T09:57:42Z</time>
					</trkpt>
					<trkpt lat="48.020990" lon="6.602080">
						<ele>382</ele>
						<time>2023-07-03T09:57:43Z</time>
					</trkpt>
					<trkpt lat="48.020920" lon="6.602050">
						<ele>382</ele>
						<time>2023-07-03T09:57:45Z</time>
					</trkpt>
					<trkpt lat="48.020860" lon="6.602080">
						<ele>382</ele>
						<time>2023-07-03T09:57:46Z</time>
					</trkpt>
					<trkpt lat="48.020720" lon="6.601880">
						<ele>382</ele>
						<time>2023-07-03T09:57:49Z</time>
					</trkpt>
					<trkpt lat="48.020740" lon="6.601860">
						<ele>382</ele>
						<time>2023-07-03T09:57:50Z</time>
					</trkpt>
					<trkpt lat="48.020550" lon="6.601590">
						<ele>382</ele>
						<time>2023-07-03T09:57:54Z</time>
					</trkpt>
					<trkpt lat="48.020740" lon="6.601860">
						<ele>382</ele>
						<time>2023-07-03T09:57:59Z</time>
					</trkpt>
					<trkpt lat="48.020720" lon="6.601880">
						<ele>382</ele>
						<time>2023-07-03T09:57:59Z</time>
					</trkpt>
					<trkpt lat="48.019520" lon="6.600140">
						<ele>384</ele>
						<time>2023-07-03T09:58:29Z</time>
					</trkpt>
					<trkpt lat="48.019360" lon="6.599940">
						<ele>383</ele>
						<time>2023-07-03T09:58:33Z</time>
					</trkpt>
					<trkpt lat="48.019140" lon="6.599610">
						<ele>382</ele>
						<time>2023-07-03T09:58:38Z</time>
					</trkpt>
					<trkpt lat="48.019080" lon="6.599550">
						<ele>382</ele>
						<time>2023-07-03T09:58:40Z</time>
					</trkpt>
					<trkpt lat="48.018610" lon="6.598860">
						<ele>383</ele>
						<time>2023-07-03T09:58:52Z</time>
					</trkpt>
					<trkpt lat="48.018550" lon="6.598770">
						<ele>384</ele>
						<time>2023-07-03T09:58:53Z</time>
					</trkpt>
					<trkpt lat="48.018340" lon="6.598470">
						<ele>386</ele>
						<time>2023-07-03T09:58:58Z</time>
					</trkpt>
					<trkpt lat="48.017870" lon="6.597780">
						<ele>388</ele>
						<time>2023-07-03T09:59:10Z</time>
					</trkpt>
					<trkpt lat="48.017540" lon="6.597270">
						<ele>388</ele>
						<time>2023-07-03T09:59:18Z</time>
					</trkpt>
					<trkpt lat="48.017160" lon="6.596390">
						<ele>390</ele>
						<time>2023-07-03T09:59:31Z</time>
					</trkpt>
					<trkpt lat="48.017040" lon="6.596190">
						<ele>391</ele>
						<time>2023-07-03T09:59:34Z</time>
					</trkpt>
					<trkpt lat="48.016860" lon="6.595950">
						<ele>392</ele>
						<time>2023-07-03T09:59:38Z</time>
					</trkpt>
					<trkpt lat="48.016800" lon="6.595800">
						<ele>393</ele>
						<time>2023-07-03T09:59:40Z</time>
					</trkpt>
					<trkpt lat="48.016740" lon="6.595970">
						<ele>392</ele>
						<time>2023-07-03T09:59:43Z</time>
					</trkpt>
					<trkpt lat="48.016680" lon="6.596150">
						<ele>392</ele>
						<time>2023-07-03T09:59:45Z</time>
					</trkpt>
					<trkpt lat="48.016240" lon="6.597860">
						<ele>390</ele>
						<time>2023-07-03T10:00:07Z</time>
					</trkpt>
					<trkpt lat="48.016170" lon="6.598110">
						<ele>390</ele>
						<time>2023-07-03T10:00:10Z</time>
					</trkpt>
					<trkpt lat="48.016100" lon="6.598240">
						<ele>389</ele>
						<time>2023-07-03T10:00:12Z</time>
					</trkpt>
					<trkpt lat="48.016050" lon="6.598230">
						<ele>389</ele>
						<time>2023-07-03T10:00:13Z</time>
					</trkpt>
					<trkpt lat="48.015970" lon="6.598270">
						<ele>389</ele>
						<time>2023-07-03T10:00:14Z</time>
					</trkpt>
					<trkpt lat="48.014700" lon="6.596340">
						<ele>392</ele>
						<time>2023-07-03T10:00:47Z</time>
					</trkpt>
					<trkpt lat="48.014610" lon="6.596100">
						<ele>392</ele>
						<time>2023-07-03T10:00:50Z</time>
					</trkpt>
					<trkpt lat="48.014620" lon="6.596010">
						<ele>392</ele>
						<time>2023-07-03T10:00:51Z</time>
					</trkpt>
					<trkpt lat="48.014580" lon="6.595900">
						<ele>391</ele>
						<time>2023-07-03T10:00:53Z</time>
					</trkpt>
					<trkpt lat="48.014520" lon="6.595850">
						<ele>391</ele>
						<time>2023-07-03T10:00:54Z</time>
					</trkpt>
					<trkpt lat="48.014440" lon="6.595640">
						<ele>392</ele>
						<time>2023-07-03T10:00:57Z</time>
					</trkpt>
					<trkpt lat="48.014400" lon="6.595310">
						<ele>393</ele>
						<time>2023-07-03T10:01:01Z</time>
					</trkpt>
					<trkpt lat="48.014360" lon="6.595110">
						<ele>393</ele>
						<time>2023-07-03T10:01:03Z</time>
					</trkpt>
					<trkpt lat="48.014330" lon="6.594820">
						<ele>393</ele>
						<time>2023-07-03T10:01:07Z</time>
					</trkpt>
					<trkpt lat="48.014320" lon="6.593800">
						<ele>394</ele>
						<time>2023-07-03T10:01:19Z</time>
					</trkpt>
					<trkpt lat="48.014260" lon="6.592200">
						<ele>398</ele>
						<time>2023-07-03T10:01:38Z</time>
					</trkpt>
					<trkpt lat="48.014250" lon="6.590640">
						<ele>401</ele>
						<time>2023-07-03T10:01:56Z</time>
					</trkpt>
					<trkpt lat="48.013980" lon="6.590560">
						<ele>404</ele>
						<time>2023-07-03T10:02:01Z</time>
					</trkpt>
					<trkpt lat="48.013640" lon="6.590080">
						<ele>406</ele>
						<time>2023-07-03T10:02:10Z</time>
					</trkpt>
					<trkpt lat="48.013840" lon="6.589500">
						<ele>405</ele>
						<time>2023-07-03T10:02:17Z</time>
					</trkpt>
					<trkpt lat="48.013850" lon="6.589420">
						<ele>405</ele>
						<time>2023-07-03T10:02:18Z</time>
					</trkpt>
					<trkpt lat="48.013840" lon="6.589350">
						<ele>405</ele>
						<time>2023-07-03T10:02:19Z</time>
					</trkpt>
					<trkpt lat="48.012880" lon="6.588060">
						<ele>412</ele>
						<time>2023-07-03T10:02:42Z</time>
					</trkpt>
					<trkpt lat="48.012420" lon="6.587690">
						<ele>415</ele>
						<time>2023-07-03T10:02:51Z</time>
					</trkpt>
					</trkseg>
				</trk>
			</gpx>